Time,TemperatureF,DewpointF,PressureIn,WindDirection,WindDirectionDegrees,WindSpeedMPH,WindSpeedGustMPH,Humidity,HourlyPrecipIn,Conditions,Clouds,dailyrainin,SolarRadiationWatts/m^2,SoftwareType,DateUTC
2013-03-18 00:00:00,27.0,18.5,29.87,SE,124,4.0,0.0,70,0.00,,CLR,0.00,0.00,VWS V14.01,2013-03-18 04:00:00,
2013-03-18 00:01:00,27.0,18.5,29.87,SE,130,1.0,0.0,70,0.00,,CLR,0.00,0.00,VWS V14.01,2013-03-18 04:01:00,
2013-03-18 00:02:00,27.0,18.5,29.87,SE,130,4.0,0.0,70,0.00,,CLR,0.00,0.00,VWS V14.01,2013-03-18 04:02:00,
2013-03-18 00:03:00,27.0,18.5,29.87,SSE,147,2.0,0.0,70,0.00,,CLR,0.00,0.00,VWS V14.01,2013-03-18 04:03:00,
2013-03-18 00:04:00,27.0,18.5,29.87,ENE,65,1.0,0.0,70,0.00,,CLR,0.00,0.00,VWS V14.01,2013-03-18 04:04:00,
2013-03-18 00:05:00,27.0,18.5,29.87,ESE,115,4.0,0.0,70,0.00,,CLR,0.00,0.00,VWS V14.01,2013-03-18 04:05:00,
2013-03-18 00:06:00,27.0,18.5,29.87,SSE,152,3.0,0.0,70,0.00,,CLR,0.00,0.00,VWS V14.01,2013-03-18 04:06:00,
2013-03-18 00:07:00,27.0,18.5,29.87,ESE,103,0.0,0.0,70,0.00,,CLR,0.00,0.00,VWS V14.01,2013-03-18 04:07:00,
2013-03-18 00:08:00,27.0,18.5,29.87,SE,126,4.0,0.0,70,0.00,,CLR,0.00,0.00,VWS V14.01,2013-03-18 04:08:00,
2013-03-18 00:09:00,27.0,18.5,29.87,ESE,117,0.0,0.0,70,0.00,,CLR,0.00,0.00,VWS V14.01,2013-03-18 04:09:00,
2013-03-18 00:10:00,27.0,18.5,29.87,SE,140,2.0,0.0,70,0.00,,CLR,0.00,0.00,VWS V14.01,2013-03-18 04:10:00,
2013-03-18 00:11:00,27.0,18.5,29.87,SSE,151,0.0,0.0,70,0.00,,CLR,0.00,0.00,VWS V14.01,2013-03-18 04:11:00,
2013-03-18 00:12:00,27.0,18.5,29.87,ESE,120,1.0,0.0,70,0.00,,CLR,0.00,0.00,VWS V14.01,2013-03-18 04:12:00,
2013-03-18 00:13:00,27.0,18.5,29.87,NE,38,2.0,0.0,70,0.00,,CLR,0.00,0.00,VWS V14.01,2013-03-18 04:13:00,
2013-03-18 00:14:00,27.0,18.5,29.87,ESE,104,1.0,0.0,70,0.00,,CLR,0.00,0.00,VWS V14.01,2013-03-18 04:14:00,
2013-03-18 00:15:00,27.0,18.5,29.85,SE,124,3.0,0.0,70,0.00,,CLR,0.00,0.00,VWS V14.01,2013-03-18 04:15:00,
2013-03-18 00:16:00,27.0,18.5,29.85,SE,140,1.0,0.0,70,0.00,,CLR,0.00,0.00,VWS V14.01,2013-03-18 04:16:00,
2013-03-18 00:17:00,27.0,18.5,29.85,SE,136,2.0,0.0,70,0.00,,CLR,0.00,0.00,VWS V14.01,2013-03-18 04:17:00,
2013-03-18 00:18:00,27.0,18.5,29.85,SE,130,2.0,0.0,70,0.00,,CLR,0.00,0.00,VWS V14.01,2013-03-18 04:18:00,
2013-03-18 00:19:00,26.9,18.4,29.85,ESE,109,0.0,0.0,70,0.00,,CLR,0.00,0.00,VWS V14.01,2013-03-18 04:19:00,
2013-03-18 00:20:00,26.9,18.8,29.85,ESE,103,1.0,0.0,71,0.00,,CLR,0.00,0.00,VWS V14.01,2013-03-18 04:20:00,
2013-03-18 00:21:00,26.9,18.8,29.85,ESE,123,2.0,0.0,71,0.00,,CLR,0.00,0.00,VWS V14.01,2013-03-18 04:21:00,
2013-03-18 00:22:00,26.9,18.8,29.85,ESE,117,0.0,0.0,71,0.00,,CLR,0.00,0.00,VWS V14.01,2013-03-18 04:22:00,
2013-03-18 00:23:00,26.9,18.8,29.85,SSE,150,3.0,0.0,71,0.00,,CLR,0.00,0.00,VWS V14.01,2013-03-18 04:23:00,
2013-03-18 00:24:00,26.9,18.8,29.85,ESE,115,6.0,0.0,71,0.00,,CLR,0.00,0.00,VWS V14.01,2013-03-18 04:24:00,
2013-03-18 00:25:00,26.9,18.8,29.85,ESE,113,2.0,0.0,71,0.00,,CLR,0.00,0.00,VWS V14.01,2013-03-18 04:25:00,
2013-03-18 00:26:00,26.9,18.8,29.85,East,94,2.0,0.0,71,0.00,,CLR,0.00,0.00,VWS V14.01,2013-03-18 04:26:00,
2013-03-18 00:27:00,26.9,18.8,29.85,SE,142,4.0,0.0,71,0.00,,CLR,0.00,0.00,VWS V14.01,2013-03-18 04:27:00,
2013-03-18 00:28:00,26.9,18.8,29.85,ESE,103,0.0,0.0,71,0.00,,CLR,0.00,0.00,VWS V14.01,2013-03-18 04:28:00,
2013-03-18 00:29:00,26.9,18.8,29.85,SE,136,4.0,0.0,71,0.00,,CLR,0.00,0.00,VWS V14.01,2013-03-18 04:29:00,
2013-03-18 00:30:00,26.9,18.8,29.85,ENE,76,0.0,0.0,71,0.00,,CLR,0.00,0.00,VWS V14.01,2013-03-18 04:30:00,
2013-03-18 00:31:00,26.9,18.8,29.85,SE,144,3.0,0.0,71,0.00,,CLR,0.00,0.00,VWS V14.01,2013-03-18 04:31:00,
2013-03-18 00:32:00,26.9,18.8,29.85,ESE,116,3.0,0.0,71,0.00,,CLR,0.00,0.00,VWS V14.01,2013-03-18 04:32:00,
2013-03-18 00:33:00,26.9,18.8,29.85,ESE,116,0.0,0.0,71,0.00,,CLR,0.00,0.00,VWS V14.01,2013-03-18 04:33:00,
2013-03-18 00:34:00,26.9,18.8,29.85,SE,136,1.0,0.0,71,0.00,,CLR,0.00,0.00,VWS V14.01,2013-03-18 04:34:00,
2013-03-18 00:35:00,26.9,18.8,29.85,SE,126,4.0,0.0,71,0.00,,CLR,0.00,0.00,VWS V14.01,2013-03-18 04:35:00,
2013-03-18 00:36:00,26.9,18.8,29.85,East,98,1.0,0.0,71,0.00,,CLR,0.00,0.00,VWS V14.01,2013-03-18 04:36:00,
2013-03-18 00:37:00,26.9,18.8,29.85,SE,144,2.0,0.0,71,0.00,,CLR,0.00,0.00,VWS V14.01,2013-03-18 04:37:00,
2013-03-18 00:38:00,26.9,18.8,29.85,SSE,163,3.0,0.0,71,0.00,,CLR,0.00,0.00,VWS V14.01,2013-03-18 04:38:00,
2013-03-18 00:39:00,26.9,18.8,29.85,ESE,120,1.0,0.0,71,0.00,,CLR,0.00,0.00,VWS V14.01,2013-03-18 04:39:00,
2013-03-18 00:40:00,26.9,18.8,29.85,East,94,0.0,0.0,71,0.00,,CLR,0.00,0.00,VWS V14.01,2013-03-18 04:40:00,
2013-03-18 00:41:00,26.9,18.8,29.85,ESE,103,0.0,0.0,71,0.00,,CLR,0.00,0.00,VWS V14.01,2013-03-18 04:41:00,
2013-03-18 00:42:00,26.9,18.8,29.85,SE,126,3.0,0.0,71,0.00,,CLR,0.00,0.00,VWS V14.01,2013-03-18 04:42:00,
2013-03-18 00:43:00,26.9,18.8,29.85,SE,125,5.0,0.0,71,0.00,,CLR,0.00,0.00,VWS V14.01,2013-03-18 04:43:00,
2013-03-18 00:44:00,26.9,18.8,29.85,SE,125,0.0,0.0,71,0.00,,CLR,0.00,0.00,VWS V14.01,2013-03-18 04:44:00,
2013-03-18 00:45:00,26.9,19.1,29.85,ESE,111,2.0,0.0,72,0.00,,CLR,0.00,0.00,VWS V14.01,2013-03-18 04:45:00,
2013-03-18 00:46:00,26.9,18.8,29.85,SE,129,5.0,0.0,71,0.00,,CLR,0.00,0.00,VWS V14.01,2013-03-18 04:46:00,
2013-03-18 00:47:00,26.9,19.1,29.85,ESE,106,1.0,0.0,72,0.00,,CLR,0.00,0.00,VWS V14.01,2013-03-18 04:47:00,
2013-03-18 00:48:00,26.9,19.1,29.85,SSE,152,3.0,0.0,72,0.00,,CLR,0.00,0.00,VWS V14.01,2013-03-18 04:48:00,
2013-03-18 00:49:00,26.9,19.1,29.85,SE,144,3.0,0.0,72,0.00,,CLR,0.00,0.00,VWS V14.01,2013-03-18 04:49:00,
2013-03-18 00:50:00,26.9,19.1,29.85,ESE,108,4.0,0.0,72,0.00,,CLR,0.00,0.00,VWS V14.01,2013-03-18 04:50:00,
2013-03-18 00:51:00,26.9,19.1,29.85,East,98,0.0,0.0,72,0.00,,CLR,0.00,0.00,VWS V14.01,2013-03-18 04:51:00,
2013-03-18 00:52:00,26.9,19.1,29.85,SE,126,5.0,0.0,72,0.00,,CLR,0.00,0.00,VWS V14.01,2013-03-18 04:52:00,
2013-03-18 00:53:00,26.9,19.1,29.85,ESE,122,1.0,0.0,72,0.00,,CLR,0.00,0.00,VWS V14.01,2013-03-18 04:53:00,
2013-03-18 00:54:00,26.9,19.1,29.85,ESE,119,1.0,0.0,72,0.00,,CLR,0.00,0.00,VWS V14.01,2013-03-18 04:54:00,
2013-03-18 00:55:00,27.0,19.2,29.85,ESE,114,1.0,0.0,72,0.00,,CLR,0.00,0.00,VWS V14.01,2013-03-18 04:55:00,
2013-03-18 00:56:00,27.0,19.2,29.85,ESE,111,6.0,0.0,72,0.00,,CLR,0.00,0.00,VWS V14.01,2013-03-18 04:56:00,
2013-03-18 00:57:00,27.0,19.2,29.85,ESE,110,2.0,0.0,72,0.00,,CLR,0.00,0.00,VWS V14.01,2013-03-18 04:57:00,
2013-03-18 00:58:00,27.0,19.2,29.85,SE,134,1.0,0.0,72,0.00,,CLR,0.00,0.00,VWS V14.01,2013-03-18 04:58:00,
2013-03-18 00:59:00,27.0,19.2,29.85,SE,144,4.0,0.0,72,0.00,,CLR,0.00,0.00,VWS V14.01,2013-03-18 04:59:00,
2013-03-18 01:00:00,27.0,19.2,29.85,ESE,103,3.0,0.0,72,0.00,,CLR,0.00,0.00,VWS V14.01,2013-03-18 05:00:00,
2013-03-18 01:01:00,27.0,19.2,29.85,ESE,120,4.0,0.0,72,0.00,,CLR,0.00,0.00,VWS V14.01,2013-03-18 05:01:00,
2013-03-18 01:02:00,27.0,19.2,29.85,SSE,150,4.0,0.0,72,0.00,,CLR,0.00,0.00,VWS V14.01,2013-03-18 05:02:00,
2013-03-18 01:03:00,27.0,19.2,29.85,ESE,105,3.0,0.0,72,0.00,,CLR,0.00,0.00,VWS V14.01,2013-03-18 05:03:00,
2013-03-18 01:04:00,27.0,19.2,29.85,SE,135,5.0,0.0,72,0.00,,CLR,0.00,0.00,VWS V14.01,2013-03-18 05:04:00,
2013-03-18 01:05:00,27.0,19.2,29.85,ESE,117,3.0,0.0,72,0.00,,CLR,0.00,0.00,VWS V14.01,2013-03-18 05:05:00,
2013-03-18 01:06:00,27.0,19.2,29.85,ESE,113,1.0,0.0,72,0.00,,CLR,0.00,0.00,VWS V14.01,2013-03-18 05:06:00,
2013-03-18 01:07:00,27.0,18.9,29.85,SE,128,1.0,0.0,71,0.00,,CLR,0.00,0.00,VWS V14.01,2013-03-18 05:07:00,
2013-03-18 01:08:00,27.0,19.2,29.85,South,188,3.0,0.0,72,0.00,,CLR,0.00,0.00,VWS V14.01,2013-03-18 05:08:00,
2013-03-18 01:09:00,27.0,19.2,29.85,SE,136,3.0,0.0,72,0.00,,CLR,0.00,0.00,VWS V14.01,2013-03-18 05:09:00,
2013-03-18 01:10:00,27.0,19.2,29.85,SE,130,3.0,0.0,72,0.00,,CLR,0.00,0.00,VWS V14.01,2013-03-18 05:10:00,
2013-03-18 01:11:00,27.0,19.2,29.85,NE,49,2.0,0.0,72,0.00,,CLR,0.00,0.00,VWS V14.01,2013-03-18 05:11:00,
2013-03-18 01:12:00,27.0,19.2,29.85,ESE,116,2.0,0.0,72,0.00,,CLR,0.00,0.00,VWS V14.01,2013-03-18 05:12:00,
2013-03-18 01:13:00,27.0,19.2,29.85,ESE,118,3.0,0.0,72,0.00,,CLR,0.00,0.00,VWS V14.01,2013-03-18 05:13:00,
2013-03-18 01:14:00,27.0,19.2,29.83,SE,132,5.0,0.0,72,0.00,,CLR,0.00,0.00,VWS V14.01,2013-03-18 05:14:00,
2013-03-18 01:15:00,27.0,19.2,29.83,SE,124,3.0,0.0,72,0.00,,CLR,0.00,0.00,VWS V14.01,2013-03-18 05:15:00,
2013-03-18 01:16:00,27.0,19.2,29.83,East,97,1.0,0.0,72,0.00,,CLR,0.00,0.00,VWS V14.01,2013-03-18 05:16:00,
2013-03-18 01:17:00,27.0,19.2,29.83,SE,136,1.0,0.0,72,0.00,,CLR,0.00,0.00,VWS V14.01,2013-03-18 05:17:00,
2013-03-18 01:18:00,27.0,19.2,29.83,ESE,123,3.0,0.0,72,0.00,,CLR,0.00,0.00,VWS V14.01,2013-03-18 05:18:00,
2013-03-18 01:19:00,27.0,19.2,29.83,ESE,122,1.0,0.0,72,0.00,,CLR,0.00,0.00,VWS V14.01,2013-03-18 05:19:00,
2013-03-18 01:20:00,27.0,19.2,29.83,SE,127,0.0,0.0,72,0.00,,CLR,0.00,0.00,VWS V14.01,2013-03-18 05:20:00,
2013-03-18 01:21:00,27.0,19.2,29.83,ESE,123,4.0,0.0,72,0.00,,CLR,0.00,0.00,VWS V14.01,2013-03-18 05:21:00,
2013-03-18 01:22:00,27.0,19.2,29.83,SE,140,3.0,0.0,72,0.00,,CLR,0.00,0.00,VWS V14.01,2013-03-18 05:22:00,
2013-03-18 01:23:00,27.0,19.2,29.83,East,79,0.0,0.0,72,0.00,,CLR,0.00,0.00,VWS V14.01,2013-03-18 05:23:00,
2013-03-18 01:24:00,26.9,19.1,29.83,East,101,3.0,0.0,72,0.00,,CLR,0.00,0.00,VWS V14.01,2013-03-18 05:24:00,
2013-03-18 01:25:00,26.9,19.1,29.83,SE,137,1.0,0.0,72,0.00,,CLR,0.00,0.00,VWS V14.01,2013-03-18 05:25:00,
2013-03-18 01:26:00,26.9,19.1,29.83,ESE,113,2.0,0.0,72,0.00,,CLR,0.00,0.00,VWS V14.01,2013-03-18 05:26:00,
2013-03-18 01:27:00,26.9,19.1,29.83,East,97,0.0,0.0,72,0.00,,CLR,0.00,0.00,VWS V14.01,2013-03-18 05:27:00,
2013-03-18 01:28:00,26.9,19.1,29.83,SE,132,2.0,0.0,72,0.00,,CLR,0.00,0.00,VWS V14.01,2013-03-18 05:28:00,
2013-03-18 01:29:00,26.9,19.1,29.83,ESE,120,3.0,0.0,72,0.00,,CLR,0.00,0.00,VWS V14.01,2013-03-18 05:29:00,
2013-03-18 01:30:00,26.9,19.1,29.83,SE,136,3.0,0.0,72,0.00,,CLR,0.00,0.00,VWS V14.01,2013-03-18 05:30:00,
2013-03-18 01:31:00,26.9,19.1,29.83,ESE,117,1.0,0.0,72,0.00,,CLR,0.00,0.00,VWS V14.01,2013-03-18 05:31:00,
2013-03-18 01:32:00,26.9,19.1,29.83,East,101,2.0,0.0,72,0.00,,CLR,0.00,0.00,VWS V14.01,2013-03-18 05:32:00,
2013-03-18 01:33:00,26.9,19.1,29.83,SE,131,1.0,0.0,72,0.00,,CLR,0.00,0.00,VWS V14.01,2013-03-18 05:33:00,
2013-03-18 01:34:00,26.9,19.4,29.83,ESE,114,3.0,0.0,73,0.00,,CLR,0.00,0.00,VWS V14.01,2013-03-18 05:34:00,
2013-03-18 01:35:00,26.9,19.4,29.83,SE,129,4.0,0.0,73,0.00,,CLR,0.00,0.00,VWS V14.01,2013-03-18 05:35:00,
2013-03-18 01:36:00,26.9,19.4,29.83,SE,124,3.0,0.0,73,0.00,,CLR,0.00,0.00,VWS V14.01,2013-03-18 05:36:00,
2013-03-18 01:37:00,26.9,19.1,29.83,ESE,107,5.0,0.0,72,0.00,,CLR,0.00,0.00,VWS V14.01,2013-03-18 05:37:00,
2013-03-18 01:38:00,26.9,19.1,29.83,SE,144,3.0,0.0,72,0.00,,CLR,0.00,0.00,VWS V14.01,2013-03-18 05:38:00,
2013-03-18 01:39:00,26.9,19.1,29.83,SE,126,1.0,0.0,72,0.00,,CLR,0.00,0.00,VWS V14.01,2013-03-18 05:39:00,
2013-03-18 01:40:00,26.9,19.1,29.83,ESE,119,1.0,0.0,72,0.00,,CLR,0.00,0.00,VWS V14.01,2013-03-18 05:40:00,
2013-03-18 01:41:00,26.9,19.1,29.83,SSE,158,3.0,0.0,72,0.00,,CLR,0.00,0.00,VWS V14.01,2013-03-18 05:41:00,
2013-03-18 01:42:00,26.9,19.1,29.83,SE,145,1.0,0.0,72,0.00,,CLR,0.00,0.00,VWS V14.01,2013-03-18 05:42:00,
2013-03-18 01:43:00,26.9,19.1,29.83,ESE,123,3.0,0.0,72,0.00,,CLR,0.00,0.00,VWS V14.01,2013-03-18 05:43:00,
2013-03-18 01:44:00,26.9,19.4,29.83,SSW,197,3.0,0.0,73,0.00,,CLR,0.00,0.00,VWS V14.01,2013-03-18 05:44:00,
2013-03-18 01:45:00,26.9,19.4,29.82,SE,127,4.0,0.0,73,0.00,,CLR,0.00,0.00,VWS V14.01,2013-03-18 05:45:00,
2013-03-18 01:46:00,26.9,19.4,29.82,SSE,160,4.0,0.0,73,0.00,,CLR,0.00,0.00,VWS V14.01,2013-03-18 05:46:00,
2013-03-18 01:47:00,26.9,19.4,29.82,ESE,114,1.0,0.0,73,0.00,,CLR,0.00,0.00,VWS V14.01,2013-03-18 05:47:00,
2013-03-18 01:48:00,26.9,19.4,29.82,ESE,123,3.0,0.0,73,0.00,,CLR,0.00,0.00,VWS V14.01,2013-03-18 05:48:00,
2013-03-18 01:49:00,26.9,19.4,29.82,SE,126,0.0,0.0,73,0.00,,CLR,0.00,0.00,VWS V14.01,2013-03-18 05:49:00,
2013-03-18 01:50:00,26.9,19.4,29.82,ESE,121,5.0,0.0,73,0.00,,CLR,0.00,0.00,VWS V14.01,2013-03-18 05:50:00,
2013-03-18 01:51:00,26.9,19.4,29.82,SE,133,0.0,0.0,73,0.00,,CLR,0.00,0.00,VWS V14.01,2013-03-18 05:51:00,
2013-03-18 01:52:00,26.9,19.4,29.82,SE,129,2.0,0.0,73,0.00,,CLR,0.00,0.00,VWS V14.01,2013-03-18 05:52:00,
2013-03-18 01:53:00,26.9,19.4,29.82,ESE,121,1.0,0.0,73,0.00,,CLR,0.00,0.00,VWS V14.01,2013-03-18 05:53:00,
2013-03-18 01:54:00,26.9,19.4,29.82,SSE,153,4.0,0.0,73,0.00,,CLR,0.00,0.00,VWS V14.01,2013-03-18 05:54:00,
2013-03-18 01:55:00,26.9,19.4,29.82,SE,127,3.0,0.0,73,0.00,,CLR,0.00,0.00,VWS V14.01,2013-03-18 05:55:00,
2013-03-18 01:56:00,26.9,19.4,29.82,SSE,150,1.0,0.0,73,0.00,,CLR,0.00,0.00,VWS V14.01,2013-03-18 05:56:00,
2013-03-18 01:57:00,26.9,19.4,29.82,SE,125,3.0,0.0,73,0.00,,CLR,0.00,0.00,VWS V14.01,2013-03-18 05:57:00,
2013-03-18 01:58:00,26.9,19.4,29.82,SE,138,2.0,0.0,73,0.00,,CLR,0.00,0.00,VWS V14.01,2013-03-18 05:58:00,
2013-03-18 01:59:00,26.9,19.4,29.82,SE,133,1.0,0.0,73,0.00,,CLR,0.00,0.00,VWS V14.01,2013-03-18 05:59:00,
2013-03-18 02:00:00,26.9,19.4,29.81,SE,133,1.0,0.0,73,0.00,,CLR,0.00,0.00,VWS V14.01,2013-03-18 06:00:00,
2013-03-18 02:01:00,26.9,19.4,29.81,ESE,107,2.0,0.0,73,0.00,,CLR,0.00,0.00,VWS V14.01,2013-03-18 06:01:00,
2013-03-18 02:02:00,26.9,19.4,29.81,ESE,119,5.0,0.0,73,0.00,,CLR,0.00,0.00,VWS V14.01,2013-03-18 06:02:00,
2013-03-18 02:03:00,26.9,19.4,29.81,ESE,118,1.0,0.0,73,0.00,,CLR,0.00,0.00,VWS V14.01,2013-03-18 06:03:00,
2013-03-18 02:04:00,26.9,19.4,29.81,NE,51,0.0,0.0,73,0.00,,CLR,0.00,0.00,VWS V14.01,2013-03-18 06:04:00,
2013-03-18 02:05:00,26.9,19.4,29.81,East,101,1.0,0.0,73,0.00,,CLR,0.00,0.00,VWS V14.01,2013-03-18 06:05:00,
2013-03-18 02:06:00,26.9,19.4,29.81,East,101,0.0,0.0,73,0.00,,CLR,0.00,0.00,VWS V14.01,2013-03-18 06:06:00,
2013-03-18 02:07:00,26.9,19.4,29.81,SE,145,2.0,0.0,73,0.00,,CLR,0.00,0.00,VWS V14.01,2013-03-18 06:07:00,
2013-03-18 02:08:00,26.9,19.4,29.81,SE,136,2.0,0.0,73,0.00,,CLR,0.00,0.00,VWS V14.01,2013-03-18 06:08:00,
2013-03-18 02:09:00,26.9,19.4,29.81,ESE,116,0.0,0.0,73,0.00,,CLR,0.00,0.00,VWS V14.01,2013-03-18 06:09:00,
2013-03-18 02:10:00,26.9,19.4,29.81,SE,135,2.0,0.0,73,0.00,,CLR,0.00,0.00,VWS V14.01,2013-03-18 06:10:00,
2013-03-18 02:11:00,26.9,19.4,29.81,East,82,1.0,0.0,73,0.00,,CLR,0.00,0.00,VWS V14.01,2013-03-18 06:11:00,
2013-03-18 02:12:00,26.9,19.4,29.81,South,176,1.0,0.0,73,0.00,,CLR,0.00,0.00,VWS V14.01,2013-03-18 06:12:00,
2013-03-18 02:13:00,26.9,19.4,29.81,SE,144,1.0,0.0,73,0.00,,CLR,0.00,0.00,VWS V14.01,2013-03-18 06:13:00,
2013-03-18 02:14:00,26.9,19.4,29.80,East,92,0.0,0.0,73,0.00,,CLR,0.00,0.00,VWS V14.01,2013-03-18 06:14:00,
2013-03-18 02:15:00,26.9,19.4,29.80,SE,124,3.0,0.0,73,0.00,,CLR,0.00,0.00,VWS V14.01,2013-03-18 06:15:00,
2013-03-18 02:16:00,26.9,19.4,29.80,SE,124,3.0,0.0,73,0.00,,CLR,0.00,0.00,VWS V14.01,2013-03-18 06:16:00,
2013-03-18 02:17:00,26.9,19.4,29.80,SSE,151,1.0,0.0,73,0.00,,CLR,0.00,0.00,VWS V14.01,2013-03-18 06:17:00,
2013-03-18 02:18:00,26.9,19.4,29.80,ESE,114,2.0,0.0,73,0.00,,CLR,0.00,0.00,VWS V14.01,2013-03-18 06:18:00,
2013-03-18 02:19:00,26.9,19.4,29.80,SE,146,5.0,0.0,73,0.00,,CLR,0.00,0.00,VWS V14.01,2013-03-18 06:19:00,
2013-03-18 02:20:00,26.9,19.4,29.80,SE,128,1.0,0.0,73,0.00,,CLR,0.00,0.00,VWS V14.01,2013-03-18 06:20:00,
2013-03-18 02:21:00,26.9,19.4,29.80,ESE,117,3.0,0.0,73,0.00,,CLR,0.00,0.00,VWS V14.01,2013-03-18 06:21:00,
2013-03-18 02:22:00,26.9,19.4,29.80,SE,142,1.0,0.0,73,0.00,,CLR,0.00,0.00,VWS V14.01,2013-03-18 06:22:00,
2013-03-18 02:23:00,26.9,19.4,29.80,East,89,0.0,0.0,73,0.00,,CLR,0.00,0.00,VWS V14.01,2013-03-18 06:23:00,
2013-03-18 02:24:00,26.9,19.4,29.80,SE,146,1.0,0.0,73,0.00,,CLR,0.00,0.00,VWS V14.01,2013-03-18 06:24:00,
2013-03-18 02:25:00,26.9,19.4,29.80,East,85,0.0,0.0,73,0.00,,CLR,0.00,0.00,VWS V14.01,2013-03-18 06:25:00,
2013-03-18 02:26:00,26.9,19.4,29.80,ESE,121,1.0,0.0,73,0.00,,CLR,0.00,0.00,VWS V14.01,2013-03-18 06:26:00,
2013-03-18 02:27:00,26.9,19.7,29.80,SE,128,3.0,0.0,74,0.00,,CLR,0.00,0.00,VWS V14.01,2013-03-18 06:27:00,
2013-03-18 02:28:00,26.9,19.7,29.80,ESE,115,3.0,0.0,74,0.00,,CLR,0.00,0.00,VWS V14.01,2013-03-18 06:28:00,
2013-03-18 02:29:00,26.9,19.7,29.78,SE,134,2.0,0.0,74,0.00,,CLR,0.00,0.00,VWS V14.01,2013-03-18 06:29:00,
2013-03-18 02:30:00,26.9,19.7,29.78,ESE,116,1.0,0.0,74,0.00,,CLR,0.00,0.00,VWS V14.01,2013-03-18 06:30:00,
2013-03-18 02:31:00,26.9,19.7,29.78,SE,128,2.0,0.0,74,0.00,,CLR,0.00,0.00,VWS V14.01,2013-03-18 06:31:00,
2013-03-18 02:32:00,26.9,19.7,29.78,ESE,123,2.0,0.0,74,0.00,,CLR,0.00,0.00,VWS V14.01,2013-03-18 06:32:00,
2013-03-18 02:33:00,26.9,19.7,29.78,ESE,115,1.0,0.0,74,0.00,,CLR,0.00,0.00,VWS V14.01,2013-03-18 06:33:00,
2013-03-18 02:34:00,26.9,19.7,29.78,SE,130,0.0,0.0,74,0.00,,CLR,0.00,0.00,VWS V14.01,2013-03-18 06:34:00,
2013-03-18 02:35:00,26.9,19.7,29.78,SE,140,1.0,0.0,74,0.00,,CLR,0.00,0.00,VWS V14.01,2013-03-18 06:35:00,
2013-03-18 02:36:00,26.9,19.7,29.78,ESE,119,1.0,0.0,74,0.00,,CLR,0.00,0.00,VWS V14.01,2013-03-18 06:36:00,
2013-03-18 02:37:00,26.9,19.7,29.78,SE,135,2.0,0.0,74,0.00,,CLR,0.00,0.00,VWS V14.01,2013-03-18 06:37:00,
2013-03-18 02:38:00,26.9,19.7,29.78,ESE,107,2.0,0.0,74,0.00,,CLR,0.00,0.00,VWS V14.01,2013-03-18 06:38:00,
2013-03-18 02:39:00,26.9,19.7,29.78,ESE,118,3.0,0.0,74,0.00,,CLR,0.00,0.00,VWS V14.01,2013-03-18 06:39:00,
2013-03-18 02:40:00,26.9,19.7,29.78,ESE,115,2.0,0.0,74,0.00,,CLR,0.00,0.00,VWS V14.01,2013-03-18 06:40:00,
2013-03-18 02:41:00,26.9,19.7,29.78,SE,130,0.0,0.0,74,0.00,,CLR,0.00,0.00,VWS V14.01,2013-03-18 06:41:00,
2013-03-18 02:42:00,26.9,19.7,29.78,SE,141,4.0,0.0,74,0.00,,CLR,0.00,0.00,VWS V14.01,2013-03-18 06:42:00,
2013-03-18 02:43:00,26.9,19.7,29.78,SE,141,4.0,0.0,74,0.00,,CLR,0.00,0.00,VWS V14.01,2013-03-18 06:43:00,
2013-03-18 02:44:00,26.9,19.7,29.78,SE,125,2.0,0.0,74,0.00,,CLR,0.00,0.00,VWS V14.01,2013-03-18 06:44:00,
2013-03-18 02:45:00,26.9,19.7,29.78,East,87,2.0,0.0,74,0.00,,CLR,0.00,0.00,VWS V14.01,2013-03-18 06:45:00,
2013-03-18 02:46:00,26.9,19.7,29.78,SE,138,0.0,0.0,74,0.00,,CLR,0.00,0.00,VWS V14.01,2013-03-18 06:46:00,
2013-03-18 02:47:00,27.0,19.8,29.78,SSE,148,3.0,0.0,74,0.00,,CLR,0.00,0.00,VWS V14.01,2013-03-18 06:47:00,
2013-03-18 02:48:00,27.0,19.8,29.78,SE,141,1.0,0.0,74,0.00,,CLR,0.00,0.00,VWS V14.01,2013-03-18 06:48:00,
2013-03-18 02:49:00,27.0,19.8,29.78,ESE,109,4.0,0.0,74,0.00,,CLR,0.00,0.00,VWS V14.01,2013-03-18 06:49:00,
2013-03-18 02:50:00,27.0,19.8,29.78,SE,138,5.0,0.0,74,0.00,,CLR,0.00,0.00,VWS V14.01,2013-03-18 06:50:00,
2013-03-18 02:51:00,27.0,19.8,29.78,ESE,115,3.0,0.0,74,0.00,,CLR,0.00,0.00,VWS V14.01,2013-03-18 06:51:00,
2013-03-18 02:52:00,27.0,19.8,29.78,ESE,121,1.0,0.0,74,0.00,,CLR,0.00,0.00,VWS V14.01,2013-03-18 06:52:00,
2013-03-18 02:53:00,27.0,19.8,29.78,ESE,113,2.0,0.0,74,0.00,,CLR,0.00,0.00,VWS V14.01,2013-03-18 06:53:00,
2013-03-18 02:54:00,27.0,19.8,29.78,SE,142,2.0,0.0,74,0.00,,CLR,0.00,0.00,VWS V14.01,2013-03-18 06:54:00,
2013-03-18 02:55:00,27.0,19.8,29.78,ESE,115,1.0,0.0,74,0.00,,CLR,0.00,0.00,VWS V14.01,2013-03-18 06:55:00,
2013-03-18 02:56:00,27.0,19.8,29.78,ESE,111,1.0,0.0,74,0.00,,CLR,0.00,0.00,VWS V14.01,2013-03-18 06:56:00,
2013-03-18 02:57:00,27.0,19.8,29.78,ESE,123,0.0,0.0,74,0.00,,CLR,0.00,0.00,VWS V14.01,2013-03-18 06:57:00,
2013-03-18 02:58:00,27.0,19.8,29.78,ESE,121,6.0,0.0,74,0.00,,CLR,0.00,0.00,VWS V14.01,2013-03-18 06:58:00,
2013-03-18 02:59:00,27.0,19.8,29.77,ESE,115,0.0,0.0,74,0.00,,CLR,0.00,0.00,VWS V14.01,2013-03-18 06:59:00,
2013-03-18 03:00:00,27.0,19.8,29.77,East,89,0.0,0.0,74,0.00,,CLR,0.00,0.00,VWS V14.01,2013-03-18 07:00:00,
2013-03-18 03:01:00,27.0,19.8,29.77,ESE,119,1.0,0.0,74,0.00,,CLR,0.00,0.00,VWS V14.01,2013-03-18 07:01:00,
2013-03-18 03:02:00,27.0,19.8,29.77,SE,130,3.0,0.0,74,0.00,,CLR,0.00,0.00,VWS V14.01,2013-03-18 07:02:00,
2013-03-18 03:03:00,27.0,19.8,29.77,SE,129,1.0,0.0,74,0.00,,CLR,0.00,0.00,VWS V14.01,2013-03-18 07:03:00,
2013-03-18 03:04:00,27.0,19.8,29.77,ESE,109,0.0,0.0,74,0.00,,CLR,0.00,0.00,VWS V14.01,2013-03-18 07:04:00,
2013-03-18 03:05:00,27.0,19.8,29.77,SE,125,3.0,0.0,74,0.00,,CLR,0.00,0.00,VWS V14.01,2013-03-18 07:05:00,
2013-03-18 03:06:00,27.0,19.8,29.77,ESE,123,2.0,0.0,74,0.00,,CLR,0.00,0.00,VWS V14.01,2013-03-18 07:06:00,
2013-03-18 03:07:00,27.0,19.8,29.77,East,85,2.0,0.0,74,0.00,,CLR,0.00,0.00,VWS V14.01,2013-03-18 07:07:00,
2013-03-18 03:08:00,27.0,19.8,29.77,SE,126,4.0,0.0,74,0.00,,CLR,0.00,0.00,VWS V14.01,2013-03-18 07:08:00,
2013-03-18 03:09:00,27.0,19.8,29.77,SSE,153,3.0,0.0,74,0.00,,CLR,0.00,0.00,VWS V14.01,2013-03-18 07:09:00,
2013-03-18 03:10:00,27.0,19.8,29.77,NNE,22,1.0,0.0,74,0.00,,CLR,0.00,0.00,VWS V14.01,2013-03-18 07:10:00,
2013-03-18 03:11:00,27.0,19.8,29.77,ESE,121,4.0,0.0,74,0.00,,CLR,0.00,0.00,VWS V14.01,2013-03-18 07:11:00,
2013-03-18 03:12:00,27.0,19.8,29.77,SE,140,5.0,0.0,74,0.00,,CLR,0.00,0.00,VWS V14.01,2013-03-18 07:12:00,
2013-03-18 03:13:00,27.0,19.8,29.77,SE,136,2.0,0.0,74,0.00,,CLR,0.00,0.00,VWS V14.01,2013-03-18 07:13:00,
2013-03-18 03:14:00,27.0,19.8,29.77,SE,127,3.0,0.0,74,0.00,,CLR,0.00,0.00,VWS V14.01,2013-03-18 07:14:00,
2013-03-18 03:15:00,27.0,19.8,29.75,SE,126,2.0,0.0,74,0.00,,CLR,0.00,0.00,VWS V14.01,2013-03-18 07:15:00,
2013-03-18 03:16:00,27.0,19.8,29.75,SE,126,4.0,0.0,74,0.00,,CLR,0.00,0.00,VWS V14.01,2013-03-18 07:16:00,
2013-03-18 03:17:00,27.0,19.8,29.75,SE,136,5.0,0.0,74,0.00,,CLR,0.00,0.00,VWS V14.01,2013-03-18 07:17:00,
2013-03-18 03:18:00,27.0,19.8,29.75,ESE,118,2.0,0.0,74,0.00,,CLR,0.00,0.00,VWS V14.01,2013-03-18 07:18:00,
2013-03-18 03:19:00,27.0,19.8,29.75,SSE,149,3.0,0.0,74,0.00,,CLR,0.00,0.00,VWS V14.01,2013-03-18 07:19:00,
2013-03-18 03:20:00,27.0,19.8,29.75,ESE,104,1.0,0.0,74,0.00,,CLR,0.00,0.00,VWS V14.01,2013-03-18 07:20:00,
2013-03-18 03:21:00,27.0,19.8,29.75,SSE,151,4.0,0.0,74,0.00,,CLR,0.00,0.00,VWS V14.01,2013-03-18 07:21:00,
2013-03-18 03:22:00,27.0,19.8,29.75,SSE,150,2.0,0.0,74,0.00,,CLR,0.00,0.00,VWS V14.01,2013-03-18 07:22:00,
2013-03-18 03:23:00,27.0,19.8,29.75,SE,139,7.0,0.0,74,0.00,,CLR,0.00,0.00,VWS V14.01,2013-03-18 07:23:00,
2013-03-18 03:24:00,27.0,19.8,29.75,SE,129,3.0,0.0,74,0.00,,CLR,0.00,0.00,VWS V14.01,2013-03-18 07:24:00,
2013-03-18 03:25:00,27.2,20.0,29.75,SSE,148,5.0,0.0,74,0.00,,CLR,0.00,0.00,VWS V14.01,2013-03-18 07:25:00,
2013-03-18 03:26:00,27.2,20.0,29.75,East,96,3.0,0.0,74,0.00,,CLR,0.00,0.00,VWS V14.01,2013-03-18 07:26:00,
2013-03-18 03:27:00,27.2,20.0,29.75,ESE,109,1.0,0.0,74,0.00,,CLR,0.00,0.00,VWS V14.01,2013-03-18 07:27:00,
2013-03-18 03:28:00,27.2,20.0,29.75,SE,128,4.0,0.0,74,0.00,,CLR,0.00,0.00,VWS V14.01,2013-03-18 07:28:00,
2013-03-18 03:29:00,27.2,20.0,29.74,SSE,147,3.0,0.0,74,0.00,,CLR,0.00,0.00,VWS V14.01,2013-03-18 07:29:00,
2013-03-18 03:30:00,27.2,20.0,29.74,SE,132,5.0,0.0,74,0.00,,CLR,0.00,0.00,VWS V14.01,2013-03-18 07:30:00,
2013-03-18 03:31:00,27.2,20.0,29.74,SE,141,1.0,0.0,74,0.00,,CLR,0.00,0.00,VWS V14.01,2013-03-18 07:31:00,
2013-03-18 03:32:00,27.2,20.0,29.74,ENE,71,3.0,0.0,74,0.00,,CLR,0.00,0.00,VWS V14.01,2013-03-18 07:32:00,
2013-03-18 03:33:00,27.2,20.0,29.74,East,98,1.0,0.0,74,0.00,,CLR,0.00,0.00,VWS V14.01,2013-03-18 07:33:00,
2013-03-18 03:34:00,27.2,20.0,29.74,ESE,117,1.0,0.0,74,0.00,,CLR,0.00,0.00,VWS V14.01,2013-03-18 07:34:00,
2013-03-18 03:35:00,27.2,20.0,29.74,SSE,159,2.0,0.0,74,0.00,,CLR,0.00,0.00,VWS V14.01,2013-03-18 07:35:00,
2013-03-18 03:36:00,27.2,20.0,29.74,SE,138,4.0,0.0,74,0.00,,CLR,0.00,0.00,VWS V14.01,2013-03-18 07:36:00,
2013-03-18 03:37:00,27.2,20.0,29.74,ESE,116,0.0,0.0,74,0.00,,CLR,0.00,0.00,VWS V14.01,2013-03-18 07:37:00,
2013-03-18 03:38:00,27.2,20.0,29.74,SE,142,5.0,0.0,74,0.00,,CLR,0.00,0.00,VWS V14.01,2013-03-18 07:38:00,
2013-03-18 03:39:00,27.2,20.0,29.74,ESE,113,4.0,0.0,74,0.00,,CLR,0.00,0.00,VWS V14.01,2013-03-18 07:39:00,
2013-03-18 03:40:00,27.2,20.0,29.74,East,94,2.0,0.0,74,0.00,,CLR,0.00,0.00,VWS V14.01,2013-03-18 07:40:00,
2013-03-18 03:41:00,27.2,20.0,29.74,ESE,113,2.0,0.0,74,0.00,,CLR,0.00,0.00,VWS V14.01,2013-03-18 07:41:00,
2013-03-18 03:42:00,27.2,20.0,29.74,SE,129,1.0,0.0,74,0.00,,CLR,0.00,0.00,VWS V14.01,2013-03-18 07:42:00,
2013-03-18 03:43:00,27.2,20.0,29.74,ESE,122,1.0,0.0,74,0.00,,CLR,0.00,0.00,VWS V14.01,2013-03-18 07:43:00,
2013-03-18 03:44:00,27.2,20.0,29.74,ENE,57,1.0,0.0,74,0.00,,CLR,0.00,0.00,VWS V14.01,2013-03-18 07:44:00,
2013-03-18 03:45:00,27.2,20.0,29.73,SE,135,2.0,0.0,74,0.00,,CLR,0.00,0.00,VWS V14.01,2013-03-18 07:45:00,
2013-03-18 03:46:00,27.2,20.0,29.73,SSE,163,5.0,0.0,74,0.00,,CLR,0.00,0.00,VWS V14.01,2013-03-18 07:46:00,
2013-03-18 03:47:00,27.3,20.1,29.73,SE,138,5.0,0.0,74,0.00,,CLR,0.00,0.00,VWS V14.01,2013-03-18 07:47:00,
2013-03-18 03:48:00,27.3,20.1,29.73,SE,138,5.0,0.0,74,0.00,,CLR,0.00,0.00,VWS V14.01,2013-03-18 07:48:00,
2013-03-18 03:49:00,27.3,20.1,29.73,SE,127,0.0,0.0,74,0.00,,CLR,0.00,0.00,VWS V14.01,2013-03-18 07:49:00,
2013-03-18 03:50:00,27.3,20.1,29.73,SE,128,0.0,0.0,74,0.00,,CLR,0.00,0.00,VWS V14.01,2013-03-18 07:50:00,
2013-03-18 03:51:00,27.3,20.1,29.73,SE,126,1.0,0.0,74,0.00,,CLR,0.00,0.00,VWS V14.01,2013-03-18 07:51:00,
2013-03-18 03:52:00,27.3,20.1,29.73,NE,50,0.0,0.0,74,0.00,,CLR,0.00,0.00,VWS V14.01,2013-03-18 07:52:00,
2013-03-18 03:53:00,27.3,20.1,29.73,East,101,0.0,0.0,74,0.00,,CLR,0.00,0.00,VWS V14.01,2013-03-18 07:53:00,
2013-03-18 03:54:00,27.3,20.1,29.73,ESE,103,0.0,0.0,74,0.00,,CLR,0.00,0.00,VWS V14.01,2013-03-18 07:54:00,
2013-03-18 03:55:00,27.3,20.1,29.73,ESE,118,0.0,0.0,74,0.00,,CLR,0.00,0.00,VWS V14.01,2013-03-18 07:55:00,
2013-03-18 03:56:00,27.3,20.1,29.73,SE,128,1.0,0.0,74,0.00,,CLR,0.00,0.00,VWS V14.01,2013-03-18 07:56:00,
2013-03-18 03:57:00,27.3,20.1,29.73,ENE,65,0.0,0.0,74,0.00,,CLR,0.00,0.00,VWS V14.01,2013-03-18 07:57:00,
2013-03-18 03:58:00,27.3,20.1,29.73,ESE,121,0.0,0.0,74,0.00,,CLR,0.00,0.00,VWS V14.01,2013-03-18 07:58:00,
2013-03-18 03:59:00,27.3,20.1,29.73,ESE,121,0.0,0.0,74,0.00,,CLR,0.00,0.00,VWS V14.01,2013-03-18 07:59:00,
2013-03-18 04:00:00,27.3,20.1,29.73,SSE,155,2.0,0.0,74,0.00,,CLR,0.00,0.00,VWS V14.01,2013-03-18 08:00:00,
2013-03-18 04:01:00,27.3,20.1,29.73,ESE,106,1.0,0.0,74,0.00,,CLR,0.00,0.00,VWS V14.01,2013-03-18 08:01:00,
2013-03-18 04:02:00,27.3,20.1,29.73,SE,140,1.0,0.0,74,0.00,,CLR,0.00,0.00,VWS V14.01,2013-03-18 08:02:00,
2013-03-18 04:03:00,27.3,20.1,29.73,SE,134,3.0,0.0,74,0.00,,CLR,0.00,0.00,VWS V14.01,2013-03-18 08:03:00,
2013-03-18 04:04:00,27.3,20.1,29.73,SE,126,1.0,0.0,74,0.00,,CLR,0.00,0.00,VWS V14.01,2013-03-18 08:04:00,
2013-03-18 04:05:00,27.3,20.1,29.73,SE,144,0.0,0.0,74,0.00,,CLR,0.00,0.00,VWS V14.01,2013-03-18 08:05:00,
2013-03-18 04:06:00,27.3,20.1,29.73,SE,131,1.0,0.0,74,0.00,,CLR,0.00,0.00,VWS V14.01,2013-03-18 08:06:00,
2013-03-18 04:07:00,27.3,20.1,29.73,NE,49,1.0,0.0,74,0.00,,CLR,0.00,0.00,VWS V14.01,2013-03-18 08:07:00,
2013-03-18 04:08:00,27.3,20.1,29.73,SE,144,2.0,0.0,74,0.00,,CLR,0.00,0.00,VWS V14.01,2013-03-18 08:08:00,
2013-03-18 04:09:00,27.3,20.1,29.73,ESE,113,0.0,0.0,74,0.00,,CLR,0.00,0.00,VWS V14.01,2013-03-18 08:09:00,
2013-03-18 04:10:00,27.3,20.1,29.73,ESE,115,0.0,0.0,74,0.00,,CLR,0.00,0.00,VWS V14.01,2013-03-18 08:10:00,
2013-03-18 04:11:00,27.3,20.1,29.73,ESE,115,3.0,0.0,74,0.00,,CLR,0.00,0.00,VWS V14.01,2013-03-18 08:11:00,
2013-03-18 04:12:00,27.3,20.1,29.73,SE,136,1.0,0.0,74,0.00,,CLR,0.00,0.00,VWS V14.01,2013-03-18 08:12:00,
2013-03-18 04:13:00,27.3,20.1,29.73,SE,130,1.0,0.0,74,0.00,,CLR,0.00,0.00,VWS V14.01,2013-03-18 08:13:00,
2013-03-18 04:14:00,27.3,20.1,29.72,SE,138,0.0,0.0,74,0.00,,CLR,0.00,0.00,VWS V14.01,2013-03-18 08:14:00,
2013-03-18 04:15:00,27.3,20.1,29.72,SE,138,0.0,0.0,74,0.00,,CLR,0.00,0.00,VWS V14.01,2013-03-18 08:15:00,
2013-03-18 04:16:00,27.3,20.1,29.72,ESE,120,1.0,0.0,74,0.00,,CLR,0.00,0.00,VWS V14.01,2013-03-18 08:16:00,
2013-03-18 04:17:00,27.5,20.3,29.72,SE,129,1.0,0.0,74,0.00,,CLR,0.00,0.00,VWS V14.01,2013-03-18 08:17:00,
2013-03-18 04:18:00,27.5,20.3,29.72,SE,126,4.0,0.0,74,0.00,,CLR,0.00,0.00,VWS V14.01,2013-03-18 08:18:00,
2013-03-18 04:19:00,27.5,20.3,29.72,ESE,117,2.0,0.0,74,0.00,,CLR,0.00,0.00,VWS V14.01,2013-03-18 08:19:00,
2013-03-18 04:20:00,27.5,20.3,29.72,ENE,70,0.0,0.0,74,0.00,,CLR,0.00,0.00,VWS V14.01,2013-03-18 08:20:00,
2013-03-18 04:21:00,27.5,20.3,29.72,ENE,71,0.0,0.0,74,0.00,,CLR,0.00,0.00,VWS V14.01,2013-03-18 08:21:00,
2013-03-18 04:22:00,27.5,20.3,29.72,ENE,71,0.0,0.0,74,0.00,,CLR,0.00,0.00,VWS V14.01,2013-03-18 08:22:00,
2013-03-18 04:23:00,27.5,20.3,29.72,NE,49,2.0,0.0,74,0.00,,CLR,0.00,0.00,VWS V14.01,2013-03-18 08:23:00,
2013-03-18 04:24:00,27.5,20.3,29.72,ESE,117,1.0,0.0,74,0.00,,CLR,0.00,0.00,VWS V14.01,2013-03-18 08:24:00,
2013-03-18 04:25:00,27.5,20.3,29.72,ESE,112,2.0,0.0,74,0.00,,CLR,0.00,0.00,VWS V14.01,2013-03-18 08:25:00,
2013-03-18 04:26:00,27.5,20.3,29.72,SSE,153,3.0,0.0,74,0.00,,CLR,0.00,0.00,VWS V14.01,2013-03-18 08:26:00,
2013-03-18 04:27:00,27.5,20.3,29.72,ESE,113,2.0,0.0,74,0.00,,CLR,0.00,0.00,VWS V14.01,2013-03-18 08:27:00,
2013-03-18 04:28:00,27.5,20.3,29.72,ESE,121,4.0,0.0,74,0.00,,CLR,0.00,0.00,VWS V14.01,2013-03-18 08:28:00,
2013-03-18 04:29:00,27.5,20.3,29.72,SE,146,0.0,0.0,74,0.00,,CLR,0.00,0.00,VWS V14.01,2013-03-18 08:29:00,
2013-03-18 04:30:00,27.5,20.3,29.70,ESE,119,0.0,0.0,74,0.00,,CLR,0.00,0.00,VWS V14.01,2013-03-18 08:30:00,
2013-03-18 04:31:00,27.5,20.3,29.70,SE,126,0.0,0.0,74,0.00,,CLR,0.00,0.00,VWS V14.01,2013-03-18 08:31:00,
2013-03-18 04:32:00,27.5,20.3,29.70,SE,126,3.0,0.0,74,0.00,,CLR,0.00,0.00,VWS V14.01,2013-03-18 08:32:00,
2013-03-18 04:33:00,27.5,20.3,29.70,SSE,162,2.0,0.0,74,0.00,,CLR,0.00,0.00,VWS V14.01,2013-03-18 08:33:00,
2013-03-18 04:34:00,27.5,20.3,29.70,East,86,0.0,0.0,74,0.00,,CLR,0.00,0.00,VWS V14.01,2013-03-18 08:34:00,
2013-03-18 04:35:00,27.5,20.3,29.70,ESE,119,0.0,0.0,74,0.00,,CLR,0.00,0.00,VWS V14.01,2013-03-18 08:35:00,
2013-03-18 04:36:00,27.5,20.3,29.70,ESE,111,0.0,0.0,74,0.00,,CLR,0.00,0.00,VWS V14.01,2013-03-18 08:36:00,
2013-03-18 04:37:00,27.5,20.3,29.70,SE,144,4.0,0.0,74,0.00,,CLR,0.00,0.00,VWS V14.01,2013-03-18 08:37:00,
2013-03-18 04:38:00,27.5,20.3,29.70,SE,136,1.0,0.0,74,0.00,,CLR,0.00,0.00,VWS V14.01,2013-03-18 08:38:00,
2013-03-18 04:39:00,27.5,20.3,29.70,ESE,120,7.0,0.0,74,0.00,,CLR,0.00,0.00,VWS V14.01,2013-03-18 08:39:00,
2013-03-18 04:40:00,27.5,20.3,29.70,ESE,105,1.0,0.0,74,0.00,,CLR,0.00,0.00,VWS V14.01,2013-03-18 08:40:00,
2013-03-18 04:41:00,27.5,20.3,29.70,SE,136,3.0,0.0,74,0.00,,CLR,0.00,0.00,VWS V14.01,2013-03-18 08:41:00,
2013-03-18 04:42:00,27.5,20.6,29.70,ESE,107,0.0,0.0,75,0.00,,CLR,0.00,0.00,VWS V14.01,2013-03-18 08:42:00,
2013-03-18 04:43:00,27.5,20.6,29.70,ESE,121,1.0,0.0,75,0.00,,CLR,0.00,0.00,VWS V14.01,2013-03-18 08:43:00,
2013-03-18 04:44:00,27.5,20.6,29.69,SE,130,0.0,0.0,75,0.00,,CLR,0.00,0.00,VWS V14.01,2013-03-18 08:44:00,
2013-03-18 04:45:00,27.5,20.6,29.69,SSE,148,2.0,0.0,75,0.00,,CLR,0.00,0.00,VWS V14.01,2013-03-18 08:45:00,
2013-03-18 04:46:00,27.5,20.6,29.69,SE,139,3.0,0.0,75,0.00,,CLR,0.00,0.00,VWS V14.01,2013-03-18 08:46:00,
2013-03-18 04:47:00,27.5,20.6,29.69,SE,128,2.0,0.0,75,0.00,,CLR,0.00,0.00,VWS V14.01,2013-03-18 08:47:00,
2013-03-18 04:48:00,27.5,20.6,29.69,ESE,108,1.0,0.0,75,0.00,,CLR,0.00,0.00,VWS V14.01,2013-03-18 08:48:00,
2013-03-18 04:49:00,27.5,20.6,29.69,SE,132,1.0,0.0,75,0.00,,CLR,0.00,0.00,VWS V14.01,2013-03-18 08:49:00,
2013-03-18 04:50:00,27.5,20.6,29.69,SE,125,3.0,0.0,75,0.00,,CLR,0.00,0.00,VWS V14.01,2013-03-18 08:50:00,
2013-03-18 04:51:00,27.5,20.6,29.69,ENE,63,1.0,0.0,75,0.00,,CLR,0.00,0.00,VWS V14.01,2013-03-18 08:51:00,
2013-03-18 04:52:00,27.5,20.6,29.69,East,90,0.0,0.0,75,0.00,,CLR,0.00,0.00,VWS V14.01,2013-03-18 08:52:00,
2013-03-18 04:53:00,27.5,20.6,29.69,East,95,2.0,0.0,75,0.00,,CLR,0.00,0.00,VWS V14.01,2013-03-18 08:53:00,
2013-03-18 04:54:00,27.6,20.7,29.69,ESE,123,0.0,0.0,75,0.00,,CLR,0.00,0.00,VWS V14.01,2013-03-18 08:54:00,
2013-03-18 04:55:00,27.6,20.7,29.69,East,90,1.0,0.0,75,0.00,,CLR,0.00,0.00,VWS V14.01,2013-03-18 08:55:00,
2013-03-18 04:56:00,27.6,20.7,29.69,ESE,116,0.0,0.0,75,0.00,,CLR,0.00,0.00,VWS V14.01,2013-03-18 08:56:00,
2013-03-18 04:57:00,27.6,20.7,29.69,ESE,121,0.0,0.0,75,0.00,,CLR,0.00,0.00,VWS V14.01,2013-03-18 08:57:00,
2013-03-18 04:58:00,27.6,20.7,29.69,SE,131,2.0,0.0,75,0.00,,CLR,0.00,0.00,VWS V14.01,2013-03-18 08:58:00,
2013-03-18 04:59:00,27.6,20.7,29.68,NE,49,0.0,0.0,75,0.00,,CLR,0.00,0.00,VWS V14.01,2013-03-18 08:59:00,
2013-03-18 05:00:00,27.6,20.7,29.68,East,92,1.0,0.0,75,0.00,,CLR,0.00,0.00,VWS V14.01,2013-03-18 09:00:00,
2013-03-18 05:01:00,27.6,20.7,29.68,SE,126,0.0,0.0,75,0.00,,CLR,0.00,0.00,VWS V14.01,2013-03-18 09:01:00,
2013-03-18 05:02:00,27.6,20.7,29.68,SE,127,0.0,0.0,75,0.00,,CLR,0.00,0.00,VWS V14.01,2013-03-18 09:02:00,
2013-03-18 05:03:00,27.6,20.7,29.68,ESE,119,0.0,0.0,75,0.00,,CLR,0.00,0.00,VWS V14.01,2013-03-18 09:03:00,
2013-03-18 05:04:00,27.6,20.7,29.68,NE,36,2.0,0.0,75,0.00,,CLR,0.00,0.00,VWS V14.01,2013-03-18 09:04:00,
2013-03-18 05:05:00,27.6,20.7,29.68,ESE,111,3.0,0.0,75,0.00,,CLR,0.00,0.00,VWS V14.01,2013-03-18 09:05:00,
2013-03-18 05:06:00,27.6,20.7,29.68,SE,134,1.0,0.0,75,0.00,,CLR,0.00,0.00,VWS V14.01,2013-03-18 09:06:00,
2013-03-18 05:07:00,27.6,20.7,29.68,SE,132,0.0,0.0,75,0.00,,CLR,0.00,0.00,VWS V14.01,2013-03-18 09:07:00,
2013-03-18 05:08:00,27.6,20.7,29.68,ESE,123,1.0,0.0,75,0.00,,CLR,0.00,0.00,VWS V14.01,2013-03-18 09:08:00,
2013-03-18 05:09:00,27.6,20.7,29.68,ESE,109,0.0,0.0,75,0.00,,OVC100,0.00,0.00,VWS V14.01,2013-03-18 09:09:00,
2013-03-18 05:10:00,27.6,20.7,29.68,ESE,110,0.0,0.0,75,0.00,,OVC100,0.00,0.00,VWS V14.01,2013-03-18 09:10:00,
2013-03-18 05:11:00,27.6,20.7,29.68,ESE,109,0.0,0.0,75,0.00,,OVC100,0.00,0.00,VWS V14.01,2013-03-18 09:11:00,
2013-03-18 05:12:00,27.8,20.9,29.68,SE,133,2.0,0.0,75,0.00,,OVC100,0.00,0.00,VWS V14.01,2013-03-18 09:12:00,
2013-03-18 05:13:00,27.8,20.9,29.68,East,91,2.0,0.0,75,0.00,,OVC100,0.00,0.00,VWS V14.01,2013-03-18 09:13:00,
2013-03-18 05:14:00,27.8,20.9,29.68,ENE,61,1.0,0.0,75,0.00,,OVC100,0.00,0.00,VWS V14.01,2013-03-18 09:14:00,
2013-03-18 05:15:00,27.8,20.9,29.67,SSE,149,4.0,0.0,75,0.00,,OVC100,0.00,0.00,VWS V14.01,2013-03-18 09:15:00,
2013-03-18 05:16:00,27.8,20.9,29.67,SE,125,1.0,0.0,75,0.00,,OVC100,0.00,0.00,VWS V14.01,2013-03-18 09:16:00,
2013-03-18 05:17:00,27.8,20.9,29.67,SE,125,0.0,0.0,75,0.00,,OVC100,0.00,0.00,VWS V14.01,2013-03-18 09:17:00,
2013-03-18 05:18:00,27.8,20.9,29.67,ESE,114,1.0,0.0,75,0.00,,OVC100,0.00,0.00,VWS V14.01,2013-03-18 09:18:00,
2013-03-18 05:19:00,27.8,20.9,29.67,SSE,153,3.0,0.0,75,0.00,,OVC100,0.00,0.00,VWS V14.01,2013-03-18 09:19:00,
2013-03-18 05:20:00,27.8,20.9,29.67,SE,140,2.0,0.0,75,0.00,,OVC100,0.00,0.00,VWS V14.01,2013-03-18 09:20:00,
2013-03-18 05:21:00,27.8,20.9,29.67,NNE,30,0.0,0.0,75,0.00,,OVC100,0.00,0.00,VWS V14.01,2013-03-18 09:21:00,
2013-03-18 05:22:00,27.8,20.9,29.67,ESE,107,0.0,0.0,75,0.00,,OVC100,0.00,0.00,VWS V14.01,2013-03-18 09:22:00,
2013-03-18 05:23:00,27.8,20.9,29.67,NNE,22,1.0,0.0,75,0.00,,OVC100,0.00,0.00,VWS V14.01,2013-03-18 09:23:00,
2013-03-18 05:24:00,27.8,20.9,29.67,ESE,114,1.0,0.0,75,0.00,,OVC100,0.00,0.00,VWS V14.01,2013-03-18 09:24:00,
2013-03-18 05:25:00,27.8,20.9,29.67,SE,134,5.0,0.0,75,0.00,,OVC100,0.00,0.00,VWS V14.01,2013-03-18 09:25:00,
2013-03-18 05:26:00,27.8,20.9,29.67,SSE,150,0.0,0.0,75,0.00,,OVC100,0.00,0.00,VWS V14.01,2013-03-18 09:26:00,
2013-03-18 05:27:00,27.9,21.0,29.67,ESE,121,5.0,0.0,75,0.00,,OVC100,0.00,0.00,VWS V14.01,2013-03-18 09:27:00,
2013-03-18 05:28:00,27.9,21.0,29.67,ESE,107,1.0,0.0,75,0.00,,OVC100,0.00,0.00,VWS V14.01,2013-03-18 09:28:00,
2013-03-18 05:29:00,27.9,21.0,29.67,ESE,117,1.0,0.0,75,0.00,,OVC100,0.00,0.00,VWS V14.01,2013-03-18 09:29:00,
2013-03-18 05:30:00,27.9,21.0,29.66,ESE,123,1.0,0.0,75,0.00,,OVC100,0.00,0.00,VWS V14.01,2013-03-18 09:30:00,
2013-03-18 05:31:00,27.9,21.0,29.66,SE,136,3.0,0.0,75,0.00,,OVC100,0.00,0.00,VWS V14.01,2013-03-18 09:31:00,
2013-03-18 05:32:00,27.9,21.0,29.66,ESE,118,2.0,0.0,75,0.00,,OVC100,0.00,0.00,VWS V14.01,2013-03-18 09:32:00,
2013-03-18 05:33:00,27.9,21.0,29.66,ESE,117,4.0,0.0,75,0.00,,OVC100,0.00,0.00,VWS V14.01,2013-03-18 09:33:00,
2013-03-18 05:34:00,27.9,21.0,29.66,ESE,122,1.0,0.0,75,0.00,,OVC100,0.00,0.00,VWS V14.01,2013-03-18 09:34:00,
2013-03-18 05:35:00,27.9,21.0,29.66,ESE,119,0.0,0.0,75,0.00,,OVC100,0.00,0.00,VWS V14.01,2013-03-18 09:35:00,
2013-03-18 05:36:00,27.9,21.0,29.66,SE,130,0.0,0.0,75,0.00,,OVC100,0.00,0.00,VWS V14.01,2013-03-18 09:36:00,
2013-03-18 05:37:00,27.9,21.0,29.66,SE,130,0.0,0.0,75,0.00,,OVC100,0.00,0.00,VWS V14.01,2013-03-18 09:37:00,
2013-03-18 05:38:00,27.9,21.0,29.66,SE,130,0.0,0.0,75,0.00,,OVC100,0.00,0.00,VWS V14.01,2013-03-18 09:38:00,
2013-03-18 05:39:00,27.9,21.0,29.66,SE,124,2.0,0.0,75,0.00,,OVC055,0.00,0.00,VWS V14.01,2013-03-18 09:39:00,
2013-03-18 05:40:00,27.9,21.0,29.66,East,98,1.0,0.0,75,0.00,,OVC055,0.00,0.00,VWS V14.01,2013-03-18 09:40:00,
2013-03-18 05:41:00,28.1,21.2,29.66,ESE,109,0.0,0.0,75,0.00,,OVC055,0.00,0.00,VWS V14.01,2013-03-18 09:41:00,
2013-03-18 05:42:00,28.1,21.2,29.66,SE,126,1.0,0.0,75,0.00,,OVC055,0.00,0.00,VWS V14.01,2013-03-18 09:42:00,
2013-03-18 05:43:00,28.1,21.2,29.66,SE,128,4.0,0.0,75,0.00,,OVC055,0.00,0.00,VWS V14.01,2013-03-18 09:43:00,
2013-03-18 05:44:00,28.1,21.2,29.66,ESE,105,2.0,0.0,75,0.00,,OVC055,0.00,0.00,VWS V14.01,2013-03-18 09:44:00,
2013-03-18 05:45:00,28.1,21.2,29.66,ESE,115,2.0,0.0,75,0.00,,OVC055,0.00,0.00,VWS V14.01,2013-03-18 09:45:00,
2013-03-18 05:46:00,28.1,21.2,29.66,ESE,119,0.0,0.0,75,0.00,,OVC055,0.00,0.00,VWS V14.01,2013-03-18 09:46:00,
2013-03-18 05:47:00,28.1,21.2,29.66,East,94,2.0,0.0,75,0.00,,OVC055,0.00,0.00,VWS V14.01,2013-03-18 09:47:00,
2013-03-18 05:48:00,28.1,21.2,29.66,SE,145,3.0,0.0,75,0.00,,OVC055,0.00,0.00,VWS V14.01,2013-03-18 09:48:00,
2013-03-18 05:49:00,28.1,21.2,29.66,SSE,152,3.0,0.0,75,0.00,,OVC055,0.00,0.00,VWS V14.01,2013-03-18 09:49:00,
2013-03-18 05:50:00,28.1,21.2,29.66,SE,145,1.0,0.0,75,0.00,,OVC055,0.00,0.00,VWS V14.01,2013-03-18 09:50:00,
2013-03-18 05:51:00,28.1,21.2,29.66,ESE,123,1.0,0.0,75,0.00,,OVC055,0.00,0.00,VWS V14.01,2013-03-18 09:51:00,
2013-03-18 05:52:00,28.1,21.2,29.66,ESE,121,1.0,0.0,75,0.00,,OVC055,0.00,0.00,VWS V14.01,2013-03-18 09:52:00,
2013-03-18 05:53:00,28.1,21.2,29.66,SE,143,2.0,0.0,75,0.00,,OVC055,0.00,0.00,VWS V14.01,2013-03-18 09:53:00,
2013-03-18 05:54:00,28.1,21.2,29.66,SE,134,0.0,0.0,75,0.00,,OVC055,0.00,0.00,VWS V14.01,2013-03-18 09:54:00,
2013-03-18 05:55:00,28.1,21.2,29.66,East,86,4.0,0.0,75,0.00,,OVC055,0.00,0.00,VWS V14.01,2013-03-18 09:55:00,
2013-03-18 05:56:00,28.1,21.2,29.66,ESE,121,0.0,0.0,75,0.00,,OVC055,0.00,0.00,VWS V14.01,2013-03-18 09:56:00,
2013-03-18 05:57:00,28.1,21.2,29.66,ENE,65,2.0,0.0,75,0.00,,OVC055,0.00,0.00,VWS V14.01,2013-03-18 09:57:00,
2013-03-18 05:58:00,28.1,21.2,29.66,SE,128,0.0,0.0,75,0.00,,OVC055,0.00,0.00,VWS V14.01,2013-03-18 09:58:00,
2013-03-18 05:59:00,28.1,21.5,29.66,NE,47,0.0,0.0,76,0.00,,OVC055,0.00,0.00,VWS V14.01,2013-03-18 09:59:00,
2013-03-18 06:00:00,28.1,21.5,29.66,NE,46,0.0,0.0,76,0.00,,OVC055,0.00,0.00,VWS V14.01,2013-03-18 10:00:00,
2013-03-18 06:01:00,28.2,21.6,29.66,SE,133,1.0,0.0,76,0.00,,OVC055,0.00,0.00,VWS V14.01,2013-03-18 10:01:00,
2013-03-18 06:02:00,28.2,21.6,29.66,SE,133,1.0,0.0,76,0.00,,OVC055,0.00,0.00,VWS V14.01,2013-03-18 10:02:00,
2013-03-18 06:03:00,28.2,21.6,29.66,ESE,123,0.0,0.0,76,0.00,,OVC055,0.00,0.00,VWS V14.01,2013-03-18 10:03:00,
2013-03-18 06:04:00,28.2,21.6,29.66,SE,127,0.0,0.0,76,0.00,,OVC055,0.00,0.00,VWS V14.01,2013-03-18 10:04:00,
2013-03-18 06:05:00,28.2,21.6,29.66,East,96,0.0,0.0,76,0.00,,OVC055,0.00,0.00,VWS V14.01,2013-03-18 10:05:00,
2013-03-18 06:06:00,28.2,21.9,29.66,East,96,0.0,0.0,77,0.00,,OVC055,0.00,0.00,VWS V14.01,2013-03-18 10:06:00,
2013-03-18 06:07:00,28.2,21.9,29.66,SSE,153,2.0,0.0,77,0.00,,OVC055,0.00,0.00,VWS V14.01,2013-03-18 10:07:00,
2013-03-18 06:08:00,28.2,21.9,29.66,ENE,67,3.0,0.0,77,0.00,,OVC055,0.00,0.00,VWS V14.01,2013-03-18 10:08:00,
2013-03-18 06:09:00,28.2,21.9,29.66,NNE,24,1.0,0.0,77,0.00,,OVC055,0.00,0.00,VWS V14.01,2013-03-18 10:09:00,
2013-03-18 06:10:00,28.2,21.9,29.66,SE,135,4.0,0.0,77,0.00,,OVC055,0.00,0.00,VWS V14.01,2013-03-18 10:10:00,
2013-03-18 06:11:00,28.1,21.8,29.66,SE,124,2.0,0.0,77,0.00,,OVC055,0.00,0.00,VWS V14.01,2013-03-18 10:11:00,
2013-03-18 06:12:00,28.1,21.8,29.66,NNE,22,0.0,0.0,77,0.00,,OVC055,0.00,0.00,VWS V14.01,2013-03-18 10:12:00,
2013-03-18 06:13:00,28.1,21.8,29.66,NE,37,0.0,0.0,77,0.00,,OVC055,0.00,0.00,VWS V14.01,2013-03-18 10:13:00,
2013-03-18 06:14:00,28.1,21.8,29.65,SE,126,0.0,0.0,77,0.00,,OVC055,0.00,0.00,VWS V14.01,2013-03-18 10:14:00,
2013-03-18 06:15:00,28.1,21.8,29.65,NE,37,0.0,0.0,77,0.00,,OVC055,0.00,0.00,VWS V14.01,2013-03-18 10:15:00,
2013-03-18 06:16:00,28.1,21.8,29.65,ENE,65,1.0,0.0,77,0.00,,OVC055,0.00,0.00,VWS V14.01,2013-03-18 10:16:00,
2013-03-18 06:17:00,28.1,21.8,29.65,ENE,66,1.0,0.0,77,0.00,,OVC055,0.00,0.00,VWS V14.01,2013-03-18 10:17:00,
2013-03-18 06:18:00,28.1,22.1,29.65,ESE,110,2.0,0.0,78,0.00,,OVC055,0.00,0.00,VWS V14.01,2013-03-18 10:18:00,
2013-03-18 06:19:00,28.1,22.1,29.65,SE,127,0.0,0.0,78,0.00,,OVC055,0.00,0.00,VWS V14.01,2013-03-18 10:19:00,
2013-03-18 06:20:00,28.1,22.1,29.65,ESE,117,1.0,0.0,78,0.00,,OVC055,0.00,0.00,VWS V14.01,2013-03-18 10:20:00,
2013-03-18 06:21:00,28.1,22.1,29.65,ESE,117,0.0,0.0,78,0.00,,OVC055,0.00,0.00,VWS V14.01,2013-03-18 10:21:00,
2013-03-18 06:22:00,28.1,22.1,29.65,ESE,117,0.0,0.0,78,0.00,,OVC055,0.00,0.00,VWS V14.01,2013-03-18 10:22:00,
2013-03-18 06:23:00,28.1,22.1,29.65,NE,41,1.0,0.0,78,0.00,,OVC055,0.00,0.00,VWS V14.01,2013-03-18 10:23:00,
2013-03-18 06:24:00,28.1,22.1,29.65,ESE,121,2.0,0.0,78,0.00,,OVC055,0.00,0.00,VWS V14.01,2013-03-18 10:24:00,
2013-03-18 06:25:00,28.1,22.1,29.65,ENE,58,1.0,0.0,78,0.00,,OVC055,0.00,0.00,VWS V14.01,2013-03-18 10:25:00,
2013-03-18 06:26:00,28.1,22.1,29.65,North,9,0.0,0.0,78,0.00,,OVC055,0.00,0.00,VWS V14.01,2013-03-18 10:26:00,
2013-03-18 06:27:00,28.1,22.1,29.65,ESE,121,2.0,0.0,78,0.00,,OVC055,0.00,0.00,VWS V14.01,2013-03-18 10:27:00,
2013-03-18 06:28:00,28.1,22.1,29.65,East,101,0.0,0.0,78,0.00,,OVC055,0.00,0.00,VWS V14.01,2013-03-18 10:28:00,
2013-03-18 06:29:00,28.1,22.1,29.64,ESE,102,0.0,0.0,78,0.00,,OVC055,0.00,0.00,VWS V14.01,2013-03-18 10:29:00,
2013-03-18 06:30:00,28.1,22.1,29.64,ESE,108,0.0,0.0,78,0.00,,OVC055,0.00,0.00,VWS V14.01,2013-03-18 10:30:00,
2013-03-18 06:31:00,28.1,22.1,29.64,East,86,0.0,0.0,78,0.00,,OVC055,0.00,0.00,VWS V14.01,2013-03-18 10:31:00,
2013-03-18 06:32:00,28.1,22.4,29.64,SSE,153,3.0,0.0,79,0.00,,OVC055,0.00,0.00,VWS V14.01,2013-03-18 10:32:00,
2013-03-18 06:33:00,28.1,22.4,29.64,NE,44,3.0,0.0,79,0.00,,OVC055,0.00,0.00,VWS V14.01,2013-03-18 10:33:00,
2013-03-18 06:34:00,28.1,22.4,29.64,SE,124,2.0,0.0,79,0.00,,OVC055,0.00,0.00,VWS V14.01,2013-03-18 10:34:00,
2013-03-18 06:35:00,28.1,22.4,29.64,ESE,109,0.0,0.0,79,0.00,,OVC055,0.00,0.00,VWS V14.01,2013-03-18 10:35:00,
2013-03-18 06:36:00,28.1,22.4,29.64,ENE,61,1.0,0.0,79,0.00,,OVC055,0.00,0.00,VWS V14.01,2013-03-18 10:36:00,
2013-03-18 06:37:00,28.1,22.4,29.64,SSE,155,2.0,0.0,79,0.00,,OVC055,0.00,0.00,VWS V14.01,2013-03-18 10:37:00,
2013-03-18 06:38:00,28.1,22.4,29.64,SSE,148,0.0,0.0,79,0.00,,OVC055,0.00,0.00,VWS V14.01,2013-03-18 10:38:00,
2013-03-18 06:39:00,28.1,22.4,29.64,South,169,3.0,0.0,79,0.00,,OVC055,0.00,0.00,VWS V14.01,2013-03-18 10:39:00,
2013-03-18 06:40:00,28.1,22.4,29.64,SE,143,1.0,0.0,79,0.00,,OVC055,0.00,0.00,VWS V14.01,2013-03-18 10:40:00,
2013-03-18 06:41:00,28.1,22.4,29.64,East,96,0.0,0.0,79,0.00,,OVC055,0.00,0.00,VWS V14.01,2013-03-18 10:41:00,
2013-03-18 06:42:00,28.1,22.4,29.64,SE,130,3.0,0.0,79,0.00,,OVC055,0.00,0.00,VWS V14.01,2013-03-18 10:42:00,
2013-03-18 06:43:00,28.1,22.4,29.64,ESE,121,0.0,0.0,79,0.00,,OVC055,0.00,0.00,VWS V14.01,2013-03-18 10:43:00,
2013-03-18 06:44:00,28.1,22.4,29.63,ESE,121,0.0,0.0,79,0.00,,OVC021,0.00,0.00,VWS V14.01,2013-03-18 10:44:00,
2013-03-18 06:45:00,28.1,22.4,29.63,ESE,121,0.0,0.0,79,0.00,,OVC021,0.00,0.00,VWS V14.01,2013-03-18 10:45:00,
2013-03-18 06:46:00,28.1,22.4,29.63,West,279,0.0,0.0,79,0.00,,OVC021,0.00,0.00,VWS V14.01,2013-03-18 10:46:00,
2013-03-18 06:47:00,28.1,22.4,29.63,SE,128,0.0,0.0,79,0.00,,OVC021,0.00,0.00,VWS V14.01,2013-03-18 10:47:00,
2013-03-18 06:48:00,28.1,22.4,29.63,ENE,73,0.0,0.0,79,0.00,,OVC021,0.00,0.00,VWS V14.01,2013-03-18 10:48:00,
2013-03-18 06:49:00,28.1,22.7,29.63,ENE,74,0.0,0.0,80,0.00,,OVC021,0.00,0.00,VWS V14.01,2013-03-18 10:49:00,
2013-03-18 06:50:00,28.1,22.7,29.63,ENE,74,0.0,0.0,80,0.00,,OVC021,0.00,0.00,VWS V14.01,2013-03-18 10:50:00,
2013-03-18 06:51:00,28.1,22.7,29.63,East,86,0.0,0.0,80,0.00,,OVC021,0.00,0.00,VWS V14.01,2013-03-18 10:51:00,
2013-03-18 06:52:00,28.1,22.7,29.63,SSE,148,0.0,0.0,80,0.00,,OVC021,0.00,0.00,VWS V14.01,2013-03-18 10:52:00,
2013-03-18 06:53:00,28.1,22.7,29.63,SSE,148,0.0,0.0,80,0.00,,OVC021,0.00,0.00,VWS V14.01,2013-03-18 10:53:00,
2013-03-18 06:54:00,28.1,22.7,29.63,NE,42,0.0,0.0,80,0.00,,OVC021,0.00,0.00,VWS V14.01,2013-03-18 10:54:00,
2013-03-18 06:55:00,28.1,22.7,29.63,NE,42,0.0,0.0,80,0.00,,OVC021,0.00,0.00,VWS V14.01,2013-03-18 10:55:00,
2013-03-18 06:56:00,28.1,22.7,29.63,East,80,0.0,0.0,80,0.00,,OVC021,0.00,0.00,VWS V14.01,2013-03-18 10:56:00,
2013-03-18 06:57:00,28.1,22.7,29.63,East,80,0.0,0.0,80,0.00,,OVC021,0.00,0.00,VWS V14.01,2013-03-18 10:57:00,
2013-03-18 06:58:00,28.2,22.8,29.63,NE,47,0.0,0.0,80,0.00,,OVC021,0.00,0.00,VWS V14.01,2013-03-18 10:58:00,
2013-03-18 06:59:00,28.2,22.8,29.63,SE,124,0.0,0.0,80,0.00,,OVC021,0.00,0.00,VWS V14.01,2013-03-18 10:59:00,
2013-03-18 07:00:00,28.2,22.8,29.62,SE,124,1.0,0.0,80,0.00,,OVC021,0.00,0.00,VWS V14.01,2013-03-18 11:00:00,
2013-03-18 07:01:00,28.2,23.1,29.62,NE,47,3.0,0.0,81,0.00,,OVC021,0.00,0.00,VWS V14.01,2013-03-18 11:01:00,
2013-03-18 07:02:00,28.2,23.1,29.62,ESE,117,0.0,0.0,81,0.00,,OVC021,0.00,0.00,VWS V14.01,2013-03-18 11:02:00,
2013-03-18 07:03:00,28.2,23.1,29.62,ESE,117,1.0,0.0,81,0.00,,OVC021,0.00,0.00,VWS V14.01,2013-03-18 11:03:00,
2013-03-18 07:04:00,28.2,23.1,29.62,East,80,0.0,0.0,81,0.00,,OVC021,0.00,0.00,VWS V14.01,2013-03-18 11:04:00,
2013-03-18 07:05:00,28.2,23.1,29.62,ESE,121,2.0,0.0,81,0.00,,OVC021,0.00,0.00,VWS V14.01,2013-03-18 11:05:00,
2013-03-18 07:06:00,28.2,23.1,29.62,ESE,111,0.0,0.0,81,0.00,,OVC021,0.00,0.00,VWS V14.01,2013-03-18 11:06:00,
2013-03-18 07:07:00,28.2,23.1,29.62,ESE,102,0.0,0.0,81,0.00,,OVC021,0.00,0.00,VWS V14.01,2013-03-18 11:07:00,
2013-03-18 07:08:00,28.2,23.1,29.62,SE,140,1.0,0.0,81,0.00,,OVC021,0.00,0.00,VWS V14.01,2013-03-18 11:08:00,
2013-03-18 07:09:00,28.2,23.1,29.62,ESE,116,0.0,0.0,81,0.00,,OVC021,0.00,0.00,VWS V14.01,2013-03-18 11:09:00,
2013-03-18 07:10:00,28.2,23.4,29.62,ENE,59,2.0,0.0,82,0.00,,OVC021,0.00,0.00,VWS V14.01,2013-03-18 11:10:00,
2013-03-18 07:11:00,28.2,23.4,29.62,East,86,0.0,0.0,82,0.00,,OVC021,0.00,0.00,VWS V14.01,2013-03-18 11:11:00,
2013-03-18 07:12:00,28.2,23.4,29.62,East,86,0.0,0.0,82,0.00,,OVC021,0.00,0.00,VWS V14.01,2013-03-18 11:12:00,
2013-03-18 07:13:00,28.2,23.4,29.62,ESE,123,1.0,0.0,82,0.00,,OVC021,0.00,0.00,VWS V14.01,2013-03-18 11:13:00,
2013-03-18 07:14:00,28.2,23.4,29.62,NNE,32,0.0,0.0,82,0.00,,OVC021,0.00,0.00,VWS V14.01,2013-03-18 11:14:00,
2013-03-18 07:15:00,28.2,23.4,29.62,NE,40,2.0,0.0,82,0.00,,OVC021,0.00,0.00,VWS V14.01,2013-03-18 11:15:00,
2013-03-18 07:16:00,28.2,23.4,29.62,ENE,63,0.0,0.0,82,0.00,,OVC021,0.00,0.00,VWS V14.01,2013-03-18 11:16:00,
2013-03-18 07:17:00,28.2,23.4,29.62,ENE,77,0.0,0.0,82,0.00,,OVC021,0.00,0.00,VWS V14.01,2013-03-18 11:17:00,
2013-03-18 07:18:00,28.2,23.4,29.62,NE,42,0.0,0.0,82,0.00,,OVC021,0.00,0.00,VWS V14.01,2013-03-18 11:18:00,
2013-03-18 07:19:00,28.2,23.4,29.62,ESE,119,4.0,0.0,82,0.00,,OVC021,0.00,0.00,VWS V14.01,2013-03-18 11:19:00,
2013-03-18 07:20:00,28.2,23.4,29.62,ENE,76,0.0,0.0,82,0.00,,OVC021,0.00,0.00,VWS V14.01,2013-03-18 11:20:00,
2013-03-18 07:21:00,28.2,23.4,29.62,NE,46,0.0,0.0,82,0.00,,OVC021,0.00,0.00,VWS V14.01,2013-03-18 11:21:00,
2013-03-18 07:22:00,28.2,23.4,29.62,East,86,1.0,0.0,82,0.00,,OVC021,0.00,0.00,VWS V14.01,2013-03-18 11:22:00,
2013-03-18 07:23:00,28.2,23.4,29.62,SE,139,2.0,0.0,82,0.00,,OVC021,0.00,0.00,VWS V14.01,2013-03-18 11:23:00,
2013-03-18 07:24:00,28.2,23.7,29.62,ESE,111,3.0,0.0,83,0.00,,OVC021,0.00,0.00,VWS V14.01,2013-03-18 11:24:00,
2013-03-18 07:25:00,28.2,23.7,29.62,East,89,0.0,0.0,83,0.00,,OVC021,0.00,0.00,VWS V14.01,2013-03-18 11:25:00,
2013-03-18 07:26:00,28.2,23.7,29.62,ESE,122,0.0,0.0,83,0.00,,OVC021,0.00,0.00,VWS V14.01,2013-03-18 11:26:00,
2013-03-18 07:27:00,28.2,23.7,29.62,ESE,118,0.0,0.0,83,0.00,,OVC021,0.00,0.00,VWS V14.01,2013-03-18 11:27:00,
2013-03-18 07:28:00,28.2,23.7,29.62,NE,40,1.0,0.0,83,0.00,,OVC021,0.00,0.00,VWS V14.01,2013-03-18 11:28:00,
2013-03-18 07:29:00,28.2,23.7,29.62,East,86,1.0,0.0,83,0.00,,OVC021,0.00,0.00,VWS V14.01,2013-03-18 11:29:00,
2013-03-18 07:30:00,28.2,23.7,29.60,ESE,104,0.0,0.0,83,0.00,,OVC021,0.00,0.00,VWS V14.01,2013-03-18 11:30:00,
2013-03-18 07:31:00,28.2,23.7,29.60,ESE,121,3.0,0.0,83,0.00,,OVC021,0.00,0.00,VWS V14.01,2013-03-18 11:31:00,
2013-03-18 07:32:00,28.2,23.7,29.60,ENE,63,1.0,0.0,83,0.00,,OVC021,0.00,0.00,VWS V14.01,2013-03-18 11:32:00,
2013-03-18 07:33:00,28.2,23.7,29.60,ENE,74,0.0,0.0,83,0.00,,OVC021,0.00,0.00,VWS V14.01,2013-03-18 11:33:00,
2013-03-18 07:34:00,28.2,24.0,29.60,SW,221,2.0,0.0,84,0.00,,OVC021,0.00,0.00,VWS V14.01,2013-03-18 11:34:00,
2013-03-18 07:35:00,28.2,24.0,29.60,East,96,1.0,0.0,84,0.00,,OVC021,0.00,0.00,VWS V14.01,2013-03-18 11:35:00,
2013-03-18 07:36:00,28.2,24.0,29.60,SE,139,2.0,0.0,84,0.00,,OVC021,0.00,0.00,VWS V14.01,2013-03-18 11:36:00,
2013-03-18 07:37:00,28.2,24.0,29.60,ENE,64,0.0,0.0,84,0.00,,OVC021,0.00,0.00,VWS V14.01,2013-03-18 11:37:00,
2013-03-18 07:38:00,28.2,24.0,29.60,SE,126,1.0,0.0,84,0.00,,OVC021,0.00,0.00,VWS V14.01,2013-03-18 11:38:00,
2013-03-18 07:39:00,28.2,24.0,29.60,East,87,0.0,0.0,84,0.00,,OVC021,0.00,0.00,VWS V14.01,2013-03-18 11:39:00,
2013-03-18 07:40:00,28.2,24.0,29.60,ESE,119,2.0,0.0,84,0.00,,OVC021,0.00,0.00,VWS V14.01,2013-03-18 11:40:00,
2013-03-18 07:41:00,28.2,24.0,29.60,ESE,117,2.0,0.0,84,0.00,,OVC021,0.00,0.00,VWS V14.01,2013-03-18 11:41:00,
2013-03-18 07:42:00,28.2,24.0,29.60,ESE,121,4.0,0.0,84,0.00,,OVC021,0.00,0.00,VWS V14.01,2013-03-18 11:42:00,
2013-03-18 07:43:00,28.2,24.0,29.60,ESE,117,3.0,0.0,84,0.00,,OVC021,0.00,0.00,VWS V14.01,2013-03-18 11:43:00,
2013-03-18 07:44:00,28.2,24.0,29.60,ESE,119,2.0,0.0,84,0.00,,OVC015,0.00,5.00,VWS V14.01,2013-03-18 11:44:00,
2013-03-18 07:45:00,28.2,24.0,29.60,ESE,119,4.0,0.0,84,0.00,,OVC015,0.00,5.00,VWS V14.01,2013-03-18 11:45:00,
2013-03-18 07:46:00,28.2,24.0,29.60,SE,128,2.0,0.0,84,0.00,,OVC015,0.00,5.00,VWS V14.01,2013-03-18 11:46:00,
2013-03-18 07:47:00,28.2,24.3,29.60,ESE,121,2.0,0.0,85,0.00,,OVC015,0.00,5.00,VWS V14.01,2013-03-18 11:47:00,
2013-03-18 07:48:00,28.2,24.3,29.60,SE,126,2.0,0.0,85,0.00,,OVC015,0.00,5.00,VWS V14.01,2013-03-18 11:48:00,
2013-03-18 07:49:00,28.2,24.3,29.60,East,88,1.0,0.0,85,0.00,,OVC015,0.00,5.00,VWS V14.01,2013-03-18 11:49:00,
2013-03-18 07:50:00,28.2,24.3,29.60,East,101,1.0,0.0,85,0.00,,OVC015,0.00,5.00,VWS V14.01,2013-03-18 11:50:00,
2013-03-18 07:51:00,28.2,24.3,29.60,East,101,0.0,0.0,85,0.00,,OVC015,0.00,5.00,VWS V14.01,2013-03-18 11:51:00,
2013-03-18 07:52:00,28.2,24.3,29.60,East,101,1.0,0.0,85,0.00,,OVC015,0.00,5.00,VWS V14.01,2013-03-18 11:52:00,
2013-03-18 07:53:00,28.2,24.3,29.60,SE,140,3.0,0.0,85,0.00,,OVC015,0.00,5.00,VWS V14.01,2013-03-18 11:53:00,
2013-03-18 07:54:00,28.2,24.3,29.60,North,355,1.0,0.0,85,0.00,,OVC015,0.00,5.00,VWS V14.01,2013-03-18 11:54:00,
2013-03-18 07:55:00,28.2,24.3,29.60,ESE,115,10.0,0.0,85,0.00,,OVC015,0.00,5.00,VWS V14.01,2013-03-18 11:55:00,
2013-03-18 07:56:00,28.2,24.3,29.60,East,95,1.0,0.0,85,0.00,,OVC015,0.00,5.00,VWS V14.01,2013-03-18 11:56:00,
2013-03-18 07:57:00,28.2,24.3,29.60,SE,128,5.0,0.0,85,0.00,,OVC015,0.00,7.00,VWS V14.01,2013-03-18 11:57:00,
2013-03-18 07:58:00,28.2,24.3,29.60,ESE,111,0.0,0.0,85,0.00,,OVC015,0.00,7.00,VWS V14.01,2013-03-18 11:58:00,
2013-03-18 07:59:00,28.2,24.3,29.60,SE,126,2.0,0.0,85,0.00,,OVC015,0.00,7.00,VWS V14.01,2013-03-18 11:59:00,
2013-03-18 08:00:00,28.2,24.3,29.58,SE,127,3.0,0.0,85,0.00,,OVC015,0.00,7.00,VWS V14.01,2013-03-18 12:00:00,
2013-03-18 08:01:00,28.2,24.3,29.58,ESE,107,0.0,0.0,85,0.00,,OVC015,0.00,7.00,VWS V14.01,2013-03-18 12:01:00,
2013-03-18 08:02:00,28.2,24.3,29.58,East,88,1.0,0.0,85,0.00,,OVC015,0.00,7.00,VWS V14.01,2013-03-18 12:02:00,
2013-03-18 08:03:00,28.2,24.3,29.58,East,100,0.0,0.0,85,0.00,,OVC015,0.00,7.00,VWS V14.01,2013-03-18 12:03:00,
2013-03-18 08:04:00,28.2,24.3,29.58,ESE,109,0.0,0.0,85,0.00,,OVC015,0.00,7.00,VWS V14.01,2013-03-18 12:04:00,
2013-03-18 08:05:00,28.2,24.3,29.58,SE,134,4.0,0.0,85,0.00,,OVC015,0.00,7.00,VWS V14.01,2013-03-18 12:05:00,
2013-03-18 08:06:00,28.2,24.3,29.58,SSE,155,0.0,0.0,85,0.00,,OVC015,0.00,7.00,VWS V14.01,2013-03-18 12:06:00,
2013-03-18 08:07:00,28.2,24.3,29.58,SSE,149,1.0,0.0,85,0.00,,OVC015,0.00,7.00,VWS V14.01,2013-03-18 12:07:00,
2013-03-18 08:08:00,28.4,24.5,29.58,NW,306,1.0,0.0,85,0.00,,OVC015,0.00,7.00,VWS V14.01,2013-03-18 12:08:00,
2013-03-18 08:09:00,28.4,24.5,29.58,SSW,209,0.0,0.0,85,0.00,,OVC015,0.00,7.00,VWS V14.01,2013-03-18 12:09:00,
2013-03-18 08:10:00,28.4,24.5,29.58,ESE,119,3.0,0.0,85,0.00,,OVC015,0.00,7.00,VWS V14.01,2013-03-18 12:10:00,
2013-03-18 08:11:00,28.4,24.5,29.58,NE,54,3.0,0.0,85,0.00,,OVC015,0.00,7.00,VWS V14.01,2013-03-18 12:11:00,
2013-03-18 08:12:00,28.4,24.5,29.58,SE,138,0.0,0.0,85,0.00,,OVC015,0.00,9.00,VWS V14.01,2013-03-18 12:12:00,
2013-03-18 08:13:00,28.4,24.5,29.58,North,349,0.0,0.0,85,0.00,,OVC015,0.00,11.00,VWS V14.01,2013-03-18 12:13:00,
2013-03-18 08:14:00,28.4,24.5,29.58,ENE,78,3.0,0.0,85,0.00,,OVC015,0.00,11.00,VWS V14.01,2013-03-18 12:14:00,
2013-03-18 08:15:00,28.4,24.5,29.58,NE,43,1.0,0.0,85,0.00,,OVC015,0.00,12.00,VWS V14.01,2013-03-18 12:15:00,
2013-03-18 08:16:00,28.4,24.5,29.58,East,101,0.0,0.0,85,0.00,,OVC015,0.00,12.00,VWS V14.01,2013-03-18 12:16:00,
2013-03-18 08:17:00,28.4,24.5,29.58,ENE,70,0.0,0.0,85,0.00,,OVC015,0.00,12.00,VWS V14.01,2013-03-18 12:17:00,
2013-03-18 08:18:00,28.4,24.5,29.58,ESE,117,0.0,0.0,85,0.00,,OVC015,0.00,12.00,VWS V14.01,2013-03-18 12:18:00,
2013-03-18 08:19:00,28.4,24.5,29.58,ESE,117,3.0,0.0,85,0.00,,OVC015,0.00,14.00,VWS V14.01,2013-03-18 12:19:00,
2013-03-18 08:20:00,28.4,24.5,29.58,SE,140,4.0,0.0,85,0.00,,OVC015,0.00,14.00,VWS V14.01,2013-03-18 12:20:00,
2013-03-18 08:21:00,28.4,24.5,29.58,East,90,2.0,0.0,85,0.00,,OVC015,0.00,14.00,VWS V14.01,2013-03-18 12:21:00,
2013-03-18 08:22:00,28.5,24.6,29.58,SE,144,2.0,0.0,85,0.00,,OVC015,0.00,12.00,VWS V14.01,2013-03-18 12:22:00,
2013-03-18 08:23:00,28.5,24.6,29.58,ENE,70,4.0,0.0,85,0.00,,OVC015,0.00,14.00,VWS V14.01,2013-03-18 12:23:00,
2013-03-18 08:24:00,28.5,24.6,29.58,East,94,0.0,0.0,85,0.00,,OVC015,0.00,16.00,VWS V14.01,2013-03-18 12:24:00,
2013-03-18 08:25:00,28.5,24.6,29.58,NE,51,0.0,0.0,85,0.00,,OVC015,0.00,16.00,VWS V14.01,2013-03-18 12:25:00,
2013-03-18 08:26:00,28.5,24.6,29.58,SSE,164,4.0,0.0,85,0.00,,OVC015,0.00,18.00,VWS V14.01,2013-03-18 12:26:00,
2013-03-18 08:27:00,28.5,24.6,29.58,ENE,61,0.0,0.0,85,0.00,,OVC015,0.00,19.00,VWS V14.01,2013-03-18 12:27:00,
2013-03-18 08:28:00,28.5,24.6,29.58,SE,146,4.0,0.0,85,0.00,,OVC015,0.00,21.00,VWS V14.01,2013-03-18 12:28:00,
2013-03-18 08:29:00,28.5,24.6,29.58,ESE,113,0.0,0.0,85,0.00,,OVC015,0.00,21.00,VWS V14.01,2013-03-18 12:29:00,
2013-03-18 08:30:00,28.5,24.6,29.58,East,80,0.0,0.0,85,0.00,,OVC015,0.00,21.00,VWS V14.01,2013-03-18 12:30:00,
2013-03-18 08:31:00,28.5,24.6,29.58,ESE,116,0.0,0.0,85,0.00,,OVC015,0.00,23.00,VWS V14.01,2013-03-18 12:31:00,
2013-03-18 08:32:00,28.5,24.6,29.58,SE,132,3.0,0.0,85,0.00,,OVC015,0.00,23.00,VWS V14.01,2013-03-18 12:32:00,
2013-03-18 08:33:00,28.7,24.8,29.58,NE,55,0.0,0.0,85,0.00,,OVC015,0.00,21.00,VWS V14.01,2013-03-18 12:33:00,
2013-03-18 08:34:00,28.7,24.8,29.58,NE,47,1.0,0.0,85,0.00,,OVC013,0.00,23.00,VWS V14.01,2013-03-18 12:34:00,
2013-03-18 08:35:00,28.7,24.8,29.58,NE,47,0.0,0.0,85,0.00,,OVC013,0.00,23.00,VWS V14.01,2013-03-18 12:35:00,
2013-03-18 08:36:00,28.7,24.8,29.58,SE,141,1.0,0.0,85,0.00,,OVC013,0.00,23.00,VWS V14.01,2013-03-18 12:36:00,
2013-03-18 08:37:00,28.7,24.8,29.58,ESE,117,0.0,0.0,85,0.00,,OVC013,0.00,23.00,VWS V14.01,2013-03-18 12:37:00,
2013-03-18 08:38:00,28.7,24.8,29.58,ESE,115,4.0,0.0,85,0.00,,OVC013,0.00,25.00,VWS V14.01,2013-03-18 12:38:00,
2013-03-18 08:39:00,28.7,25.0,29.58,ESE,123,2.0,0.0,86,0.00,,OVC013,0.00,25.00,VWS V14.01,2013-03-18 12:39:00,
2013-03-18 08:40:00,28.7,25.0,29.58,ENE,61,3.0,0.0,86,0.00,,OVC013,0.00,23.00,VWS V14.01,2013-03-18 12:40:00,
2013-03-18 08:41:00,28.7,25.0,29.58,ESE,107,0.0,0.0,86,0.00,,OVC013,0.00,25.00,VWS V14.01,2013-03-18 12:41:00,
2013-03-18 08:42:00,28.7,25.0,29.58,ESE,106,0.0,0.0,86,0.00,,OVC013,0.00,23.00,VWS V14.01,2013-03-18 12:42:00,
2013-03-18 08:43:00,28.7,25.0,29.58,ESE,117,3.0,0.0,86,0.00,,OVC013,0.00,23.00,VWS V14.01,2013-03-18 12:43:00,
2013-03-18 08:44:00,28.7,25.0,29.56,SE,144,2.0,0.0,86,0.00,,OVC013,0.00,25.00,VWS V14.01,2013-03-18 12:44:00,
2013-03-18 08:45:00,28.8,25.1,29.56,ESE,123,1.0,0.0,86,0.00,,OVC013,0.00,25.00,VWS V14.01,2013-03-18 12:45:00,
2013-03-18 08:46:00,28.8,25.1,29.56,ESE,108,4.0,0.0,86,0.00,,OVC013,0.00,25.00,VWS V14.01,2013-03-18 12:46:00,
2013-03-18 08:47:00,28.8,25.1,29.56,ESE,111,0.0,0.0,86,0.00,,OVC013,0.00,28.00,VWS V14.01,2013-03-18 12:47:00,
2013-03-18 08:48:00,28.8,25.1,29.56,NE,52,1.0,0.0,86,0.00,,OVC013,0.00,28.00,VWS V14.01,2013-03-18 12:48:00,
2013-03-18 08:49:00,28.8,25.1,29.56,SE,131,6.0,0.0,86,0.00,,OVC013,0.00,26.00,VWS V14.01,2013-03-18 12:49:00,
2013-03-18 08:50:00,28.8,25.1,29.56,ESE,115,2.0,0.0,86,0.00,,OVC013,0.00,28.00,VWS V14.01,2013-03-18 12:50:00,
2013-03-18 08:51:00,28.8,25.1,29.56,NE,36,2.0,0.0,86,0.00,,OVC013,0.00,30.00,VWS V14.01,2013-03-18 12:51:00,
2013-03-18 08:52:00,28.8,25.1,29.56,SSE,155,0.0,0.0,86,0.00,,OVC013,0.00,33.00,VWS V14.01,2013-03-18 12:52:00,
2013-03-18 08:53:00,28.8,25.1,29.56,ESE,120,0.0,0.0,86,0.00,,OVC013,0.00,33.00,VWS V14.01,2013-03-18 12:53:00,
2013-03-18 08:54:00,28.8,25.1,29.56,SE,146,2.0,0.0,86,0.00,,OVC013,0.00,37.00,VWS V14.01,2013-03-18 12:54:00,
2013-03-18 08:55:00,28.8,25.1,29.56,SE,140,5.0,0.0,86,0.00,,OVC013,0.00,37.00,VWS V14.01,2013-03-18 12:55:00,
2013-03-18 08:56:00,28.8,25.4,29.56,SSE,153,2.0,0.0,87,0.00,,OVC013,0.00,35.00,VWS V14.01,2013-03-18 12:56:00,
2013-03-18 08:57:00,28.8,25.4,29.56,ESE,116,1.0,0.0,87,0.00,,OVC013,0.00,35.00,VWS V14.01,2013-03-18 12:57:00,
2013-03-18 08:58:00,28.8,25.4,29.56,ESE,118,0.0,0.0,87,0.00,,OVC013,0.00,33.00,VWS V14.01,2013-03-18 12:58:00,
2013-03-18 08:59:00,28.8,25.4,29.55,ESE,105,3.0,0.0,87,0.00,,OVC013,0.00,32.00,VWS V14.01,2013-03-18 12:59:00,
2013-03-18 09:00:00,28.8,25.4,29.55,ESE,107,0.0,0.0,87,0.00,,OVC013,0.00,35.00,VWS V14.01,2013-03-18 13:00:00,
2013-03-18 09:01:00,28.8,25.4,29.55,ESE,121,0.0,0.0,87,0.00,,OVC013,0.00,35.00,VWS V14.01,2013-03-18 13:01:00,
2013-03-18 09:02:00,28.8,25.4,29.55,East,101,0.0,0.0,87,0.00,,OVC013,0.00,33.00,VWS V14.01,2013-03-18 13:02:00,
2013-03-18 09:03:00,28.8,25.4,29.55,East,94,0.0,0.0,87,0.00,,OVC013,0.00,33.00,VWS V14.01,2013-03-18 13:03:00,
2013-03-18 09:04:00,28.8,25.4,29.55,SE,145,1.0,0.0,87,0.00,,,0.00,32.00,VWS V14.01,2013-03-18 13:04:00,
2013-03-18 09:05:00,28.8,25.4,29.55,East,100,3.0,0.0,87,0.00,,,0.00,33.00,VWS V14.01,2013-03-18 13:05:00,
2013-03-18 09:06:00,28.8,25.4,29.55,ESE,118,0.0,0.0,87,0.00,,,0.00,28.00,VWS V14.01,2013-03-18 13:06:00,
2013-03-18 09:07:00,28.8,25.4,29.55,ESE,117,0.0,0.0,87,0.00,,,0.00,26.00,VWS V14.01,2013-03-18 13:07:00,
2013-03-18 09:08:00,28.8,25.4,29.55,SE,131,3.0,0.0,87,0.00,,,0.00,26.00,VWS V14.01,2013-03-18 13:08:00,
2013-03-18 09:09:00,28.8,25.4,29.55,ESE,114,3.0,0.0,87,0.00,,,0.00,25.00,VWS V14.01,2013-03-18 13:09:00,
2013-03-18 09:10:00,28.8,25.4,29.55,ESE,121,3.0,0.0,87,0.00,,,0.00,26.00,VWS V14.01,2013-03-18 13:10:00,
2013-03-18 09:11:00,28.8,25.4,29.55,SSE,159,3.0,0.0,87,0.00,,,0.00,28.00,VWS V14.01,2013-03-18 13:11:00,
2013-03-18 09:12:00,28.8,25.4,29.55,SE,126,2.0,0.0,87,0.00,,,0.00,28.00,VWS V14.01,2013-03-18 13:12:00,
2013-03-18 09:13:00,28.8,25.4,29.55,ESE,121,3.0,0.0,87,0.00,,,0.00,25.00,VWS V14.01,2013-03-18 13:13:00,
2013-03-18 09:14:00,28.8,25.4,29.55,East,94,0.0,0.0,87,0.00,,,0.00,25.00,VWS V14.01,2013-03-18 13:14:00,
2013-03-18 09:15:00,28.8,25.4,29.55,East,101,1.0,0.0,87,0.00,,,0.00,28.00,VWS V14.01,2013-03-18 13:15:00,
2013-03-18 09:16:00,29.0,25.6,29.55,ESE,103,0.0,0.0,87,0.00,,,0.00,30.00,VWS V14.01,2013-03-18 13:16:00,
2013-03-18 09:17:00,29.0,25.6,29.55,ESE,105,2.0,0.0,87,0.00,,,0.00,28.00,VWS V14.01,2013-03-18 13:17:00,
2013-03-18 09:18:00,29.0,25.9,29.55,ESE,115,0.0,0.0,88,0.00,,,0.00,28.00,VWS V14.01,2013-03-18 13:18:00,
2013-03-18 09:19:00,29.0,25.9,29.55,SE,126,3.0,0.0,88,0.00,,,0.00,26.00,VWS V14.01,2013-03-18 13:19:00,
2013-03-18 09:20:00,29.0,25.9,29.55,SE,145,4.0,0.0,88,0.00,,,0.00,26.00,VWS V14.01,2013-03-18 13:20:00,
2013-03-18 09:21:00,29.0,25.9,29.55,ESE,104,2.0,0.0,88,0.00,,,0.00,30.00,VWS V14.01,2013-03-18 13:21:00,
2013-03-18 09:22:00,29.0,25.9,29.55,SE,132,2.0,0.0,88,0.00,,,0.00,28.00,VWS V14.01,2013-03-18 13:22:00,
2013-03-18 09:23:00,29.0,25.9,29.55,SE,127,1.0,0.0,88,0.00,,,0.00,30.00,VWS V14.01,2013-03-18 13:23:00,
2013-03-18 09:24:00,29.0,25.9,29.55,SE,130,1.0,0.0,88,0.00,,,0.00,32.00,VWS V14.01,2013-03-18 13:24:00,
2013-03-18 09:25:00,29.0,25.9,29.55,SE,130,0.0,0.0,88,0.00,,,0.00,32.00,VWS V14.01,2013-03-18 13:25:00,
2013-03-18 09:26:00,29.0,25.9,29.55,SE,145,4.0,0.0,88,0.00,,,0.00,37.00,VWS V14.01,2013-03-18 13:26:00,
2013-03-18 09:27:00,29.0,25.9,29.55,ESE,117,5.0,0.0,88,0.00,,,0.00,33.00,VWS V14.01,2013-03-18 13:27:00,
2013-03-18 09:28:00,29.0,25.9,29.55,ESE,119,3.0,0.0,88,0.00,,,0.00,33.00,VWS V14.01,2013-03-18 13:28:00,
2013-03-18 09:29:00,29.0,25.9,29.55,ENE,78,2.0,0.0,88,0.00,,,0.00,35.00,VWS V14.01,2013-03-18 13:29:00,
2013-03-18 09:30:00,29.0,25.9,29.53,ENE,71,0.0,0.0,88,0.00,,,0.00,37.00,VWS V14.01,2013-03-18 13:30:00,
2013-03-18 09:31:00,29.0,25.9,29.53,SE,139,6.0,0.0,88,0.00,,,0.00,37.00,VWS V14.01,2013-03-18 13:31:00,
2013-03-18 09:32:00,29.0,25.9,29.53,SSE,152,3.0,0.0,88,0.00,,,0.00,35.00,VWS V14.01,2013-03-18 13:32:00,
2013-03-18 09:33:00,29.0,25.9,29.53,ENE,59,0.0,0.0,88,0.00,,,0.00,39.00,VWS V14.01,2013-03-18 13:33:00,
2013-03-18 09:34:00,29.0,26.2,29.53,SE,132,2.0,0.0,89,0.00,,,0.00,37.00,VWS V14.01,2013-03-18 13:34:00,
2013-03-18 09:35:00,29.0,26.2,29.53,ESE,105,0.0,0.0,89,0.00,,,0.00,37.00,VWS V14.01,2013-03-18 13:35:00,
2013-03-18 09:36:00,29.0,26.2,29.53,SE,141,0.0,0.0,89,0.00,,,0.00,39.00,VWS V14.01,2013-03-18 13:36:00,
2013-03-18 09:37:00,29.1,26.3,29.53,SE,132,3.0,0.0,89,0.00,,,0.00,42.00,VWS V14.01,2013-03-18 13:37:00,
2013-03-18 09:38:00,29.1,26.3,29.53,SE,132,0.0,0.0,89,0.00,,,0.00,39.00,VWS V14.01,2013-03-18 13:38:00,
2013-03-18 09:39:00,29.1,26.3,29.53,SE,130,2.0,0.0,89,0.00,,,0.00,40.00,VWS V14.01,2013-03-18 13:39:00,
2013-03-18 09:40:00,29.1,26.3,29.53,ESE,109,3.0,0.0,89,0.00,,,0.00,32.00,VWS V14.01,2013-03-18 13:40:00,
2013-03-18 09:41:00,29.1,26.3,29.53,SE,136,3.0,0.0,89,0.00,,,0.00,32.00,VWS V14.01,2013-03-18 13:41:00,
2013-03-18 09:42:00,29.1,26.3,29.53,ESE,116,0.0,0.0,89,0.00,,,0.00,35.00,VWS V14.01,2013-03-18 13:42:00,
2013-03-18 09:43:00,29.1,26.3,29.53,SE,130,0.0,0.0,89,0.00,,,0.00,39.00,VWS V14.01,2013-03-18 13:43:00,
2013-03-18 09:44:00,29.1,26.3,29.53,SE,131,3.0,0.0,89,0.00,,,0.00,40.00,VWS V14.01,2013-03-18 13:44:00,
2013-03-18 09:45:00,29.1,26.3,29.53,SE,138,2.0,0.0,89,0.00,,,0.00,40.00,VWS V14.01,2013-03-18 13:45:00,
2013-03-18 09:46:00,29.1,26.3,29.53,SE,126,3.0,0.0,89,0.00,,,0.00,35.00,VWS V14.01,2013-03-18 13:46:00,
2013-03-18 09:47:00,29.1,26.3,29.53,ESE,122,3.0,0.0,89,0.00,,,0.00,42.00,VWS V14.01,2013-03-18 13:47:00,
2013-03-18 09:48:00,29.1,26.3,29.53,ESE,105,0.0,0.0,89,0.00,,,0.00,42.00,VWS V14.01,2013-03-18 13:48:00,
2013-03-18 09:49:00,29.1,26.3,29.53,ESE,109,3.0,0.0,89,0.00,,,0.00,42.00,VWS V14.01,2013-03-18 13:49:00,
2013-03-18 09:50:00,29.1,26.3,29.53,ESE,107,2.0,0.0,89,0.00,,,0.00,40.00,VWS V14.01,2013-03-18 13:50:00,
2013-03-18 09:51:00,29.3,26.5,29.53,ESE,116,3.0,0.0,89,0.00,,,0.00,33.00,VWS V14.01,2013-03-18 13:51:00,
2013-03-18 09:52:00,29.3,26.5,29.53,ESE,105,0.0,0.0,89,0.00,,,0.00,40.00,VWS V14.01,2013-03-18 13:52:00,
2013-03-18 09:53:00,29.3,26.7,29.53,East,96,1.0,0.0,90,0.00,,,0.00,33.00,VWS V14.01,2013-03-18 13:53:00,
2013-03-18 09:54:00,29.3,26.7,29.53,ESE,116,1.0,0.0,90,0.00,,,0.00,33.00,VWS V14.01,2013-03-18 13:54:00,
2013-03-18 09:55:00,29.3,26.7,29.53,SSE,151,3.0,0.0,90,0.00,,,0.00,32.00,VWS V14.01,2013-03-18 13:55:00,
2013-03-18 09:56:00,29.3,26.7,29.53,SSE,151,1.0,0.0,90,0.00,,,0.00,32.00,VWS V14.01,2013-03-18 13:56:00,
2013-03-18 09:57:00,29.3,26.7,29.53,ESE,122,0.0,0.0,90,0.00,,,0.00,35.00,VWS V14.01,2013-03-18 13:57:00,
2013-03-18 09:58:00,29.3,26.7,29.53,ESE,121,5.0,0.0,90,0.00,,,0.00,32.00,VWS V14.01,2013-03-18 13:58:00,
2013-03-18 09:59:00,29.3,26.7,29.53,ESE,118,0.0,0.0,90,0.00,,,0.00,35.00,VWS V14.01,2013-03-18 13:59:00,
2013-03-18 10:00:00,29.3,26.7,29.53,ESE,104,1.0,0.0,90,0.00,,,0.00,39.00,VWS V14.01,2013-03-18 14:00:00,
2013-03-18 10:01:00,29.3,26.7,29.53,NNE,17,3.0,0.0,90,0.00,,,0.00,39.00,VWS V14.01,2013-03-18 14:01:00,
2013-03-18 10:02:00,29.3,26.7,29.53,ENE,69,0.0,0.0,90,0.00,,,0.00,37.00,VWS V14.01,2013-03-18 14:02:00,
2013-03-18 10:03:00,29.3,26.7,29.53,ESE,105,1.0,0.0,90,0.00,,,0.00,37.00,VWS V14.01,2013-03-18 14:03:00,
2013-03-18 10:04:00,29.4,26.8,29.53,ESE,123,0.0,0.0,90,0.00,,,0.00,35.00,VWS V14.01,2013-03-18 14:04:00,
2013-03-18 10:05:00,29.4,26.8,29.53,East,83,3.0,0.0,90,0.00,,,0.00,44.00,VWS V14.01,2013-03-18 14:05:00,
2013-03-18 10:06:00,29.4,26.8,29.53,East,83,2.0,0.0,90,0.00,,,0.00,44.00,VWS V14.01,2013-03-18 14:06:00,
2013-03-18 10:07:00,29.4,26.8,29.53,ESE,111,1.0,0.0,90,0.00,,,0.00,44.00,VWS V14.01,2013-03-18 14:07:00,
2013-03-18 10:08:00,29.4,26.8,29.53,ESE,119,2.0,0.0,90,0.00,,,0.00,44.00,VWS V14.01,2013-03-18 14:08:00,
2013-03-18 10:09:00,29.4,26.8,29.53,ESE,106,0.0,0.0,90,0.00,,,0.00,40.00,VWS V14.01,2013-03-18 14:09:00,
2013-03-18 10:10:00,29.4,26.8,29.53,ESE,106,0.0,0.0,90,0.00,,,0.00,39.00,VWS V14.01,2013-03-18 14:10:00,
2013-03-18 10:11:00,29.4,26.8,29.53,East,89,0.0,0.0,90,0.00,,,0.00,40.00,VWS V14.01,2013-03-18 14:11:00,
2013-03-18 10:12:00,29.4,26.8,29.53,East,89,0.0,0.0,90,0.00,,,0.00,40.00,VWS V14.01,2013-03-18 14:12:00,
2013-03-18 10:13:00,29.4,26.8,29.53,SE,143,1.0,0.0,90,0.00,,,0.00,39.00,VWS V14.01,2013-03-18 14:13:00,
2013-03-18 10:14:00,29.4,26.8,29.52,ESE,111,1.0,0.0,90,0.00,,,0.00,40.00,VWS V14.01,2013-03-18 14:14:00,
2013-03-18 10:15:00,29.4,26.8,29.52,ESE,113,2.0,0.0,90,0.00,,,0.00,42.00,VWS V14.01,2013-03-18 14:15:00,
2013-03-18 10:16:00,29.4,26.8,29.52,ESE,114,1.0,0.0,90,0.00,,,0.00,46.00,VWS V14.01,2013-03-18 14:16:00,
2013-03-18 10:17:00,29.5,26.9,29.52,ESE,114,0.0,0.0,90,0.00,,,0.00,49.00,VWS V14.01,2013-03-18 14:17:00,
2013-03-18 10:18:00,29.5,26.9,29.52,SSE,147,2.0,0.0,90,0.00,,,0.00,62.00,VWS V14.01,2013-03-18 14:18:00,
2013-03-18 10:19:00,29.5,26.9,29.52,SE,140,0.0,0.0,90,0.00,,,0.00,72.00,VWS V14.01,2013-03-18 14:19:00,
2013-03-18 10:20:00,29.5,26.9,29.52,ESE,113,3.0,0.0,90,0.00,,,0.00,62.00,VWS V14.01,2013-03-18 14:20:00,
2013-03-18 10:21:00,29.5,26.9,29.52,ESE,103,1.0,0.0,90,0.00,,,0.00,67.00,VWS V14.01,2013-03-18 14:21:00,
2013-03-18 10:22:00,29.5,27.2,29.52,ENE,76,0.0,0.0,91,0.00,,,0.00,70.00,VWS V14.01,2013-03-18 14:22:00,
2013-03-18 10:23:00,29.5,27.2,29.52,East,99,1.0,0.0,91,0.00,,,0.00,65.00,VWS V14.01,2013-03-18 14:23:00,
2013-03-18 10:24:00,29.5,27.2,29.52,East,98,0.0,0.0,91,0.00,,,0.00,76.00,VWS V14.01,2013-03-18 14:24:00,
2013-03-18 10:25:00,29.5,27.2,29.52,ESE,109,0.0,0.0,91,0.00,,,0.00,72.00,VWS V14.01,2013-03-18 14:25:00,
2013-03-18 10:26:00,29.5,27.2,29.52,SE,126,4.0,0.0,91,0.00,,,0.00,81.00,VWS V14.01,2013-03-18 14:26:00,
2013-03-18 10:27:00,29.5,27.2,29.52,SE,132,1.0,0.0,91,0.00,,,0.00,81.00,VWS V14.01,2013-03-18 14:27:00,
2013-03-18 10:28:00,29.5,27.2,29.52,SE,140,1.0,0.0,91,0.00,,,0.00,81.00,VWS V14.01,2013-03-18 14:28:00,
2013-03-18 10:29:00,29.5,27.2,29.50,SE,128,4.0,0.0,91,0.00,,,0.00,77.00,VWS V14.01,2013-03-18 14:29:00,
2013-03-18 10:30:00,29.7,27.4,29.50,ESE,113,0.0,0.0,91,0.00,,,0.00,72.00,VWS V14.01,2013-03-18 14:30:00,
2013-03-18 10:31:00,29.7,27.4,29.50,ESE,113,0.0,0.0,91,0.00,,,0.00,74.00,VWS V14.01,2013-03-18 14:31:00,
2013-03-18 10:32:00,29.7,27.4,29.50,ESE,113,0.0,0.0,91,0.00,,,0.00,72.00,VWS V14.01,2013-03-18 14:32:00,
2013-03-18 10:33:00,29.7,27.4,29.50,ESE,113,0.0,0.0,91,0.00,,,0.00,70.00,VWS V14.01,2013-03-18 14:33:00,
2013-03-18 10:34:00,29.7,27.4,29.50,ENE,69,1.0,0.0,91,0.00,,,0.00,70.00,VWS V14.01,2013-03-18 14:34:00,
2013-03-18 10:35:00,29.7,27.4,29.50,NNW,347,3.0,0.0,91,0.00,,,0.00,69.00,VWS V14.01,2013-03-18 14:35:00,
2013-03-18 10:36:00,29.7,27.4,29.50,ESE,119,0.0,0.0,91,0.00,,,0.00,65.00,VWS V14.01,2013-03-18 14:36:00,
2013-03-18 10:37:00,29.7,27.4,29.50,ESE,120,0.0,0.0,91,0.00,,,0.00,65.00,VWS V14.01,2013-03-18 14:37:00,
2013-03-18 10:38:00,29.7,27.4,29.50,ESE,123,0.0,0.0,91,0.00,,,0.00,63.00,VWS V14.01,2013-03-18 14:38:00,
2013-03-18 10:39:00,29.7,27.4,29.50,SE,130,1.0,0.0,91,0.00,,,0.00,54.00,VWS V14.01,2013-03-18 14:39:00,
2013-03-18 10:40:00,29.8,27.5,29.50,ESE,110,0.0,0.0,91,0.00,,,0.00,62.00,VWS V14.01,2013-03-18 14:40:00,
2013-03-18 10:41:00,29.8,27.5,29.50,ENE,71,0.0,0.0,91,0.00,,,0.00,51.00,VWS V14.01,2013-03-18 14:41:00,
2013-03-18 10:42:00,29.8,27.5,29.50,SSE,156,3.0,0.0,91,0.00,,,0.00,51.00,VWS V14.01,2013-03-18 14:42:00,
2013-03-18 10:43:00,29.8,27.5,29.50,SSE,160,2.0,0.0,91,0.00,,,0.00,53.00,VWS V14.01,2013-03-18 14:43:00,
2013-03-18 10:44:00,29.8,27.5,29.50,SE,136,5.0,0.0,91,0.00,,,0.00,46.00,VWS V14.01,2013-03-18 14:44:00,
2013-03-18 10:45:00,29.8,27.5,29.50,South,186,1.0,0.0,91,0.00,,,0.00,49.00,VWS V14.01,2013-03-18 14:45:00,
2013-03-18 10:46:00,29.8,27.5,29.50,ESE,104,0.0,0.0,91,0.00,,,0.00,51.00,VWS V14.01,2013-03-18 14:46:00,
2013-03-18 10:47:00,29.8,27.5,29.50,ESE,104,0.0,0.0,91,0.00,,,0.00,53.00,VWS V14.01,2013-03-18 14:47:00,
2013-03-18 10:48:00,29.8,27.5,29.50,ESE,105,2.0,0.0,91,0.00,,,0.00,58.00,VWS V14.01,2013-03-18 14:48:00,
2013-03-18 10:49:00,29.8,27.5,29.50,ESE,106,0.0,0.0,91,0.00,,,0.00,60.00,VWS V14.01,2013-03-18 14:49:00,
2013-03-18 10:50:00,29.8,27.5,29.50,SE,124,2.0,0.0,91,0.00,,,0.00,49.00,VWS V14.01,2013-03-18 14:50:00,
2013-03-18 10:51:00,29.8,27.5,29.50,ESE,122,4.0,0.0,91,0.00,,,0.00,51.00,VWS V14.01,2013-03-18 14:51:00,
2013-03-18 10:52:00,29.8,27.5,29.50,SE,143,4.0,0.0,91,0.00,,,0.00,47.00,VWS V14.01,2013-03-18 14:52:00,
2013-03-18 10:53:00,29.8,27.5,29.50,ESE,119,2.0,0.0,91,0.00,,,0.00,42.00,VWS V14.01,2013-03-18 14:53:00,
2013-03-18 10:54:00,29.8,27.5,29.50,SE,124,1.0,0.0,91,0.00,,,0.00,39.00,VWS V14.01,2013-03-18 14:54:00,
2013-03-18 10:55:00,29.8,27.5,29.50,SE,134,2.0,0.0,91,0.00,,,0.00,39.00,VWS V14.01,2013-03-18 14:55:00,
2013-03-18 10:56:00,29.8,27.5,29.50,SSE,147,1.0,0.0,91,0.00,,,0.00,39.00,VWS V14.01,2013-03-18 14:56:00,
2013-03-18 10:57:00,29.8,27.5,29.50,South,173,5.0,0.0,91,0.00,,,0.00,42.00,VWS V14.01,2013-03-18 14:57:00,
2013-03-18 10:58:00,29.8,27.5,29.50,ESE,106,2.0,0.0,91,0.00,,,0.00,42.00,VWS V14.01,2013-03-18 14:58:00,
2013-03-18 10:59:00,29.8,27.5,29.50,ESE,116,3.0,0.0,91,0.00,,,0.00,44.00,VWS V14.01,2013-03-18 14:59:00,
2013-03-18 11:00:00,29.8,27.5,29.50,ESE,117,1.0,0.0,91,0.00,,,0.00,42.00,VWS V14.01,2013-03-18 15:00:00,
2013-03-18 11:01:00,29.8,27.5,29.50,ESE,107,0.0,0.0,91,0.00,,,0.00,42.00,VWS V14.01,2013-03-18 15:01:00,
2013-03-18 11:02:00,29.8,27.5,29.50,SE,145,6.0,0.0,91,0.00,,,0.00,44.00,VWS V14.01,2013-03-18 15:02:00,
2013-03-18 11:03:00,29.8,27.5,29.50,SE,132,4.0,0.0,91,0.00,,,0.00,44.00,VWS V14.01,2013-03-18 15:03:00,
2013-03-18 11:04:00,29.8,27.8,29.50,ENE,60,0.0,0.0,92,0.00,,,0.00,44.00,VWS V14.01,2013-03-18 15:04:00,
2013-03-18 11:05:00,29.8,27.5,29.50,SE,125,0.0,0.0,91,0.00,,,0.00,46.00,VWS V14.01,2013-03-18 15:05:00,
2013-03-18 11:06:00,29.8,27.8,29.50,SE,126,0.0,0.0,92,0.00,,,0.00,47.00,VWS V14.01,2013-03-18 15:06:00,
2013-03-18 11:07:00,29.8,27.8,29.50,SE,128,0.0,0.0,92,0.00,,,0.00,51.00,VWS V14.01,2013-03-18 15:07:00,
2013-03-18 11:08:00,30.0,28.0,29.50,ESE,118,0.0,0.0,92,0.00,,,0.00,46.00,VWS V14.01,2013-03-18 15:08:00,
2013-03-18 11:09:00,30.0,28.0,29.50,SE,130,0.0,0.0,92,0.00,,,0.00,39.00,VWS V14.01,2013-03-18 15:09:00,
2013-03-18 11:10:00,30.0,28.0,29.50,SE,130,0.0,0.0,92,0.00,,,0.00,40.00,VWS V14.01,2013-03-18 15:10:00,
2013-03-18 11:11:00,30.0,28.0,29.50,ESE,116,3.0,0.0,92,0.00,,,0.00,37.00,VWS V14.01,2013-03-18 15:11:00,
2013-03-18 11:12:00,30.0,28.0,29.50,ESE,113,0.0,0.0,92,0.00,,,0.00,35.00,VWS V14.01,2013-03-18 15:12:00,
2013-03-18 11:13:00,30.0,28.0,29.50,East,89,1.0,0.0,92,0.00,,,0.00,35.00,VWS V14.01,2013-03-18 15:13:00,
2013-03-18 11:14:00,30.0,28.0,29.50,SE,124,3.0,0.0,92,0.00,,,0.00,33.00,VWS V14.01,2013-03-18 15:14:00,
2013-03-18 11:15:00,30.0,28.0,29.50,ESE,119,1.0,0.0,92,0.00,,,0.00,33.00,VWS V14.01,2013-03-18 15:15:00,
2013-03-18 11:16:00,30.0,28.0,29.50,ESE,121,0.0,0.0,92,0.00,,,0.00,33.00,VWS V14.01,2013-03-18 15:16:00,
2013-03-18 11:17:00,30.0,28.0,29.50,ESE,121,1.0,0.0,92,0.00,,,0.00,35.00,VWS V14.01,2013-03-18 15:17:00,
2013-03-18 11:18:00,30.0,28.0,29.50,ESE,119,4.0,0.0,92,0.00,,,0.00,35.00,VWS V14.01,2013-03-18 15:18:00,
2013-03-18 11:19:00,30.0,28.0,29.50,ESE,115,0.0,0.0,92,0.00,,,0.00,35.00,VWS V14.01,2013-03-18 15:19:00,
2013-03-18 11:20:00,30.0,28.0,29.50,ESE,115,1.0,0.0,92,0.00,,,0.00,35.00,VWS V14.01,2013-03-18 15:20:00,
2013-03-18 11:21:00,30.0,28.0,29.50,ESE,115,5.0,0.0,92,0.00,,,0.00,37.00,VWS V14.01,2013-03-18 15:21:00,
2013-03-18 11:22:00,30.0,28.0,29.50,ESE,115,5.0,0.0,92,0.00,,,0.00,37.00,VWS V14.01,2013-03-18 15:22:00,
2013-03-18 11:23:00,30.0,28.0,29.50,ESE,115,5.0,0.0,92,0.00,,,0.00,37.00,VWS V14.01,2013-03-18 15:23:00,
2013-03-18 11:24:00,30.1,28.1,29.50,SE,134,1.0,0.0,92,0.00,,,0.00,39.00,VWS V14.01,2013-03-18 15:24:00,
2013-03-18 11:25:00,30.1,28.1,29.50,ESE,121,0.0,0.0,92,0.00,,,0.00,33.00,VWS V14.01,2013-03-18 15:25:00,
2013-03-18 11:26:00,30.1,28.1,29.50,SE,128,2.0,0.0,92,0.00,,,0.00,32.00,VWS V14.01,2013-03-18 15:26:00,
2013-03-18 11:27:00,30.1,28.1,29.50,ESE,118,2.0,0.0,92,0.00,,,0.00,30.00,VWS V14.01,2013-03-18 15:27:00,
2013-03-18 11:28:00,30.1,28.1,29.50,ESE,114,1.0,0.0,92,0.00,,,0.00,33.00,VWS V14.01,2013-03-18 15:28:00,
2013-03-18 11:29:00,30.1,28.1,29.50,ESE,114,0.0,0.0,92,0.00,,,0.00,37.00,VWS V14.01,2013-03-18 15:29:00,
2013-03-18 11:30:00,30.1,28.1,29.49,ESE,114,0.0,0.0,92,0.00,,,0.00,39.00,VWS V14.01,2013-03-18 15:30:00,
2013-03-18 11:31:00,30.1,28.1,29.49,ESE,103,0.0,0.0,92,0.00,,,0.00,40.00,VWS V14.01,2013-03-18 15:31:00,
2013-03-18 11:32:00,30.1,28.1,29.49,ESE,105,0.0,0.0,92,0.00,,,0.00,47.00,VWS V14.01,2013-03-18 15:32:00,
2013-03-18 11:33:00,30.1,28.1,29.49,SE,124,3.0,0.0,92,0.00,,,0.00,54.00,VWS V14.01,2013-03-18 15:33:00,
2013-03-18 11:34:00,30.1,28.1,29.49,ESE,115,0.0,0.0,92,0.00,,,0.00,56.00,VWS V14.01,2013-03-18 15:34:00,
2013-03-18 11:35:00,30.1,28.1,29.49,ESE,115,0.0,0.0,92,0.00,,,0.00,63.00,VWS V14.01,2013-03-18 15:35:00,
2013-03-18 11:36:00,30.3,28.3,29.49,ESE,114,3.0,0.0,92,0.00,,,0.00,62.00,VWS V14.01,2013-03-18 15:36:00,
2013-03-18 11:37:00,30.3,28.3,29.49,ESE,114,0.0,0.0,92,0.00,,,0.00,65.00,VWS V14.01,2013-03-18 15:37:00,
2013-03-18 11:38:00,30.3,28.3,29.49,ESE,114,0.0,0.0,92,0.00,,,0.00,69.00,VWS V14.01,2013-03-18 15:38:00,
2013-03-18 11:39:00,30.3,28.3,29.49,ESE,114,0.0,0.0,92,0.00,,,0.00,70.00,VWS V14.01,2013-03-18 15:39:00,
2013-03-18 11:40:00,30.3,28.3,29.49,SE,137,2.0,0.0,92,0.00,,,0.00,67.00,VWS V14.01,2013-03-18 15:40:00,
2013-03-18 11:41:00,30.3,28.3,29.49,SE,126,0.0,0.0,92,0.00,,,0.00,69.00,VWS V14.01,2013-03-18 15:41:00,
2013-03-18 11:42:00,30.3,28.3,29.49,SE,126,0.0,0.0,92,0.00,,,0.00,67.00,VWS V14.01,2013-03-18 15:42:00,
2013-03-18 11:43:00,30.3,28.3,29.49,ESE,114,0.0,0.0,92,0.00,,,0.00,65.00,VWS V14.01,2013-03-18 15:43:00,
2013-03-18 11:44:00,30.4,28.4,29.49,ESE,119,0.0,0.0,92,0.00,,,0.00,60.00,VWS V14.01,2013-03-18 15:44:00,
2013-03-18 11:45:00,30.4,28.4,29.48,ESE,119,0.0,0.0,92,0.00,,,0.00,60.00,VWS V14.01,2013-03-18 15:45:00,
2013-03-18 11:46:00,30.4,28.4,29.48,ESE,119,0.0,0.0,92,0.00,,,0.00,54.00,VWS V14.01,2013-03-18 15:46:00,
2013-03-18 11:47:00,30.4,28.4,29.48,ESE,122,1.0,0.0,92,0.00,,,0.00,53.00,VWS V14.01,2013-03-18 15:47:00,
2013-03-18 11:48:00,30.4,28.4,29.48,ESE,122,1.0,0.0,92,0.00,,,0.00,51.00,VWS V14.01,2013-03-18 15:48:00,
2013-03-18 11:49:00,30.4,28.4,29.48,ESE,122,0.0,0.0,92,0.00,,,0.00,47.00,VWS V14.01,2013-03-18 15:49:00,
2013-03-18 11:50:00,30.4,28.4,29.48,ESE,122,0.0,0.0,92,0.00,,,0.00,44.00,VWS V14.01,2013-03-18 15:50:00,
2013-03-18 11:51:00,30.6,28.6,29.48,ESE,122,0.0,0.0,92,0.00,,,0.00,46.00,VWS V14.01,2013-03-18 15:51:00,
2013-03-18 11:52:00,30.6,28.6,29.48,SE,139,0.0,0.0,92,0.00,,,0.00,46.00,VWS V14.01,2013-03-18 15:52:00,
2013-03-18 11:53:00,30.6,28.6,29.48,East,90,0.0,0.0,92,0.00,,,0.00,44.00,VWS V14.01,2013-03-18 15:53:00,
2013-03-18 11:54:00,30.6,28.6,29.48,ESE,123,2.0,0.0,92,0.00,,,0.00,44.00,VWS V14.01,2013-03-18 15:54:00,
2013-03-18 11:55:00,30.6,28.6,29.48,SE,126,2.0,0.0,92,0.00,,,0.00,46.00,VWS V14.01,2013-03-18 15:55:00,
2013-03-18 11:56:00,30.6,28.6,29.48,SE,125,0.0,0.0,92,0.00,,,0.00,46.00,VWS V14.01,2013-03-18 15:56:00,
2013-03-18 11:57:00,30.6,28.6,29.48,ENE,64,0.0,0.0,92,0.00,,,0.00,49.00,VWS V14.01,2013-03-18 15:57:00,
2013-03-18 11:58:00,30.6,28.6,29.48,ENE,76,0.0,0.0,92,0.00,,,0.00,47.00,VWS V14.01,2013-03-18 15:58:00,
2013-03-18 11:59:00,30.6,28.6,29.48,ESE,118,3.0,0.0,92,0.00,,,0.00,53.00,VWS V14.01,2013-03-18 15:59:00,
2013-03-18 12:00:00,30.6,28.6,29.48,SE,136,2.0,0.0,92,0.00,,,0.00,53.00,VWS V14.01,2013-03-18 16:00:00,
2013-03-18 12:01:00,30.7,28.7,29.48,SE,137,0.0,0.0,92,0.00,,,0.00,58.00,VWS V14.01,2013-03-18 16:01:00,
2013-03-18 12:02:00,30.7,28.9,29.48,SE,125,0.0,0.0,93,0.00,,,0.00,54.00,VWS V14.01,2013-03-18 16:02:00,
2013-03-18 12:03:00,30.7,28.9,29.48,SE,125,0.0,0.0,93,0.00,,,0.00,54.00,VWS V14.01,2013-03-18 16:03:00,
2013-03-18 12:04:00,30.7,28.9,29.48,SE,125,0.0,0.0,93,0.00,,,0.00,53.00,VWS V14.01,2013-03-18 16:04:00,
2013-03-18 12:05:00,30.7,28.9,29.48,SE,125,0.0,0.0,93,0.00,,,0.00,54.00,VWS V14.01,2013-03-18 16:05:00,
2013-03-18 12:06:00,30.7,28.9,29.48,SE,125,0.0,0.0,93,0.00,,,0.00,49.00,VWS V14.01,2013-03-18 16:06:00,
2013-03-18 12:07:00,30.9,29.1,29.48,SE,125,0.0,0.0,93,0.00,,,0.00,49.00,VWS V14.01,2013-03-18 16:07:00,
2013-03-18 12:08:00,30.9,29.1,29.48,SE,125,0.0,0.0,93,0.00,,,0.00,46.00,VWS V14.01,2013-03-18 16:08:00,
2013-03-18 12:09:00,30.9,29.1,29.48,SE,125,0.0,0.0,93,0.00,,,0.00,46.00,VWS V14.01,2013-03-18 16:09:00,
2013-03-18 12:10:00,30.9,29.1,29.48,SSE,157,3.0,0.0,93,0.00,,,0.00,46.00,VWS V14.01,2013-03-18 16:10:00,
2013-03-18 12:11:00,30.9,29.1,29.48,ESE,122,0.0,0.0,93,0.00,,,0.00,49.00,VWS V14.01,2013-03-18 16:11:00,
2013-03-18 12:12:00,30.9,29.1,29.48,ESE,122,0.0,0.0,93,0.00,,,0.00,49.00,VWS V14.01,2013-03-18 16:12:00,
2013-03-18 12:13:00,30.9,29.1,29.48,ESE,123,1.0,0.0,93,0.00,,,0.00,49.00,VWS V14.01,2013-03-18 16:13:00,
2013-03-18 12:14:00,30.9,29.1,29.48,SE,126,2.0,0.0,93,0.00,,,0.00,47.00,VWS V14.01,2013-03-18 16:14:00,
2013-03-18 12:15:00,30.9,29.1,29.47,SE,126,2.0,0.0,93,0.00,,,0.00,44.00,VWS V14.01,2013-03-18 16:15:00,
2013-03-18 12:16:00,31.0,29.2,29.47,SE,126,2.0,0.0,93,0.00,,,0.00,51.00,VWS V14.01,2013-03-18 16:16:00,
2013-03-18 12:17:00,31.0,29.2,29.47,SE,126,0.0,0.0,93,0.00,,,0.00,47.00,VWS V14.01,2013-03-18 16:17:00,
2013-03-18 12:18:00,31.0,29.2,29.47,SE,126,0.0,0.0,93,0.00,,,0.00,49.00,VWS V14.01,2013-03-18 16:18:00,
2013-03-18 12:19:00,31.0,29.2,29.47,SE,126,3.0,0.0,93,0.00,,,0.00,56.00,VWS V14.01,2013-03-18 16:19:00,
2013-03-18 12:20:00,31.0,29.2,29.47,SE,138,3.0,0.0,93,0.00,,,0.00,62.00,VWS V14.01,2013-03-18 16:20:00,
2013-03-18 12:21:00,31.0,29.2,29.47,SE,125,0.0,0.0,93,0.00,,,0.00,67.00,VWS V14.01,2013-03-18 16:21:00,
2013-03-18 12:22:00,31.0,29.2,29.47,SE,126,0.0,0.0,93,0.00,,,0.00,62.00,VWS V14.01,2013-03-18 16:22:00,
2013-03-18 12:23:00,31.0,29.2,29.47,ENE,71,0.0,0.0,93,0.00,,,0.00,63.00,VWS V14.01,2013-03-18 16:23:00,
2013-03-18 12:24:00,31.0,29.2,29.47,ESE,119,1.0,0.0,93,0.00,,,0.00,60.00,VWS V14.01,2013-03-18 16:24:00,
2013-03-18 12:25:00,31.2,29.4,29.47,ESE,119,1.0,0.0,93,0.00,,,0.00,62.00,VWS V14.01,2013-03-18 16:25:00,
2013-03-18 12:26:00,31.2,29.4,29.47,ESE,119,0.0,0.0,93,0.00,,,0.00,56.00,VWS V14.01,2013-03-18 16:26:00,
2013-03-18 12:27:00,31.2,29.4,29.47,ESE,119,0.0,0.0,93,0.00,,,0.00,56.00,VWS V14.01,2013-03-18 16:27:00,
2013-03-18 12:28:00,31.2,29.4,29.47,ESE,119,0.0,0.0,93,0.00,,,0.00,54.00,VWS V14.01,2013-03-18 16:28:00,
2013-03-18 12:29:00,31.2,29.4,29.46,ESE,119,2.0,0.0,93,0.00,,,0.00,56.00,VWS V14.01,2013-03-18 16:29:00,
2013-03-18 12:30:00,31.2,29.4,29.46,SSE,157,3.0,0.0,93,0.00,,,0.00,58.00,VWS V14.01,2013-03-18 16:30:00,
2013-03-18 12:31:00,31.2,29.4,29.46,SE,139,0.0,0.0,93,0.00,,,0.00,63.00,VWS V14.01,2013-03-18 16:31:00,
2013-03-18 12:32:00,31.2,29.4,29.46,SE,138,0.0,0.0,93,0.00,,,0.00,53.00,VWS V14.01,2013-03-18 16:32:00,
2013-03-18 12:33:00,31.2,29.4,29.46,SE,138,1.0,0.0,93,0.00,,,0.00,53.00,VWS V14.01,2013-03-18 16:33:00,
2013-03-18 12:34:00,31.3,29.5,29.46,SE,138,0.0,0.0,93,0.01,,,0.01,56.00,VWS V14.01,2013-03-18 16:34:00,
2013-03-18 12:35:00,31.3,29.5,29.46,SE,131,1.0,0.0,93,0.01,,,0.01,58.00,VWS V14.01,2013-03-18 16:35:00,
2013-03-18 12:36:00,31.3,29.5,29.46,SE,131,1.0,0.0,93,0.01,,,0.01,60.00,VWS V14.01,2013-03-18 16:36:00,
2013-03-18 12:37:00,31.3,29.5,29.46,ESE,111,0.0,0.0,93,0.01,,,0.01,60.00,VWS V14.01,2013-03-18 16:37:00,
2013-03-18 12:38:00,31.3,29.5,29.46,ESE,119,1.0,0.0,93,0.01,,,0.01,58.00,VWS V14.01,2013-03-18 16:38:00,
2013-03-18 12:39:00,31.3,29.5,29.46,SE,125,0.0,0.0,93,0.01,,,0.01,56.00,VWS V14.01,2013-03-18 16:39:00,
2013-03-18 12:40:00,31.3,29.5,29.46,ESE,123,0.0,0.0,93,0.01,,,0.01,62.00,VWS V14.01,2013-03-18 16:40:00,
2013-03-18 12:41:00,31.3,29.5,29.46,SE,128,2.0,0.0,93,0.01,,,0.01,63.00,VWS V14.01,2013-03-18 16:41:00,
2013-03-18 12:42:00,31.5,29.7,29.46,SE,144,2.0,0.0,93,0.01,,,0.01,63.00,VWS V14.01,2013-03-18 16:42:00,
2013-03-18 12:43:00,31.5,29.7,29.46,ESE,123,0.0,0.0,93,0.01,,,0.01,65.00,VWS V14.01,2013-03-18 16:43:00,
2013-03-18 12:44:00,31.5,29.7,29.45,SE,125,2.0,0.0,93,0.01,,,0.01,62.00,VWS V14.01,2013-03-18 16:44:00,
2013-03-18 12:45:00,31.5,29.7,29.45,SE,141,5.0,0.0,93,0.01,,,0.01,63.00,VWS V14.01,2013-03-18 16:45:00,
2013-03-18 12:46:00,31.5,29.7,29.45,SE,136,1.0,0.0,93,0.01,,,0.01,63.00,VWS V14.01,2013-03-18 16:46:00,
2013-03-18 12:47:00,31.5,29.7,29.45,SE,136,1.0,0.0,93,0.01,,,0.01,72.00,VWS V14.01,2013-03-18 16:47:00,
2013-03-18 12:48:00,31.5,29.7,29.45,ESE,116,1.0,0.0,93,0.01,,,0.01,69.00,VWS V14.01,2013-03-18 16:48:00,
2013-03-18 12:49:00,31.5,29.7,29.45,SE,130,2.0,0.0,93,0.01,,,0.01,63.00,VWS V14.01,2013-03-18 16:49:00,
2013-03-18 12:50:00,31.5,29.7,29.45,ESE,120,2.0,0.0,93,0.01,,,0.01,65.00,VWS V14.01,2013-03-18 16:50:00,
2013-03-18 12:51:00,31.5,29.7,29.45,SE,130,1.0,0.0,93,0.01,,,0.01,65.00,VWS V14.01,2013-03-18 16:51:00,
2013-03-18 12:52:00,31.5,29.7,29.45,SE,130,2.0,0.0,93,0.01,,,0.01,67.00,VWS V14.01,2013-03-18 16:52:00,
2013-03-18 12:53:00,31.5,29.7,29.45,SE,130,1.0,0.0,93,0.01,,,0.01,65.00,VWS V14.01,2013-03-18 16:53:00,
2013-03-18 12:54:00,31.5,29.7,29.45,SE,134,3.0,0.0,93,0.01,,,0.01,63.00,VWS V14.01,2013-03-18 16:54:00,
2013-03-18 12:55:00,31.6,29.8,29.45,SE,130,3.0,0.0,93,0.01,,,0.01,58.00,VWS V14.01,2013-03-18 16:55:00,
2013-03-18 12:56:00,31.6,29.8,29.45,SE,130,1.0,0.0,93,0.01,,,0.01,62.00,VWS V14.01,2013-03-18 16:56:00,
2013-03-18 12:57:00,31.6,29.8,29.45,SE,130,0.0,0.0,93,0.01,,,0.01,58.00,VWS V14.01,2013-03-18 16:57:00,
2013-03-18 12:58:00,31.6,29.8,29.45,SE,130,0.0,0.0,93,0.01,,,0.01,54.00,VWS V14.01,2013-03-18 16:58:00,
2013-03-18 12:59:00,31.6,29.8,29.45,SE,130,0.0,0.0,93,0.01,,,0.01,54.00,VWS V14.01,2013-03-18 16:59:00,
2013-03-18 13:00:00,31.6,29.8,29.45,SE,130,0.0,0.0,93,0.01,,,0.01,54.00,VWS V14.01,2013-03-18 17:00:00,
2013-03-18 13:01:00,31.6,29.8,29.45,SE,130,0.0,0.0,93,0.01,,,0.01,58.00,VWS V14.01,2013-03-18 17:01:00,
2013-03-18 13:02:00,31.6,29.8,29.45,NNE,32,1.0,0.0,93,0.01,,,0.01,58.00,VWS V14.01,2013-03-18 17:02:00,
2013-03-18 13:03:00,31.6,29.8,29.45,SE,130,0.0,0.0,93,0.01,,,0.01,58.00,VWS V14.01,2013-03-18 17:03:00,
2013-03-18 13:04:00,31.6,29.8,29.45,SE,130,1.0,0.0,93,0.01,,,0.01,62.00,VWS V14.01,2013-03-18 17:04:00,
2013-03-18 13:05:00,31.6,29.8,29.45,SE,130,0.0,0.0,93,0.01,,,0.01,69.00,VWS V14.01,2013-03-18 17:05:00,
2013-03-18 13:06:00,31.8,30.0,29.45,SE,144,3.0,0.0,93,0.01,,,0.01,67.00,VWS V14.01,2013-03-18 17:06:00,
2013-03-18 13:07:00,31.8,30.0,29.45,SE,136,0.0,0.0,93,0.01,,,0.01,72.00,VWS V14.01,2013-03-18 17:07:00,
2013-03-18 13:08:00,31.8,30.0,29.45,SE,128,3.0,0.0,93,0.01,,,0.01,74.00,VWS V14.01,2013-03-18 17:08:00,
2013-03-18 13:09:00,31.8,30.0,29.45,SE,128,0.0,0.0,93,0.01,,,0.01,74.00,VWS V14.01,2013-03-18 17:09:00,
2013-03-18 13:10:00,31.8,30.0,29.45,ESE,121,1.0,0.0,93,0.01,,,0.01,70.00,VWS V14.01,2013-03-18 17:10:00,
2013-03-18 13:11:00,31.8,30.0,29.45,ESE,118,0.0,0.0,93,0.01,,,0.01,74.00,VWS V14.01,2013-03-18 17:11:00,
2013-03-18 13:12:00,31.8,30.0,29.45,ESE,118,0.0,0.0,93,0.01,,,0.01,74.00,VWS V14.01,2013-03-18 17:12:00,
2013-03-18 13:13:00,31.8,30.0,29.45,ESE,119,0.0,0.0,93,0.01,,,0.01,76.00,VWS V14.01,2013-03-18 17:13:00,
2013-03-18 13:14:00,31.8,30.0,29.45,ESE,119,0.0,0.0,93,0.01,,,0.01,84.00,VWS V14.01,2013-03-18 17:14:00,
2013-03-18 13:15:00,31.8,30.0,29.43,ESE,119,1.0,0.0,93,0.01,,,0.01,84.00,VWS V14.01,2013-03-18 17:15:00,
2013-03-18 13:16:00,31.9,30.1,29.43,ESE,110,0.0,0.0,93,0.01,,,0.01,86.00,VWS V14.01,2013-03-18 17:16:00,
2013-03-18 13:17:00,31.9,30.1,29.43,ESE,123,2.0,0.0,93,0.01,,,0.01,107.00,VWS V14.01,2013-03-18 17:17:00,
2013-03-18 13:18:00,31.9,30.1,29.43,ESE,114,0.0,0.0,93,0.01,,,0.01,118.00,VWS V14.01,2013-03-18 17:18:00,
2013-03-18 13:19:00,31.9,30.4,29.43,ESE,121,0.0,0.0,94,0.01,,,0.01,109.00,VWS V14.01,2013-03-18 17:19:00,
2013-03-18 13:20:00,31.9,30.4,29.43,ESE,121,0.0,0.0,94,0.01,,,0.01,123.00,VWS V14.01,2013-03-18 17:20:00,
2013-03-18 13:21:00,31.9,30.4,29.43,ESE,121,1.0,0.0,94,0.01,,,0.01,128.00,VWS V14.01,2013-03-18 17:21:00,
2013-03-18 13:22:00,32.1,30.6,29.43,ESE,123,3.0,0.0,94,0.01,,,0.01,139.00,VWS V14.01,2013-03-18 17:22:00,
2013-03-18 13:23:00,32.1,30.6,29.43,SE,128,1.0,0.0,94,0.01,,,0.01,113.00,VWS V14.01,2013-03-18 17:23:00,
2013-03-18 13:24:00,32.1,30.6,29.43,SE,128,1.0,0.0,94,0.01,,,0.01,125.00,VWS V14.01,2013-03-18 17:24:00,
2013-03-18 13:25:00,32.1,30.6,29.43,SE,128,0.0,0.0,94,0.01,,,0.01,113.00,VWS V14.01,2013-03-18 17:25:00,
2013-03-18 13:26:00,32.1,30.6,29.43,SE,128,0.0,0.0,94,0.01,,,0.01,104.00,VWS V14.01,2013-03-18 17:26:00,
2013-03-18 13:27:00,32.1,30.6,29.43,SE,137,2.0,0.0,94,0.01,,,0.01,93.00,VWS V14.01,2013-03-18 17:27:00,
2013-03-18 13:28:00,32.1,30.6,29.43,SE,137,2.0,0.0,94,0.01,,,0.01,93.00,VWS V14.01,2013-03-18 17:28:00,
2013-03-18 13:29:00,32.1,30.6,29.43,SE,137,2.0,0.0,94,0.01,,,0.01,93.00,VWS V14.01,2013-03-18 17:29:00,
2013-03-18 13:30:00,32.2,30.7,29.42,ESE,114,1.0,0.0,94,0.01,,,0.01,79.00,VWS V14.01,2013-03-18 17:30:00,
2013-03-18 13:31:00,32.2,30.7,29.42,ESE,114,0.0,0.0,94,0.01,,,0.01,90.00,VWS V14.01,2013-03-18 17:31:00,
2013-03-18 13:32:00,32.2,30.7,29.42,ESE,122,2.0,0.0,94,0.01,,,0.01,95.00,VWS V14.01,2013-03-18 17:32:00,
2013-03-18 13:33:00,32.2,30.7,29.42,SE,140,1.0,0.0,94,0.01,,,0.01,86.00,VWS V14.01,2013-03-18 17:33:00,
2013-03-18 13:34:00,32.2,30.7,29.42,ESE,116,1.0,0.0,94,0.01,,,0.01,77.00,VWS V14.01,2013-03-18 17:34:00,
2013-03-18 13:35:00,32.2,30.7,29.42,ESE,116,0.0,0.0,94,0.01,,,0.01,72.00,VWS V14.01,2013-03-18 17:35:00,
2013-03-18 13:36:00,32.2,30.7,29.42,SE,144,0.0,0.0,94,0.01,,,0.01,56.00,VWS V14.01,2013-03-18 17:36:00,
2013-03-18 13:37:00,32.4,30.9,29.42,ESE,123,3.0,0.0,94,0.01,,,0.01,51.00,VWS V14.01,2013-03-18 17:37:00,
2013-03-18 13:38:00,32.4,30.9,29.42,ESE,123,0.0,0.0,94,0.01,,,0.01,49.00,VWS V14.01,2013-03-18 17:38:00,
2013-03-18 13:39:00,32.4,30.9,29.42,ESE,123,1.0,0.0,94,0.01,,,0.01,51.00,VWS V14.01,2013-03-18 17:39:00,
2013-03-18 13:40:00,32.4,30.9,29.42,ESE,123,1.0,0.0,94,0.01,,,0.01,46.00,VWS V14.01,2013-03-18 17:40:00,
2013-03-18 13:41:00,32.4,30.9,29.42,SSE,155,2.0,0.0,94,0.01,,,0.01,42.00,VWS V14.01,2013-03-18 17:41:00,
2013-03-18 13:42:00,32.4,30.9,29.42,SSE,155,0.0,0.0,94,0.01,,,0.01,44.00,VWS V14.01,2013-03-18 17:42:00,
2013-03-18 13:43:00,32.4,30.9,29.42,SSE,155,0.0,0.0,94,0.01,,,0.01,44.00,VWS V14.01,2013-03-18 17:43:00,
2013-03-18 13:44:00,32.4,30.9,29.44,SSE,155,0.0,0.0,94,0.01,,,0.01,44.00,VWS V14.01,2013-03-18 17:44:00,
2013-03-18 13:45:00,32.4,30.9,29.44,SSE,155,0.0,0.0,94,0.01,,,0.01,44.00,VWS V14.01,2013-03-18 17:45:00,
2013-03-18 13:46:00,32.4,30.9,29.44,SSE,155,0.0,0.0,94,0.01,,,0.01,44.00,VWS V14.01,2013-03-18 17:46:00,
2013-03-18 13:47:00,32.4,30.9,29.44,SSE,155,0.0,0.0,94,0.01,,,0.01,54.00,VWS V14.01,2013-03-18 17:47:00,
2013-03-18 13:48:00,32.4,30.9,29.44,SSE,155,0.0,0.0,94,0.01,,,0.01,54.00,VWS V14.01,2013-03-18 17:48:00,
2013-03-18 13:49:00,32.4,30.9,29.44,SE,142,2.0,0.0,94,0.01,,,0.01,54.00,VWS V14.01,2013-03-18 17:49:00,
2013-03-18 13:50:00,32.4,30.9,29.44,ESE,103,3.0,0.0,94,0.01,,,0.01,70.00,VWS V14.01,2013-03-18 17:50:00,
2013-03-18 13:51:00,32.4,30.9,29.44,ESE,121,1.0,0.0,94,0.01,,,0.01,62.00,VWS V14.01,2013-03-18 17:51:00,
2013-03-18 13:52:00,32.4,30.9,29.44,SE,144,2.0,0.0,94,0.01,,,0.01,67.00,VWS V14.01,2013-03-18 17:52:00,
2013-03-18 13:53:00,32.4,30.9,29.44,SSE,148,0.0,0.0,94,0.01,,,0.01,72.00,VWS V14.01,2013-03-18 17:53:00,
2013-03-18 13:54:00,32.4,30.9,29.44,SE,126,2.0,0.0,94,0.01,,-RA,0.01,81.00,VWS V14.01,2013-03-18 17:54:00,
2013-03-18 13:55:00,32.4,30.9,29.44,ESE,116,2.0,0.0,94,0.01,,-RA,0.01,81.00,VWS V14.01,2013-03-18 17:55:00,
2013-03-18 13:56:00,32.4,30.9,29.44,SE,125,2.0,0.0,94,0.01,,-RA,0.01,98.00,VWS V14.01,2013-03-18 17:56:00,
2013-03-18 13:57:00,32.4,30.9,29.44,South,176,2.0,0.0,94,0.01,,-RA,0.01,105.00,VWS V14.01,2013-03-18 17:57:00,
2013-03-18 13:58:00,32.4,30.9,29.44,SSE,154,0.0,0.0,94,0.01,,-RA,0.01,84.00,VWS V14.01,2013-03-18 17:58:00,
2013-03-18 13:59:00,32.4,30.9,29.44,ESE,123,1.0,0.0,94,0.01,,-RA,0.01,98.00,VWS V14.01,2013-03-18 17:59:00,
2013-03-18 14:00:00,32.4,30.9,29.41,SE,130,2.0,0.0,94,0.01,,-RA,0.01,88.00,VWS V14.01,2013-03-18 18:00:00,
2013-03-18 14:01:00,32.4,30.9,29.41,ESE,114,4.0,0.0,94,0.00,,-RA,0.01,91.00,VWS V14.01,2013-03-18 18:01:00,
2013-03-18 14:02:00,32.4,30.9,29.41,SE,142,1.0,0.0,94,0.00,,-RA,0.01,98.00,VWS V14.01,2013-03-18 18:02:00,
2013-03-18 14:03:00,32.4,30.9,29.41,ESE,118,0.0,0.0,94,0.00,,-RA,0.01,98.00,VWS V14.01,2013-03-18 18:03:00,
2013-03-18 14:04:00,32.5,31.0,29.41,SE,139,2.0,0.0,94,0.00,,-RA,0.01,97.00,VWS V14.01,2013-03-18 18:04:00,
2013-03-18 14:05:00,32.5,31.0,29.41,SSE,151,2.0,0.0,94,0.00,,-RA,0.01,84.00,VWS V14.01,2013-03-18 18:05:00,
2013-03-18 14:06:00,32.5,31.0,29.41,SSE,151,0.0,0.0,94,0.00,,-RA,0.01,86.00,VWS V14.01,2013-03-18 18:06:00,
2013-03-18 14:07:00,32.5,31.0,29.41,SSE,151,1.0,0.0,94,0.00,,-RA,0.01,77.00,VWS V14.01,2013-03-18 18:07:00,
2013-03-18 14:08:00,32.5,31.0,29.41,SSE,151,0.0,0.0,94,0.00,,-RA,0.01,81.00,VWS V14.01,2013-03-18 18:08:00,
2013-03-18 14:09:00,32.5,31.0,29.41,SSE,156,3.0,0.0,94,0.00,,-RA,0.01,70.00,VWS V14.01,2013-03-18 18:09:00,
2013-03-18 14:10:00,32.5,31.0,29.41,SE,136,0.0,0.0,94,0.00,,-RA,0.01,69.00,VWS V14.01,2013-03-18 18:10:00,
2013-03-18 14:11:00,32.5,31.0,29.41,SE,139,0.0,0.0,94,0.00,,-RA,0.01,69.00,VWS V14.01,2013-03-18 18:11:00,
2013-03-18 14:12:00,32.5,31.0,29.41,SE,139,0.0,0.0,94,0.00,,-RA,0.01,65.00,VWS V14.01,2013-03-18 18:12:00,
2013-03-18 14:13:00,32.5,31.0,29.41,SE,142,3.0,0.0,94,0.00,,-RA,0.01,69.00,VWS V14.01,2013-03-18 18:13:00,
2013-03-18 14:14:00,32.5,31.0,29.41,SSE,155,3.0,0.0,94,0.00,,-RA,0.01,65.00,VWS V14.01,2013-03-18 18:14:00,
2013-03-18 14:15:00,32.5,31.0,29.40,South,184,4.0,0.0,94,0.00,,-RA,0.01,58.00,VWS V14.01,2013-03-18 18:15:00,
2013-03-18 14:16:00,32.5,31.0,29.40,SE,146,0.0,0.0,94,0.00,,-RA,0.01,56.00,VWS V14.01,2013-03-18 18:16:00,
2013-03-18 14:17:00,32.7,31.2,29.40,SE,146,0.0,0.0,94,0.00,,-RA,0.01,69.00,VWS V14.01,2013-03-18 18:17:00,
2013-03-18 14:18:00,32.7,31.2,29.40,SE,146,0.0,0.0,94,0.00,,-RA,0.01,62.00,VWS V14.01,2013-03-18 18:18:00,
2013-03-18 14:19:00,32.7,31.2,29.40,SE,146,1.0,0.0,94,0.00,,-RA,0.01,65.00,VWS V14.01,2013-03-18 18:19:00,
2013-03-18 14:20:00,32.7,31.2,29.40,SE,146,1.0,0.0,94,0.00,,-RA,0.01,65.00,VWS V14.01,2013-03-18 18:20:00,
2013-03-18 14:21:00,32.7,31.2,29.40,SE,136,2.0,0.0,94,0.00,,-RA,0.01,69.00,VWS V14.01,2013-03-18 18:21:00,
2013-03-18 14:22:00,32.7,31.2,29.40,SE,146,2.0,0.0,94,0.00,,-RA,0.01,63.00,VWS V14.01,2013-03-18 18:22:00,
2013-03-18 14:23:00,32.7,31.2,29.40,SE,143,3.0,0.0,94,0.00,,-RA,0.01,69.00,VWS V14.01,2013-03-18 18:23:00,
2013-03-18 14:24:00,32.7,31.2,29.40,SE,143,0.0,0.0,94,0.00,,-RA,0.01,70.00,VWS V14.01,2013-03-18 18:24:00,
2013-03-18 14:25:00,32.7,31.2,29.40,SE,143,0.0,0.0,94,0.00,,-RA,0.01,69.00,VWS V14.01,2013-03-18 18:25:00,
2013-03-18 14:26:00,32.7,31.2,29.40,SE,143,0.0,0.0,94,0.00,,-RA,0.01,69.00,VWS V14.01,2013-03-18 18:26:00,
2013-03-18 14:27:00,32.7,31.2,29.40,SE,143,0.0,0.0,94,0.00,,-RA,0.01,69.00,VWS V14.01,2013-03-18 18:27:00,
2013-03-18 14:28:00,32.7,31.2,29.40,SE,133,0.0,0.0,94,0.00,,-RA,0.01,74.00,VWS V14.01,2013-03-18 18:28:00,
2013-03-18 14:29:00,32.7,31.2,29.40,SE,133,0.0,0.0,94,0.00,,-RA,0.01,63.00,VWS V14.01,2013-03-18 18:29:00,
2013-03-18 14:30:00,32.7,31.2,29.39,SSE,153,2.0,0.0,94,0.00,,-RA,0.01,58.00,VWS V14.01,2013-03-18 18:30:00,
2013-03-18 14:31:00,32.7,31.2,29.39,SSE,155,0.0,0.0,94,0.00,,-RA,0.01,65.00,VWS V14.01,2013-03-18 18:31:00,
2013-03-18 14:32:00,32.7,31.2,29.39,SSE,165,0.0,0.0,94,0.00,,-RA,0.01,63.00,VWS V14.01,2013-03-18 18:32:00,
2013-03-18 14:33:00,32.7,31.2,29.39,SSE,165,0.0,0.0,94,0.00,,-RA,0.01,56.00,VWS V14.01,2013-03-18 18:33:00,
2013-03-18 14:34:00,32.7,31.2,29.39,SSE,165,0.0,0.0,94,0.00,,-RA,0.01,56.00,VWS V14.01,2013-03-18 18:34:00,
2013-03-18 14:35:00,32.7,31.2,29.39,SSE,165,0.0,0.0,94,0.00,,-RA,0.01,44.00,VWS V14.01,2013-03-18 18:35:00,
2013-03-18 14:36:00,32.7,31.2,29.39,SSE,165,0.0,0.0,94,0.00,,-RA,0.01,42.00,VWS V14.01,2013-03-18 18:36:00,
2013-03-18 14:37:00,32.7,31.2,29.39,SSE,165,0.0,0.0,94,0.00,,-RA,0.01,42.00,VWS V14.01,2013-03-18 18:37:00,
2013-03-18 14:38:00,32.8,31.3,29.39,ESE,121,1.0,0.0,94,0.00,,-RA,0.01,39.00,VWS V14.01,2013-03-18 18:38:00,
2013-03-18 14:39:00,32.8,31.3,29.39,SE,132,1.0,0.0,94,0.00,,-RA,0.01,33.00,VWS V14.01,2013-03-18 18:39:00,
2013-03-18 14:40:00,32.8,31.3,29.39,SE,132,0.0,0.0,94,0.00,,-RA,0.01,39.00,VWS V14.01,2013-03-18 18:40:00,
2013-03-18 14:41:00,32.8,31.3,29.39,SE,132,0.0,0.0,94,0.00,,-RA,0.01,56.00,VWS V14.01,2013-03-18 18:41:00,
2013-03-18 14:42:00,32.8,31.3,29.39,SE,132,0.0,0.0,94,0.00,,-RA,0.01,63.00,VWS V14.01,2013-03-18 18:42:00,
2013-03-18 14:43:00,32.8,31.3,29.39,SE,132,0.0,0.0,94,0.00,,-RA,0.01,72.00,VWS V14.01,2013-03-18 18:43:00,
2013-03-18 14:44:00,32.8,31.3,29.39,SE,132,0.0,0.0,94,0.00,,-RA,0.01,79.00,VWS V14.01,2013-03-18 18:44:00,
2013-03-18 14:45:00,32.8,31.3,29.39,SE,132,1.0,0.0,94,0.00,,-RA,0.01,79.00,VWS V14.01,2013-03-18 18:45:00,
2013-03-18 14:46:00,32.8,31.3,29.39,SE,132,0.0,0.0,94,0.00,,-RA,0.01,79.00,VWS V14.01,2013-03-18 18:46:00,
2013-03-18 14:47:00,32.8,31.3,29.39,SE,132,0.0,0.0,94,0.00,,-RA,0.01,47.00,VWS V14.01,2013-03-18 18:47:00,
2013-03-18 14:48:00,32.8,31.3,29.39,SE,132,0.0,0.0,94,0.00,,-RA,0.01,47.00,VWS V14.01,2013-03-18 18:48:00,
2013-03-18 14:49:00,32.8,31.3,29.39,SE,132,0.0,0.0,94,0.00,,-RA,0.01,49.00,VWS V14.01,2013-03-18 18:49:00,
2013-03-18 14:50:00,32.8,31.3,29.39,SE,133,0.0,0.0,94,0.00,,-RA,0.01,46.00,VWS V14.01,2013-03-18 18:50:00,
2013-03-18 14:51:00,32.8,31.3,29.39,SE,132,0.0,0.0,94,0.00,,-RA,0.01,42.00,VWS V14.01,2013-03-18 18:51:00,
2013-03-18 14:52:00,32.8,31.3,29.39,SE,132,0.0,0.0,94,0.00,,-RA,0.01,39.00,VWS V14.01,2013-03-18 18:52:00,
2013-03-18 14:53:00,32.8,31.3,29.39,SE,132,0.0,0.0,94,0.00,,-RA,0.01,37.00,VWS V14.01,2013-03-18 18:53:00,
2013-03-18 14:54:00,32.8,31.3,29.39,SE,132,0.0,0.0,94,0.00,,-RA,0.01,40.00,VWS V14.01,2013-03-18 18:54:00,
2013-03-18 14:55:00,32.8,31.3,29.39,SE,132,0.0,0.0,94,0.00,,-RA,0.01,46.00,VWS V14.01,2013-03-18 18:55:00,
2013-03-18 14:56:00,32.8,31.3,29.39,SE,132,1.0,0.0,94,0.00,,-RA,0.01,46.00,VWS V14.01,2013-03-18 18:56:00,
2013-03-18 14:57:00,32.8,31.3,29.39,SE,132,0.0,0.0,94,0.00,,-RA,0.01,42.00,VWS V14.01,2013-03-18 18:57:00,
2013-03-18 14:58:00,32.9,31.4,29.39,SE,132,0.0,0.0,94,0.00,,-RA,0.01,32.00,VWS V14.01,2013-03-18 18:58:00,
2013-03-18 14:59:00,32.9,31.4,29.39,SE,132,0.0,0.0,94,0.00,,-RA,0.01,32.00,VWS V14.01,2013-03-18 18:59:00,
2013-03-18 15:00:00,32.9,31.4,29.41,SE,132,0.0,0.0,94,0.00,,-RA,0.01,39.00,VWS V14.01,2013-03-18 19:00:00,
2013-03-18 15:01:00,32.9,31.4,29.41,SE,132,0.0,0.0,94,0.00,,-RA,0.01,46.00,VWS V14.01,2013-03-18 19:01:00,
2013-03-18 15:02:00,32.9,31.4,29.41,SE,132,0.0,0.0,94,0.00,,-RA,0.01,42.00,VWS V14.01,2013-03-18 19:02:00,
2013-03-18 15:03:00,32.9,31.4,29.41,SE,132,2.0,0.0,94,0.00,,-RA,0.01,42.00,VWS V14.01,2013-03-18 19:03:00,
2013-03-18 15:04:00,32.9,31.4,29.41,SE,132,2.0,0.0,94,0.00,,-RA,0.01,42.00,VWS V14.01,2013-03-18 19:04:00,
2013-03-18 15:05:00,32.9,31.4,29.41,SE,132,0.0,0.0,94,0.00,,-RA,0.01,40.00,VWS V14.01,2013-03-18 19:05:00,
2013-03-18 15:06:00,32.9,31.4,29.41,SE,132,1.0,0.0,94,0.01,,-RA,0.02,35.00,VWS V14.01,2013-03-18 19:06:00,
2013-03-18 15:07:00,32.9,31.4,29.41,SE,132,0.0,0.0,94,0.01,,-RA,0.02,33.00,VWS V14.01,2013-03-18 19:07:00,
2013-03-18 15:08:00,32.9,31.4,29.41,SE,132,0.0,0.0,94,0.01,,-RA,0.02,37.00,VWS V14.01,2013-03-18 19:08:00,
2013-03-18 15:09:00,32.9,31.4,29.41,SE,132,1.0,0.0,94,0.01,,-RA,0.02,33.00,VWS V14.01,2013-03-18 19:09:00,
2013-03-18 15:10:00,32.9,31.4,29.41,SE,132,1.0,0.0,94,0.01,,-RA,0.02,37.00,VWS V14.01,2013-03-18 19:10:00,
2013-03-18 15:11:00,32.9,31.4,29.41,SE,132,0.0,0.0,94,0.01,,-RA,0.02,37.00,VWS V14.01,2013-03-18 19:11:00,
2013-03-18 15:12:00,32.9,31.6,29.41,SE,132,1.0,0.0,95,0.01,,-RA,0.02,33.00,VWS V14.01,2013-03-18 19:12:00,
2013-03-18 15:13:00,32.9,31.6,29.41,SE,132,0.0,0.0,95,0.01,,-RA,0.02,33.00,VWS V14.01,2013-03-18 19:13:00,
2013-03-18 15:14:00,32.9,31.6,29.41,SE,132,1.0,0.0,95,0.01,,-RA,0.02,33.00,VWS V14.01,2013-03-18 19:14:00,
2013-03-18 15:15:00,32.9,31.6,29.40,SE,132,0.0,0.0,95,0.01,,-RA,0.02,35.00,VWS V14.01,2013-03-18 19:15:00,
2013-03-18 15:16:00,32.9,31.6,29.40,SE,132,0.0,0.0,95,0.01,,-RA,0.02,39.00,VWS V14.01,2013-03-18 19:16:00,
2013-03-18 15:17:00,32.9,31.6,29.40,SE,132,0.0,0.0,95,0.01,,-RA,0.02,44.00,VWS V14.01,2013-03-18 19:17:00,
2013-03-18 15:18:00,32.9,31.6,29.40,SE,132,0.0,0.0,95,0.01,,-RA,0.02,51.00,VWS V14.01,2013-03-18 19:18:00,
2013-03-18 15:19:00,32.9,31.6,29.40,SE,132,0.0,0.0,95,0.01,,-RA,0.02,47.00,VWS V14.01,2013-03-18 19:19:00,
2013-03-18 15:20:00,32.9,31.6,29.40,SE,132,0.0,0.0,95,0.01,,-RA,0.02,46.00,VWS V14.01,2013-03-18 19:20:00,
2013-03-18 15:21:00,32.9,31.6,29.40,SE,132,0.0,0.0,95,0.01,,-RA,0.02,39.00,VWS V14.01,2013-03-18 19:21:00,
2013-03-18 15:22:00,32.9,31.6,29.40,SE,132,0.0,0.0,95,0.01,,-RA,0.02,44.00,VWS V14.01,2013-03-18 19:22:00,
2013-03-18 15:23:00,33.1,31.8,29.40,SE,132,2.0,0.0,95,0.01,,-RA,0.02,40.00,VWS V14.01,2013-03-18 19:23:00,
2013-03-18 15:24:00,33.1,31.8,29.40,SE,132,0.0,0.0,95,0.01,,,0.02,40.00,VWS V14.01,2013-03-18 19:24:00,
2013-03-18 15:25:00,33.1,31.8,29.40,SE,132,0.0,0.0,95,0.01,,,0.02,37.00,VWS V14.01,2013-03-18 19:25:00,
2013-03-18 15:26:00,33.1,31.8,29.40,SE,132,0.0,0.0,95,0.01,,,0.02,35.00,VWS V14.01,2013-03-18 19:26:00,
2013-03-18 15:27:00,33.1,31.8,29.40,SE,132,0.0,0.0,95,0.01,,,0.02,35.00,VWS V14.01,2013-03-18 19:27:00,
2013-03-18 15:28:00,33.1,31.8,29.40,SE,132,0.0,0.0,95,0.01,,,0.02,39.00,VWS V14.01,2013-03-18 19:28:00,
2013-03-18 15:29:00,33.1,31.8,29.40,SE,132,0.0,0.0,95,0.01,,,0.02,47.00,VWS V14.01,2013-03-18 19:29:00,
2013-03-18 15:30:00,33.1,31.8,29.41,SE,132,1.0,0.0,95,0.01,,,0.02,49.00,VWS V14.01,2013-03-18 19:30:00,
2013-03-18 15:31:00,33.1,31.8,29.41,SE,132,0.0,0.0,95,0.01,,,0.02,47.00,VWS V14.01,2013-03-18 19:31:00,
2013-03-18 15:32:00,33.1,31.8,29.41,SE,132,1.0,0.0,95,0.01,,,0.02,46.00,VWS V14.01,2013-03-18 19:32:00,
2013-03-18 15:33:00,33.1,31.8,29.41,SE,132,1.0,0.0,95,0.01,,,0.02,42.00,VWS V14.01,2013-03-18 19:33:00,
2013-03-18 15:34:00,33.1,31.8,29.41,SE,132,0.0,0.0,95,0.01,,,0.02,40.00,VWS V14.01,2013-03-18 19:34:00,
2013-03-18 15:35:00,33.1,31.8,29.41,SE,132,0.0,0.0,95,0.01,,,0.02,39.00,VWS V14.01,2013-03-18 19:35:00,
2013-03-18 15:36:00,33.1,31.8,29.41,SE,132,0.0,0.0,95,0.01,,,0.02,35.00,VWS V14.01,2013-03-18 19:36:00,
2013-03-18 15:37:00,33.1,31.8,29.41,SE,132,0.0,0.0,95,0.01,,,0.02,37.00,VWS V14.01,2013-03-18 19:37:00,
2013-03-18 15:38:00,33.1,31.8,29.41,SE,132,0.0,0.0,95,0.01,,,0.02,37.00,VWS V14.01,2013-03-18 19:38:00,
2013-03-18 15:39:00,33.1,31.8,29.41,SE,132,0.0,0.0,95,0.01,,,0.02,47.00,VWS V14.01,2013-03-18 19:39:00,
2013-03-18 15:40:00,33.1,31.8,29.41,SE,132,0.0,0.0,95,0.01,,,0.02,51.00,VWS V14.01,2013-03-18 19:40:00,
2013-03-18 15:41:00,33.1,31.8,29.41,SE,132,0.0,0.0,95,0.01,,,0.02,53.00,VWS V14.01,2013-03-18 19:41:00,
2013-03-18 15:42:00,33.1,31.8,29.41,SE,132,0.0,0.0,95,0.02,,,0.03,54.00,VWS V14.01,2013-03-18 19:42:00,
2013-03-18 15:43:00,33.1,31.8,29.41,SE,132,0.0,0.0,95,0.02,,,0.03,56.00,VWS V14.01,2013-03-18 19:43:00,
2013-03-18 15:44:00,33.1,31.8,29.41,SE,132,2.0,0.0,95,0.02,,,0.03,56.00,VWS V14.01,2013-03-18 19:44:00,
2013-03-18 15:45:00,33.1,31.8,29.40,SE,132,0.0,0.0,95,0.02,,,0.03,76.00,VWS V14.01,2013-03-18 19:45:00,
2013-03-18 15:46:00,33.2,31.9,29.40,SE,132,0.0,0.0,95,0.02,,,0.03,79.00,VWS V14.01,2013-03-18 19:46:00,
2013-03-18 15:47:00,33.2,31.9,29.40,SE,132,0.0,0.0,95,0.02,,,0.03,76.00,VWS V14.01,2013-03-18 19:47:00,
2013-03-18 15:48:00,33.2,31.9,29.40,SE,132,0.0,0.0,95,0.02,,,0.03,79.00,VWS V14.01,2013-03-18 19:48:00,
2013-03-18 15:49:00,33.2,31.9,29.40,SE,132,0.0,0.0,95,0.02,,,0.03,83.00,VWS V14.01,2013-03-18 19:49:00,
2013-03-18 15:50:00,33.2,31.9,29.40,SE,132,0.0,0.0,95,0.02,,,0.03,76.00,VWS V14.01,2013-03-18 19:50:00,
2013-03-18 15:51:00,33.2,31.9,29.40,SE,132,0.0,0.0,95,0.02,,,0.03,69.00,VWS V14.01,2013-03-18 19:51:00,
2013-03-18 15:52:00,33.2,31.9,29.40,SE,132,0.0,0.0,95,0.02,,,0.03,65.00,VWS V14.01,2013-03-18 19:52:00,
2013-03-18 15:53:00,33.2,31.9,29.40,SE,132,0.0,0.0,95,0.02,,,0.03,58.00,VWS V14.01,2013-03-18 19:53:00,
2013-03-18 15:54:00,33.2,31.9,29.40,SE,132,0.0,0.0,95,0.02,,,0.03,56.00,VWS V14.01,2013-03-18 19:54:00,
2013-03-18 15:55:00,33.4,32.1,29.40,SE,132,0.0,0.0,95,0.02,,,0.03,53.00,VWS V14.01,2013-03-18 19:55:00,
2013-03-18 15:56:00,33.4,32.1,29.40,SE,132,1.0,0.0,95,0.02,,,0.03,40.00,VWS V14.01,2013-03-18 19:56:00,
2013-03-18 15:57:00,33.4,32.1,29.40,SE,132,0.0,0.0,95,0.02,,,0.03,39.00,VWS V14.01,2013-03-18 19:57:00,
2013-03-18 15:58:00,33.4,32.1,29.40,SE,132,0.0,0.0,95,0.02,,,0.03,39.00,VWS V14.01,2013-03-18 19:58:00,
2013-03-18 15:59:00,33.4,32.1,29.40,SE,132,0.0,0.0,95,0.02,,,0.03,37.00,VWS V14.01,2013-03-18 19:59:00,
2013-03-18 16:00:00,33.4,32.1,29.39,SE,132,0.0,0.0,95,0.02,,,0.03,35.00,VWS V14.01,2013-03-18 20:00:00,
2013-03-18 16:01:00,33.4,32.1,29.39,WSW,257,1.0,0.0,95,0.02,,,0.03,35.00,VWS V14.01,2013-03-18 20:01:00,
2013-03-18 16:02:00,33.4,32.1,29.39,WSW,257,0.0,0.0,95,0.02,,,0.03,44.00,VWS V14.01,2013-03-18 20:02:00,
2013-03-18 16:03:00,33.4,32.1,29.39,WSW,257,0.0,0.0,95,0.02,,,0.03,46.00,VWS V14.01,2013-03-18 20:03:00,
2013-03-18 16:04:00,33.4,32.1,29.39,WSW,257,0.0,0.0,95,0.02,,,0.03,49.00,VWS V14.01,2013-03-18 20:04:00,
2013-03-18 16:05:00,33.4,32.1,29.39,WSW,257,0.0,0.0,95,0.02,,,0.03,53.00,VWS V14.01,2013-03-18 20:05:00,
2013-03-18 16:06:00,33.4,32.1,29.39,WSW,257,1.0,0.0,95,0.02,,,0.03,53.00,VWS V14.01,2013-03-18 20:06:00,
2013-03-18 16:07:00,33.4,32.1,29.39,WSW,257,0.0,0.0,95,0.02,,,0.03,51.00,VWS V14.01,2013-03-18 20:07:00,
2013-03-18 16:08:00,33.4,32.1,29.39,WSW,257,0.0,0.0,95,0.02,,,0.03,51.00,VWS V14.01,2013-03-18 20:08:00,
2013-03-18 16:09:00,33.4,32.1,29.39,WSW,257,0.0,0.0,95,0.02,,,0.03,47.00,VWS V14.01,2013-03-18 20:09:00,
2013-03-18 16:10:00,33.4,32.1,29.39,WSW,257,0.0,0.0,95,0.02,,,0.03,44.00,VWS V14.01,2013-03-18 20:10:00,
2013-03-18 16:11:00,33.4,32.1,29.39,WSW,257,0.0,0.0,95,0.02,,,0.03,42.00,VWS V14.01,2013-03-18 20:11:00,
2013-03-18 16:12:00,33.4,32.1,29.39,WSW,257,0.0,0.0,95,0.02,,,0.03,44.00,VWS V14.01,2013-03-18 20:12:00,
2013-03-18 16:13:00,33.4,32.1,29.39,WSW,257,0.0,0.0,95,0.02,,,0.03,44.00,VWS V14.01,2013-03-18 20:13:00,
2013-03-18 16:14:00,33.4,32.1,29.39,WSW,257,0.0,0.0,95,0.02,,,0.03,46.00,VWS V14.01,2013-03-18 20:14:00,
2013-03-18 16:15:00,33.4,32.1,29.39,WSW,257,0.0,0.0,95,0.02,,,0.03,42.00,VWS V14.01,2013-03-18 20:15:00,
2013-03-18 16:16:00,33.4,32.1,29.39,WSW,257,0.0,0.0,95,0.02,,,0.03,42.00,VWS V14.01,2013-03-18 20:16:00,
2013-03-18 16:17:00,33.5,32.2,29.39,WSW,257,0.0,0.0,95,0.02,,,0.03,54.00,VWS V14.01,2013-03-18 20:17:00,
2013-03-18 16:18:00,33.5,32.2,29.39,WSW,257,0.0,0.0,95,0.02,,,0.03,70.00,VWS V14.01,2013-03-18 20:18:00,
2013-03-18 16:19:00,33.5,32.2,29.39,WSW,257,0.0,0.0,95,0.02,,,0.03,72.00,VWS V14.01,2013-03-18 20:19:00,
2013-03-18 16:20:00,33.5,32.2,29.39,WSW,257,0.0,0.0,95,0.02,,,0.03,72.00,VWS V14.01,2013-03-18 20:20:00,
2013-03-18 16:21:00,33.5,32.2,29.39,WSW,257,0.0,0.0,95,0.02,,,0.03,79.00,VWS V14.01,2013-03-18 20:21:00,
2013-03-18 16:22:00,33.5,32.2,29.39,WSW,257,0.0,0.0,95,0.02,,,0.03,65.00,VWS V14.01,2013-03-18 20:22:00,
2013-03-18 16:23:00,33.5,32.2,29.39,WSW,257,0.0,0.0,95,0.02,,,0.03,51.00,VWS V14.01,2013-03-18 20:23:00,
2013-03-18 16:24:00,33.5,32.2,29.39,WSW,257,0.0,0.0,95,0.02,,,0.03,44.00,VWS V14.01,2013-03-18 20:24:00,
2013-03-18 16:25:00,33.5,32.2,29.39,WSW,257,0.0,0.0,95,0.02,,,0.03,40.00,VWS V14.01,2013-03-18 20:25:00,
2013-03-18 16:26:00,33.5,32.2,29.39,WSW,257,0.0,0.0,95,0.02,,,0.03,40.00,VWS V14.01,2013-03-18 20:26:00,
2013-03-18 16:27:00,33.7,32.4,29.39,WSW,257,0.0,0.0,95,0.02,,,0.03,42.00,VWS V14.01,2013-03-18 20:27:00,
2013-03-18 16:28:00,33.7,32.4,29.39,WSW,257,0.0,0.0,95,0.02,,,0.03,47.00,VWS V14.01,2013-03-18 20:28:00,
2013-03-18 16:29:00,33.7,32.4,29.39,WSW,257,0.0,0.0,95,0.02,,,0.03,53.00,VWS V14.01,2013-03-18 20:29:00,
2013-03-18 16:30:00,33.7,32.4,29.39,WSW,257,0.0,0.0,95,0.02,,,0.03,51.00,VWS V14.01,2013-03-18 20:30:00,
2013-03-18 16:31:00,33.7,32.4,29.39,WSW,257,0.0,0.0,95,0.01,,,0.03,51.00,VWS V14.01,2013-03-18 20:31:00,
2013-03-18 16:32:00,33.7,32.4,29.39,WSW,257,0.0,0.0,95,0.01,,,0.03,56.00,VWS V14.01,2013-03-18 20:32:00,
2013-03-18 16:33:00,33.7,32.4,29.39,WSW,257,0.0,0.0,95,0.01,,,0.03,56.00,VWS V14.01,2013-03-18 20:33:00,
2013-03-18 16:34:00,33.7,32.4,29.39,WSW,257,0.0,0.0,95,0.01,,,0.03,54.00,VWS V14.01,2013-03-18 20:34:00,
2013-03-18 16:35:00,33.7,32.4,29.39,WSW,257,0.0,0.0,95,0.01,,,0.03,53.00,VWS V14.01,2013-03-18 20:35:00,
2013-03-18 16:36:00,33.8,32.5,29.39,WSW,257,0.0,0.0,95,0.01,,,0.03,44.00,VWS V14.01,2013-03-18 20:36:00,
2013-03-18 16:37:00,33.8,32.5,29.39,WSW,257,0.0,0.0,95,0.01,,,0.03,40.00,VWS V14.01,2013-03-18 20:37:00,
2013-03-18 16:38:00,33.8,32.5,29.39,WSW,257,0.0,0.0,95,0.01,,,0.03,40.00,VWS V14.01,2013-03-18 20:38:00,
2013-03-18 16:39:00,33.8,32.5,29.39,WSW,257,0.0,0.0,95,0.01,,,0.03,51.00,VWS V14.01,2013-03-18 20:39:00,
2013-03-18 16:40:00,33.8,32.5,29.39,WSW,257,0.0,0.0,95,0.01,,,0.03,58.00,VWS V14.01,2013-03-18 20:40:00,
2013-03-18 16:41:00,33.8,32.5,29.39,WSW,257,0.0,0.0,95,0.01,,,0.03,67.00,VWS V14.01,2013-03-18 20:41:00,
2013-03-18 16:42:00,33.8,32.5,29.39,WSW,257,0.0,0.0,95,0.01,,,0.03,65.00,VWS V14.01,2013-03-18 20:42:00,
2013-03-18 16:43:00,33.8,32.5,29.39,WSW,257,0.0,0.0,95,0.01,,,0.03,81.00,VWS V14.01,2013-03-18 20:43:00,
2013-03-18 16:44:00,33.8,32.5,29.39,WSW,257,0.0,0.0,95,0.01,,,0.03,88.00,VWS V14.01,2013-03-18 20:44:00,
2013-03-18 16:45:00,33.8,32.5,29.39,WSW,257,0.0,0.0,95,0.01,,,0.03,98.00,VWS V14.01,2013-03-18 20:45:00,
2013-03-18 16:46:00,33.8,32.5,29.39,WSW,257,0.0,0.0,95,0.01,,,0.03,95.00,VWS V14.01,2013-03-18 20:46:00,
2013-03-18 16:47:00,34.0,32.7,29.39,WSW,257,0.0,0.0,95,0.01,,,0.03,79.00,VWS V14.01,2013-03-18 20:47:00,
2013-03-18 16:48:00,34.0,32.7,29.39,WSW,257,0.0,0.0,95,0.02,,,0.04,81.00,VWS V14.01,2013-03-18 20:48:00,
2013-03-18 16:49:00,34.0,32.7,29.39,WSW,257,0.0,0.0,95,0.02,,,0.04,65.00,VWS V14.01,2013-03-18 20:49:00,
2013-03-18 16:50:00,34.0,32.7,29.39,WSW,257,0.0,0.0,95,0.02,,,0.04,54.00,VWS V14.01,2013-03-18 20:50:00,
2013-03-18 16:51:00,34.0,32.7,29.39,WSW,257,0.0,0.0,95,0.02,,,0.04,58.00,VWS V14.01,2013-03-18 20:51:00,
2013-03-18 16:52:00,34.0,32.7,29.39,WSW,257,0.0,0.0,95,0.02,,,0.04,70.00,VWS V14.01,2013-03-18 20:52:00,
2013-03-18 16:53:00,34.0,32.7,29.39,WSW,257,0.0,0.0,95,0.02,,,0.04,62.00,VWS V14.01,2013-03-18 20:53:00,
2013-03-18 16:54:00,34.0,32.7,29.39,WSW,257,0.0,0.0,95,0.02,,-RA,0.04,56.00,VWS V14.01,2013-03-18 20:54:00,
2013-03-18 16:55:00,34.0,32.7,29.39,NNE,15,2.0,0.0,95,0.02,,-RA,0.04,39.00,VWS V14.01,2013-03-18 20:55:00,
2013-03-18 16:56:00,34.0,32.7,29.39,NNE,32,0.0,0.0,95,0.02,,-RA,0.04,37.00,VWS V14.01,2013-03-18 20:56:00,
2013-03-18 16:57:00,34.0,32.7,29.39,NNE,32,0.0,0.0,95,0.02,,-RA,0.04,33.00,VWS V14.01,2013-03-18 20:57:00,
2013-03-18 16:58:00,34.0,32.7,29.39,NNE,32,0.0,0.0,95,0.02,,-RA,0.04,39.00,VWS V14.01,2013-03-18 20:58:00,
2013-03-18 16:59:00,34.1,32.8,29.39,NNE,32,0.0,0.0,95,0.02,,-RA,0.04,39.00,VWS V14.01,2013-03-18 20:59:00,
2013-03-18 17:00:00,34.1,32.8,29.39,NNE,32,0.0,0.0,95,0.02,,-RA,0.04,40.00,VWS V14.01,2013-03-18 21:00:00,
2013-03-18 17:01:00,34.1,32.8,29.39,NNE,32,0.0,0.0,95,0.01,,-RA,0.04,46.00,VWS V14.01,2013-03-18 21:01:00,
2013-03-18 17:02:00,34.1,32.8,29.39,NNE,32,0.0,0.0,95,0.01,,-RA,0.04,56.00,VWS V14.01,2013-03-18 21:02:00,
2013-03-18 17:03:00,34.1,32.8,29.39,NNE,32,0.0,0.0,95,0.01,,-RA,0.04,47.00,VWS V14.01,2013-03-18 21:03:00,
2013-03-18 17:04:00,34.1,32.8,29.39,NNE,32,0.0,0.0,95,0.01,,-RA,0.04,42.00,VWS V14.01,2013-03-18 21:04:00,
2013-03-18 17:05:00,34.1,32.8,29.39,NE,39,0.0,0.0,95,0.01,,-RA,0.04,37.00,VWS V14.01,2013-03-18 21:05:00,
2013-03-18 17:06:00,34.1,32.8,29.39,NE,40,0.0,0.0,95,0.01,,-RA,0.04,30.00,VWS V14.01,2013-03-18 21:06:00,
2013-03-18 17:07:00,34.1,32.8,29.39,NE,39,0.0,0.0,95,0.01,,-RA,0.04,37.00,VWS V14.01,2013-03-18 21:07:00,
2013-03-18 17:08:00,34.1,32.8,29.39,NE,39,0.0,0.0,95,0.01,,-RA,0.04,35.00,VWS V14.01,2013-03-18 21:08:00,
2013-03-18 17:09:00,34.1,32.8,29.39,NE,39,0.0,0.0,95,0.01,,-RA,0.04,35.00,VWS V14.01,2013-03-18 21:09:00,
2013-03-18 17:10:00,34.1,32.8,29.39,NE,39,0.0,0.0,95,0.01,,-RA,0.04,40.00,VWS V14.01,2013-03-18 21:10:00,
2013-03-18 17:11:00,34.1,32.8,29.39,NE,39,0.0,0.0,95,0.01,,-RA,0.04,44.00,VWS V14.01,2013-03-18 21:11:00,
2013-03-18 17:12:00,34.1,32.8,29.39,NE,39,0.0,0.0,95,0.01,,-RA,0.04,37.00,VWS V14.01,2013-03-18 21:12:00,
2013-03-18 17:13:00,34.1,32.8,29.39,NE,39,0.0,0.0,95,0.01,,-RA,0.04,30.00,VWS V14.01,2013-03-18 21:13:00,
2013-03-18 17:14:00,34.1,32.8,29.40,NE,34,0.0,0.0,95,0.01,,-RA,0.04,35.00,VWS V14.01,2013-03-18 21:14:00,
2013-03-18 17:15:00,34.1,32.8,29.40,WSW,247,0.0,0.0,95,0.01,,-RA,0.04,39.00,VWS V14.01,2013-03-18 21:15:00,
2013-03-18 17:16:00,34.1,32.8,29.40,WSW,246,1.0,0.0,95,0.01,,-RA,0.04,33.00,VWS V14.01,2013-03-18 21:16:00,
2013-03-18 17:17:00,34.1,32.8,29.40,WSW,246,0.0,0.0,95,0.01,,-RA,0.04,33.00,VWS V14.01,2013-03-18 21:17:00,
2013-03-18 17:18:00,34.1,32.8,29.40,WSW,246,0.0,0.0,95,0.01,,-RA,0.04,30.00,VWS V14.01,2013-03-18 21:18:00,
2013-03-18 17:19:00,34.1,32.8,29.40,WSW,246,0.0,0.0,95,0.01,,-RA,0.04,26.00,VWS V14.01,2013-03-18 21:19:00,
2013-03-18 17:20:00,34.1,32.8,29.40,WSW,246,0.0,0.0,95,0.01,,-RA,0.04,26.00,VWS V14.01,2013-03-18 21:20:00,
2013-03-18 17:21:00,34.1,32.8,29.40,WSW,246,0.0,0.0,95,0.01,,-RA,0.04,32.00,VWS V14.01,2013-03-18 21:21:00,
2013-03-18 17:22:00,34.1,32.8,29.40,WSW,246,0.0,0.0,95,0.01,,-RA,0.04,26.00,VWS V14.01,2013-03-18 21:22:00,
2013-03-18 17:23:00,34.1,32.8,29.40,WSW,246,0.0,0.0,95,0.01,,-RA,0.04,25.00,VWS V14.01,2013-03-18 21:23:00,
2013-03-18 17:24:00,34.1,32.8,29.40,WSW,246,0.0,0.0,95,0.01,,,0.04,32.00,VWS V14.01,2013-03-18 21:24:00,
2013-03-18 17:25:00,34.1,32.8,29.40,WNW,289,3.0,0.0,95,0.01,,,0.04,33.00,VWS V14.01,2013-03-18 21:25:00,
2013-03-18 17:26:00,34.1,32.8,29.40,West,279,0.0,0.0,95,0.01,,,0.04,30.00,VWS V14.01,2013-03-18 21:26:00,
2013-03-18 17:27:00,34.1,32.8,29.40,West,279,0.0,0.0,95,0.01,,,0.04,23.00,VWS V14.01,2013-03-18 21:27:00,
2013-03-18 17:28:00,34.0,32.7,29.40,West,279,0.0,0.0,95,0.01,,,0.04,25.00,VWS V14.01,2013-03-18 21:28:00,
2013-03-18 17:29:00,34.0,32.7,29.40,West,259,2.0,0.0,95,0.01,,,0.04,26.00,VWS V14.01,2013-03-18 21:29:00,
2013-03-18 17:30:00,34.0,32.7,29.39,West,261,1.0,0.0,95,0.01,,,0.04,23.00,VWS V14.01,2013-03-18 21:30:00,
2013-03-18 17:31:00,34.0,32.7,29.39,NE,40,0.0,0.0,95,0.01,,,0.04,23.00,VWS V14.01,2013-03-18 21:31:00,
2013-03-18 17:32:00,34.0,32.7,29.39,NE,42,0.0,0.0,95,0.01,,,0.04,23.00,VWS V14.01,2013-03-18 21:32:00,
2013-03-18 17:33:00,34.0,32.7,29.39,NE,42,0.0,0.0,95,0.01,,,0.04,23.00,VWS V14.01,2013-03-18 21:33:00,
2013-03-18 17:34:00,34.0,32.7,29.39,NE,42,0.0,0.0,95,0.01,,,0.04,26.00,VWS V14.01,2013-03-18 21:34:00,
2013-03-18 17:35:00,34.0,32.7,29.39,NE,42,0.0,0.0,95,0.01,,,0.04,26.00,VWS V14.01,2013-03-18 21:35:00,
2013-03-18 17:36:00,34.0,32.7,29.39,NE,42,0.0,0.0,95,0.01,,,0.04,46.00,VWS V14.01,2013-03-18 21:36:00,
2013-03-18 17:37:00,34.0,32.7,29.39,WNW,289,2.0,0.0,95,0.01,,,0.04,47.00,VWS V14.01,2013-03-18 21:37:00,
2013-03-18 17:38:00,34.0,32.7,29.39,SSW,203,0.0,0.0,95,0.01,,,0.04,49.00,VWS V14.01,2013-03-18 21:38:00,
2013-03-18 17:39:00,34.0,32.7,29.39,SSW,213,0.0,0.0,95,0.01,,,0.04,33.00,VWS V14.01,2013-03-18 21:39:00,
2013-03-18 17:40:00,33.8,32.5,29.39,SSW,213,0.0,0.0,95,0.01,,,0.04,35.00,VWS V14.01,2013-03-18 21:40:00,
2013-03-18 17:41:00,33.8,32.5,29.39,North,350,0.0,0.0,95,0.01,,,0.04,39.00,VWS V14.01,2013-03-18 21:41:00,
2013-03-18 17:42:00,33.8,32.5,29.39,North,350,0.0,0.0,95,0.01,,,0.04,39.00,VWS V14.01,2013-03-18 21:42:00,
2013-03-18 17:43:00,33.8,32.5,29.39,North,350,0.0,0.0,95,0.01,,,0.04,26.00,VWS V14.01,2013-03-18 21:43:00,
2013-03-18 17:44:00,33.8,32.5,29.40,North,350,0.0,0.0,95,0.01,,,0.04,26.00,VWS V14.01,2013-03-18 21:44:00,
2013-03-18 17:45:00,33.8,32.5,29.40,North,350,0.0,0.0,95,0.01,,,0.04,30.00,VWS V14.01,2013-03-18 21:45:00,
2013-03-18 17:46:00,33.8,32.5,29.40,North,350,0.0,0.0,95,0.01,,,0.04,42.00,VWS V14.01,2013-03-18 21:46:00,
2013-03-18 17:47:00,33.8,32.5,29.40,North,350,0.0,0.0,95,0.01,,,0.04,60.00,VWS V14.01,2013-03-18 21:47:00,
2013-03-18 17:48:00,33.8,32.5,29.40,North,350,0.0,0.0,95,0.01,,,0.04,37.00,VWS V14.01,2013-03-18 21:48:00,
2013-03-18 17:49:00,33.8,32.5,29.40,NW,306,0.0,0.0,95,0.01,,,0.04,42.00,VWS V14.01,2013-03-18 21:49:00,
2013-03-18 17:50:00,33.8,32.5,29.40,NW,306,0.0,0.0,95,0.01,,,0.04,56.00,VWS V14.01,2013-03-18 21:50:00,
2013-03-18 17:51:00,33.8,32.5,29.40,NW,306,0.0,0.0,95,0.01,,,0.04,47.00,VWS V14.01,2013-03-18 21:51:00,
2013-03-18 17:52:00,33.8,32.5,29.40,NW,306,0.0,0.0,95,0.01,,,0.04,40.00,VWS V14.01,2013-03-18 21:52:00,
2013-03-18 17:53:00,33.8,32.5,29.40,North,351,0.0,0.0,95,0.01,,,0.04,58.00,VWS V14.01,2013-03-18 21:53:00,
2013-03-18 17:54:00,33.8,32.5,29.40,North,351,0.0,0.0,95,0.01,,-RA,0.04,42.00,VWS V14.01,2013-03-18 21:54:00,
2013-03-18 17:55:00,33.8,32.5,29.40,SW,217,5.0,0.0,95,0.01,,-RA,0.04,40.00,VWS V14.01,2013-03-18 21:55:00,
2013-03-18 17:56:00,33.8,32.5,29.40,SW,227,0.0,0.0,95,0.01,,-RA,0.04,42.00,VWS V14.01,2013-03-18 21:56:00,
2013-03-18 17:57:00,33.8,32.5,29.40,SW,227,0.0,0.0,95,0.01,,-RA,0.04,46.00,VWS V14.01,2013-03-18 21:57:00,
2013-03-18 17:58:00,33.8,32.5,29.40,SW,227,0.0,0.0,95,0.01,,-RA,0.04,40.00,VWS V14.01,2013-03-18 21:58:00,
2013-03-18 17:59:00,33.8,32.5,29.40,SW,227,0.0,0.0,95,0.01,,-RA,0.04,39.00,VWS V14.01,2013-03-18 21:59:00,
2013-03-18 18:00:00,33.8,32.5,29.41,SW,227,0.0,0.0,95,0.01,,-RA,0.04,39.00,VWS V14.01,2013-03-18 22:00:00,
2013-03-18 18:01:00,33.8,32.5,29.41,West,270,0.0,0.0,95,0.00,,-RA,0.04,44.00,VWS V14.01,2013-03-18 22:01:00,
2013-03-18 18:02:00,34.0,32.7,29.41,West,271,1.0,0.0,95,0.00,,-RA,0.04,46.00,VWS V14.01,2013-03-18 22:02:00,
2013-03-18 18:03:00,34.0,32.7,29.41,West,271,0.0,0.0,95,0.00,,-RA,0.04,39.00,VWS V14.01,2013-03-18 22:03:00,
2013-03-18 18:04:00,34.0,32.7,29.41,West,267,0.0,0.0,95,0.00,,-RA,0.04,40.00,VWS V14.01,2013-03-18 22:04:00,
2013-03-18 18:05:00,34.0,32.7,29.41,South,191,1.0,0.0,95,0.00,,-RA,0.04,40.00,VWS V14.01,2013-03-18 22:05:00,
2013-03-18 18:06:00,34.0,32.7,29.41,ENE,71,0.0,0.0,95,0.00,,-RA,0.04,23.00,VWS V14.01,2013-03-18 22:06:00,
2013-03-18 18:07:00,33.8,32.5,29.41,NW,310,0.0,0.0,95,0.00,,-RA,0.04,25.00,VWS V14.01,2013-03-18 22:07:00,
2013-03-18 18:08:00,33.8,32.5,29.41,NW,310,0.0,0.0,95,0.00,,-RA,0.04,23.00,VWS V14.01,2013-03-18 22:08:00,
2013-03-18 18:09:00,33.8,32.5,29.41,NW,310,0.0,0.0,95,0.00,,-RA,0.04,21.00,VWS V14.01,2013-03-18 22:09:00,
2013-03-18 18:10:00,33.8,32.5,29.41,NW,310,0.0,0.0,95,0.00,,-RA,0.04,21.00,VWS V14.01,2013-03-18 22:10:00,
2013-03-18 18:11:00,33.8,32.5,29.41,NW,310,0.0,0.0,95,0.00,,-RA,0.04,21.00,VWS V14.01,2013-03-18 22:11:00,
2013-03-18 18:12:00,33.8,32.5,29.41,NW,310,0.0,0.0,95,0.00,,-RA,0.04,26.00,VWS V14.01,2013-03-18 22:12:00,
2013-03-18 18:13:00,33.8,32.5,29.41,SSW,207,1.0,0.0,95,0.00,,-RA,0.04,39.00,VWS V14.01,2013-03-18 22:13:00,
2013-03-18 18:14:00,33.8,32.5,29.41,West,273,2.0,0.0,95,0.00,,-RA,0.04,39.00,VWS V14.01,2013-03-18 22:14:00,
2013-03-18 18:15:00,33.8,32.5,29.41,West,273,0.0,0.0,95,0.00,,-RA,0.04,39.00,VWS V14.01,2013-03-18 22:15:00,
2013-03-18 18:16:00,33.8,32.5,29.41,SW,236,0.0,0.0,95,0.00,,-RA,0.04,28.00,VWS V14.01,2013-03-18 22:16:00,
2013-03-18 18:17:00,33.8,32.5,29.41,WSW,254,0.0,0.0,95,0.00,,-RA,0.04,26.00,VWS V14.01,2013-03-18 22:17:00,
2013-03-18 18:18:00,33.8,32.5,29.41,WSW,254,0.0,0.0,95,0.00,,-RA,0.04,25.00,VWS V14.01,2013-03-18 22:18:00,
2013-03-18 18:19:00,33.8,32.5,29.41,WSW,246,1.0,0.0,95,0.00,,-RA,0.04,18.00,VWS V14.01,2013-03-18 22:19:00,
2013-03-18 18:20:00,33.8,32.5,29.41,West,270,2.0,0.0,95,0.00,,-RA,0.04,23.00,VWS V14.01,2013-03-18 22:20:00,
2013-03-18 18:21:00,33.8,32.5,29.41,WSW,252,1.0,0.0,95,0.00,,-RA,0.04,21.00,VWS V14.01,2013-03-18 22:21:00,
2013-03-18 18:22:00,33.8,32.5,29.41,WNW,298,3.0,0.0,95,0.00,,-RA,0.04,12.00,VWS V14.01,2013-03-18 22:22:00,
2013-03-18 18:23:00,33.8,32.5,29.41,SW,225,2.0,0.0,95,0.00,,-RA,0.04,11.00,VWS V14.01,2013-03-18 22:23:00,
2013-03-18 18:24:00,33.7,32.4,29.41,West,265,0.0,0.0,95,0.00,,-RA,0.04,12.00,VWS V14.01,2013-03-18 22:24:00,
2013-03-18 18:25:00,33.7,32.4,29.41,WNW,288,1.0,0.0,95,0.00,,-RA,0.04,14.00,VWS V14.01,2013-03-18 22:25:00,
2013-03-18 18:26:00,33.7,32.4,29.41,WNW,298,0.0,0.0,95,0.00,,-RA,0.04,14.00,VWS V14.01,2013-03-18 22:26:00,
2013-03-18 18:27:00,33.7,32.4,29.41,SSW,199,1.0,0.0,95,0.00,,-RA,0.04,14.00,VWS V14.01,2013-03-18 22:27:00,
2013-03-18 18:28:00,33.7,32.4,29.41,West,277,2.0,0.0,95,0.00,,-RA,0.04,16.00,VWS V14.01,2013-03-18 22:28:00,
2013-03-18 18:29:00,33.7,32.4,29.41,WSW,242,0.0,0.0,95,0.00,,-RA,0.04,14.00,VWS V14.01,2013-03-18 22:29:00,
2013-03-18 18:30:00,33.7,32.4,29.42,WSW,242,0.0,0.0,95,0.00,,-RA,0.04,21.00,VWS V14.01,2013-03-18 22:30:00,
2013-03-18 18:31:00,33.7,32.4,29.42,WSW,242,0.0,0.0,95,0.00,,-RA,0.04,21.00,VWS V14.01,2013-03-18 22:31:00,
2013-03-18 18:32:00,33.7,32.4,29.42,WSW,242,0.0,0.0,95,0.00,,-RA,0.04,21.00,VWS V14.01,2013-03-18 22:32:00,
2013-03-18 18:33:00,33.7,32.4,29.42,West,276,2.0,0.0,95,0.00,,-RA,0.04,19.00,VWS V14.01,2013-03-18 22:33:00,
2013-03-18 18:34:00,33.5,32.2,29.42,West,281,1.0,0.0,95,0.00,,-RA,0.04,21.00,VWS V14.01,2013-03-18 22:34:00,
2013-03-18 18:35:00,33.5,32.2,29.42,West,281,1.0,0.0,95,0.00,,-RA,0.04,19.00,VWS V14.01,2013-03-18 22:35:00,
2013-03-18 18:36:00,33.5,32.2,29.42,West,281,0.0,0.0,95,0.00,,-RA,0.04,18.00,VWS V14.01,2013-03-18 22:36:00,
2013-03-18 18:37:00,33.5,32.2,29.42,SSW,205,1.0,0.0,95,0.00,,-RA,0.04,25.00,VWS V14.01,2013-03-18 22:37:00,
2013-03-18 18:38:00,33.5,32.2,29.42,NW,307,0.0,0.0,95,0.00,,-RA,0.04,23.00,VWS V14.01,2013-03-18 22:38:00,
2013-03-18 18:39:00,33.5,32.2,29.42,West,263,2.0,0.0,95,0.00,,-RA,0.04,18.00,VWS V14.01,2013-03-18 22:39:00,
2013-03-18 18:40:00,33.5,32.2,29.42,SSW,209,1.0,0.0,95,0.00,,-RA,0.04,19.00,VWS V14.01,2013-03-18 22:40:00,
2013-03-18 18:41:00,33.5,32.2,29.42,WSW,252,0.0,0.0,95,0.00,,-RA,0.04,19.00,VWS V14.01,2013-03-18 22:41:00,
2013-03-18 18:42:00,33.4,32.1,29.42,WSW,252,0.0,0.0,95,0.00,,-RA,0.04,19.00,VWS V14.01,2013-03-18 22:42:00,
2013-03-18 18:43:00,33.4,32.1,29.42,WSW,251,0.0,0.0,95,0.00,,-RA,0.04,19.00,VWS V14.01,2013-03-18 22:43:00,
2013-03-18 18:44:00,33.4,32.1,29.42,WSW,251,0.0,0.0,95,0.00,,-RA,0.04,16.00,VWS V14.01,2013-03-18 22:44:00,
2013-03-18 18:45:00,33.4,32.1,29.43,WSW,251,0.0,0.0,95,0.00,,-RA,0.04,16.00,VWS V14.01,2013-03-18 22:45:00,
2013-03-18 18:46:00,33.4,32.1,29.43,WSW,251,0.0,0.0,95,0.00,,-RA,0.04,16.00,VWS V14.01,2013-03-18 22:46:00,
2013-03-18 18:47:00,33.4,32.1,29.43,WSW,251,0.0,0.0,95,0.00,,-RA,0.04,12.00,VWS V14.01,2013-03-18 22:47:00,
2013-03-18 18:48:00,33.4,32.1,29.43,WSW,251,0.0,0.0,95,0.00,,-RA,0.04,12.00,VWS V14.01,2013-03-18 22:48:00,
2013-03-18 18:49:00,33.4,32.1,29.43,WSW,251,0.0,0.0,95,0.00,,-RA,0.04,14.00,VWS V14.01,2013-03-18 22:49:00,
2013-03-18 18:50:00,33.4,32.1,29.43,WSW,251,0.0,0.0,95,0.00,,-RA,0.04,11.00,VWS V14.01,2013-03-18 22:50:00,
2013-03-18 18:51:00,33.4,32.1,29.43,East,94,0.0,0.0,95,0.00,,-RA,0.04,11.00,VWS V14.01,2013-03-18 22:51:00,
2013-03-18 18:52:00,33.4,32.1,29.43,SW,214,0.0,0.0,95,0.00,,-RA,0.04,9.00,VWS V14.01,2013-03-18 22:52:00,
2013-03-18 18:53:00,33.2,31.9,29.43,SW,214,0.0,0.0,95,0.00,,-RA,0.04,9.00,VWS V14.01,2013-03-18 22:53:00,
2013-03-18 18:54:00,33.2,31.9,29.43,SW,214,0.0,0.0,95,0.00,,-RA,0.04,7.00,VWS V14.01,2013-03-18 22:54:00,
2013-03-18 18:55:00,33.2,31.9,29.43,West,259,2.0,0.0,95,0.00,,-RA,0.04,9.00,VWS V14.01,2013-03-18 22:55:00,
2013-03-18 18:56:00,33.2,31.9,29.43,West,259,0.0,0.0,95,0.00,,-RA,0.04,9.00,VWS V14.01,2013-03-18 22:56:00,
2013-03-18 18:57:00,33.2,31.9,29.43,West,259,0.0,0.0,95,0.00,,-RA,0.04,11.00,VWS V14.01,2013-03-18 22:57:00,
2013-03-18 18:58:00,33.2,31.9,29.43,WNW,292,0.0,0.0,95,0.00,,-RA,0.04,11.00,VWS V14.01,2013-03-18 22:58:00,
2013-03-18 18:59:00,33.2,31.9,29.44,WNW,292,0.0,0.0,95,0.01,,-RA,0.05,9.00,VWS V14.01,2013-03-18 22:59:00,
2013-03-18 19:00:00,33.2,31.9,29.44,NNW,336,0.0,0.0,95,0.01,,-RA,0.05,9.00,VWS V14.01,2013-03-18 23:00:00,
2013-03-18 19:01:00,33.1,31.8,29.44,NNW,336,0.0,0.0,95,0.01,,-RA,0.05,9.00,VWS V14.01,2013-03-18 23:01:00,
2013-03-18 19:02:00,33.1,31.8,29.44,WNW,296,0.0,0.0,95,0.01,,-RA,0.05,9.00,VWS V14.01,2013-03-18 23:02:00,
2013-03-18 19:03:00,33.1,31.8,29.44,NNW,329,1.0,0.0,95,0.01,,-RA,0.05,7.00,VWS V14.01,2013-03-18 23:03:00,
2013-03-18 19:04:00,33.1,31.8,29.44,SW,229,0.0,0.0,95,0.01,,-RA,0.05,5.00,VWS V14.01,2013-03-18 23:04:00,
2013-03-18 19:05:00,33.1,31.8,29.44,SW,229,0.0,0.0,95,0.01,,-RA,0.05,5.00,VWS V14.01,2013-03-18 23:05:00,
2013-03-18 19:06:00,33.1,31.8,29.44,SW,235,0.0,0.0,95,0.01,,-RA,0.05,5.00,VWS V14.01,2013-03-18 23:06:00,
2013-03-18 19:07:00,33.1,31.8,29.44,SW,235,0.0,0.0,95,0.01,,-RA,0.05,5.00,VWS V14.01,2013-03-18 23:07:00,
2013-03-18 19:08:00,33.1,31.8,29.44,West,259,1.0,0.0,95,0.01,,-RA,0.05,5.00,VWS V14.01,2013-03-18 23:08:00,
2013-03-18 19:09:00,33.1,31.8,29.44,West,261,0.0,0.0,95,0.01,,-RA,0.05,5.00,VWS V14.01,2013-03-18 23:09:00,
2013-03-18 19:10:00,33.1,31.8,29.44,West,265,0.0,0.0,95,0.01,,-RA,0.05,5.00,VWS V14.01,2013-03-18 23:10:00,
2013-03-18 19:11:00,32.9,31.6,29.44,West,265,1.0,0.0,95,0.01,,-RA,0.05,7.00,VWS V14.01,2013-03-18 23:11:00,
2013-03-18 19:12:00,32.9,31.6,29.44,West,265,1.0,0.0,95,0.01,,-RA,0.05,5.00,VWS V14.01,2013-03-18 23:12:00,
2013-03-18 19:13:00,32.9,31.6,29.44,West,265,0.0,0.0,95,0.01,,-RA,0.05,5.00,VWS V14.01,2013-03-18 23:13:00,
2013-03-18 19:14:00,32.9,31.6,29.44,West,265,1.0,0.0,95,0.01,,-RA,0.05,0.00,VWS V14.01,2013-03-18 23:14:00,
2013-03-18 19:15:00,32.9,31.6,29.44,NNW,344,0.0,0.0,95,0.01,,-RA,0.05,0.00,VWS V14.01,2013-03-18 23:15:00,
2013-03-18 19:16:00,32.9,31.6,29.44,NNW,344,0.0,0.0,95,0.01,,-RA,0.05,0.00,VWS V14.01,2013-03-18 23:16:00,
2013-03-18 19:17:00,32.9,31.6,29.44,NNW,344,0.0,0.0,95,0.01,,-RA,0.05,0.00,VWS V14.01,2013-03-18 23:17:00,
2013-03-18 19:18:00,32.9,31.6,29.44,WSW,254,5.0,0.0,95,0.01,,-RA,0.05,0.00,VWS V14.01,2013-03-18 23:18:00,
2013-03-18 19:19:00,32.9,31.6,29.44,WSW,244,0.0,0.0,95,0.01,,-RA,0.05,0.00,VWS V14.01,2013-03-18 23:19:00,
2013-03-18 19:20:00,32.9,31.6,29.44,WSW,244,0.0,0.0,95,0.01,,-RA,0.05,0.00,VWS V14.01,2013-03-18 23:20:00,
2013-03-18 19:21:00,32.9,31.6,29.44,SE,144,0.0,0.0,95,0.01,,-RA,0.05,0.00,VWS V14.01,2013-03-18 23:21:00,
2013-03-18 19:22:00,32.9,31.6,29.44,SSE,148,0.0,0.0,95,0.01,,-RA,0.05,0.00,VWS V14.01,2013-03-18 23:22:00,
2013-03-18 19:23:00,32.9,31.6,29.44,SW,223,0.0,0.0,95,0.01,,-RA,0.05,0.00,VWS V14.01,2013-03-18 23:23:00,
2013-03-18 19:24:00,32.9,31.6,29.44,West,275,0.0,0.0,95,0.01,,-RA,0.05,0.00,VWS V14.01,2013-03-18 23:24:00,
2013-03-18 19:25:00,32.9,31.6,29.44,West,275,0.0,0.0,95,0.01,,-RA,0.05,0.00,VWS V14.01,2013-03-18 23:25:00,
2013-03-18 19:26:00,32.8,31.5,29.44,West,275,0.0,0.0,95,0.01,,-RA,0.05,0.00,VWS V14.01,2013-03-18 23:26:00,
2013-03-18 19:27:00,32.8,31.5,29.44,West,275,0.0,0.0,95,0.01,,-RA,0.05,0.00,VWS V14.01,2013-03-18 23:27:00,
2013-03-18 19:28:00,32.8,31.5,29.44,SW,234,3.0,0.0,95,0.01,,-RA,0.05,0.00,VWS V14.01,2013-03-18 23:28:00,
2013-03-18 19:29:00,32.8,31.5,29.45,West,268,1.0,0.0,95,0.01,,-RA,0.05,0.00,VWS V14.01,2013-03-18 23:29:00,
2013-03-18 19:30:00,32.8,31.5,29.45,West,269,0.0,0.0,95,0.01,,-RA,0.05,0.00,VWS V14.01,2013-03-18 23:30:00,
2013-03-18 19:31:00,32.8,31.5,29.45,West,269,0.0,0.0,95,0.01,,-RA,0.05,0.00,VWS V14.01,2013-03-18 23:31:00,
2013-03-18 19:32:00,32.8,31.5,29.45,West,269,0.0,0.0,95,0.01,,-RA,0.05,0.00,VWS V14.01,2013-03-18 23:32:00,
2013-03-18 19:33:00,32.8,31.5,29.45,North,355,0.0,0.0,95,0.01,,-RA,0.05,0.00,VWS V14.01,2013-03-18 23:33:00,
2013-03-18 19:34:00,32.8,31.5,29.45,NW,324,2.0,0.0,95,0.01,,-RA,0.05,0.00,VWS V14.01,2013-03-18 23:34:00,
2013-03-18 19:35:00,32.8,31.5,29.45,SW,230,0.0,0.0,95,0.01,,-RA,0.05,0.00,VWS V14.01,2013-03-18 23:35:00,
2013-03-18 19:36:00,32.8,31.5,29.45,WSW,240,0.0,0.0,95,0.01,,-RA,0.05,0.00,VWS V14.01,2013-03-18 23:36:00,
2013-03-18 19:37:00,32.8,31.5,29.45,WSW,240,0.0,0.0,95,0.01,,-RA,0.05,0.00,VWS V14.01,2013-03-18 23:37:00,
2013-03-18 19:38:00,32.8,31.5,29.45,WSW,240,0.0,0.0,95,0.01,,-RA,0.05,0.00,VWS V14.01,2013-03-18 23:38:00,
2013-03-18 19:39:00,32.8,31.5,29.45,WSW,240,0.0,0.0,95,0.01,,-RA,0.05,0.00,VWS V14.01,2013-03-18 23:39:00,
2013-03-18 19:40:00,32.8,31.5,29.45,WSW,240,0.0,0.0,95,0.01,,-RA,0.05,0.00,VWS V14.01,2013-03-18 23:40:00,
2013-03-18 19:41:00,32.8,31.5,29.45,WSW,240,0.0,0.0,95,0.01,,-RA,0.05,0.00,VWS V14.01,2013-03-18 23:41:00,
2013-03-18 19:42:00,32.8,31.5,29.45,WSW,240,1.0,0.0,95,0.01,,-RA,0.05,0.00,VWS V14.01,2013-03-18 23:42:00,
2013-03-18 19:43:00,32.8,31.5,29.45,WSW,240,0.0,0.0,95,0.01,,-RA,0.05,0.00,VWS V14.01,2013-03-18 23:43:00,
2013-03-18 19:44:00,32.8,31.5,29.45,WSW,240,0.0,0.0,95,0.01,,-RA,0.05,0.00,VWS V14.01,2013-03-18 23:44:00,
2013-03-18 19:45:00,32.8,31.5,29.45,WSW,240,0.0,0.0,95,0.01,,-RA,0.05,0.00,VWS V14.01,2013-03-18 23:45:00,
2013-03-18 19:46:00,32.8,31.5,29.45,SW,221,0.0,0.0,95,0.01,,-RA,0.05,0.00,VWS V14.01,2013-03-18 23:46:00,
2013-03-18 19:47:00,32.8,31.5,29.45,WSW,252,0.0,0.0,95,0.01,,-RA,0.05,0.00,VWS V14.01,2013-03-18 23:47:00,
2013-03-18 19:48:00,32.8,31.5,29.45,SW,236,0.0,0.0,95,0.01,,-RA,0.05,0.00,VWS V14.01,2013-03-18 23:48:00,
2013-03-18 19:49:00,32.8,31.5,29.45,WSW,242,0.0,0.0,95,0.01,,-RA,0.05,0.00,VWS V14.01,2013-03-18 23:49:00,
2013-03-18 19:50:00,32.8,31.5,29.45,WSW,242,0.0,0.0,95,0.01,,-RA,0.05,0.00,VWS V14.01,2013-03-18 23:50:00,
2013-03-18 19:51:00,32.8,31.5,29.45,WSW,242,0.0,0.0,95,0.01,,-RA,0.05,0.00,VWS V14.01,2013-03-18 23:51:00,
2013-03-18 19:52:00,32.8,31.5,29.45,WSW,242,0.0,0.0,95,0.01,,-RA,0.05,0.00,VWS V14.01,2013-03-18 23:52:00,
2013-03-18 19:53:00,32.7,31.4,29.45,WSW,242,0.0,0.0,95,0.01,,-RA,0.05,0.00,VWS V14.01,2013-03-18 23:53:00,
2013-03-18 19:54:00,32.7,31.4,29.45,WSW,253,6.0,0.0,95,0.01,,-RA,0.05,0.00,VWS V14.01,2013-03-18 23:54:00,
2013-03-18 19:55:00,32.7,31.4,29.45,West,259,0.0,0.0,95,0.01,,-RA,0.05,0.00,VWS V14.01,2013-03-18 23:55:00,
2013-03-18 19:56:00,32.7,31.4,29.45,West,259,0.0,0.0,95,0.01,,-RA,0.05,0.00,VWS V14.01,2013-03-18 23:56:00,
2013-03-18 19:57:00,32.7,31.4,29.45,West,259,0.0,0.0,95,0.01,,-RA,0.05,0.00,VWS V14.01,2013-03-18 23:57:00,
2013-03-18 19:58:00,32.7,31.4,29.45,West,259,0.0,0.0,95,0.01,,-RA,0.05,0.00,VWS V14.01,2013-03-18 23:58:00,
2013-03-18 19:59:00,32.7,31.4,29.46,West,259,0.0,0.0,95,0.01,,-RA,0.05,0.00,VWS V14.01,2013-03-18 23:59:00,
2013-03-18 20:00:00,32.7,31.4,29.46,West,259,0.0,0.0,95,0.01,,-RA,0.05,0.00,VWS V14.01,2013-03-19 00:00:00,
2013-03-18 20:01:00,32.7,31.4,29.46,West,259,0.0,0.0,95,0.00,,-RA,0.05,0.00,VWS V14.01,2013-03-19 00:01:00,
2013-03-18 20:02:00,32.7,31.4,29.46,West,259,0.0,0.0,95,0.00,,-RA,0.05,0.00,VWS V14.01,2013-03-19 00:02:00,
2013-03-18 20:03:00,32.7,31.4,29.46,SW,216,0.0,0.0,95,0.00,,-RA,0.05,0.00,VWS V14.01,2013-03-19 00:03:00,
2013-03-18 20:04:00,32.7,31.4,29.46,NW,311,0.0,0.0,95,0.00,,OVC015,0.05,0.00,VWS V14.01,2013-03-19 00:04:00,
2013-03-18 20:05:00,32.7,31.4,29.46,NW,311,0.0,0.0,95,0.00,,OVC015,0.05,0.00,VWS V14.01,2013-03-19 00:05:00,
2013-03-18 20:06:00,32.7,31.4,29.46,NW,311,0.0,0.0,95,0.00,,OVC015,0.05,0.00,VWS V14.01,2013-03-19 00:06:00,
2013-03-18 20:07:00,32.7,31.4,29.46,NW,311,0.0,0.0,95,0.00,,OVC015,0.05,0.00,VWS V14.01,2013-03-19 00:07:00,
2013-03-18 20:08:00,32.7,31.4,29.46,NW,311,0.0,0.0,95,0.00,,OVC015,0.05,0.00,VWS V14.01,2013-03-19 00:08:00,
2013-03-18 20:09:00,32.7,31.4,29.46,NW,308,0.0,0.0,95,0.00,,OVC015,0.05,0.00,VWS V14.01,2013-03-19 00:09:00,
2013-03-18 20:10:00,32.7,31.4,29.46,NW,308,0.0,0.0,95,0.00,,OVC015,0.05,0.00,VWS V14.01,2013-03-19 00:10:00,
2013-03-18 20:11:00,32.7,31.4,29.46,NW,308,0.0,0.0,95,0.00,,OVC015,0.05,0.00,VWS V14.01,2013-03-19 00:11:00,
2013-03-18 20:12:00,32.7,31.4,29.46,NW,309,0.0,0.0,95,0.00,,OVC015,0.05,0.00,VWS V14.01,2013-03-19 00:12:00,
2013-03-18 20:13:00,32.7,31.4,29.46,NW,309,0.0,0.0,95,0.00,,OVC015,0.05,0.00,VWS V14.01,2013-03-19 00:13:00,
2013-03-18 20:14:00,32.7,31.4,29.46,NW,306,0.0,0.0,95,0.00,,OVC015,0.05,0.00,VWS V14.01,2013-03-19 00:14:00,
2013-03-18 20:15:00,32.7,31.4,29.47,ENE,57,0.0,0.0,95,0.00,,OVC015,0.05,0.00,VWS V14.01,2013-03-19 00:15:00,
2013-03-18 20:16:00,32.7,31.4,29.47,ENE,57,0.0,0.0,95,0.00,,OVC015,0.05,0.00,VWS V14.01,2013-03-19 00:16:00,
2013-03-18 20:17:00,32.7,31.4,29.47,SW,235,0.0,0.0,95,0.00,,OVC015,0.05,0.00,VWS V14.01,2013-03-19 00:17:00,
2013-03-18 20:18:00,32.7,31.4,29.47,WNW,285,0.0,0.0,95,0.00,,OVC015,0.05,0.00,VWS V14.01,2013-03-19 00:18:00,
2013-03-18 20:19:00,32.7,31.4,29.47,NNE,29,0.0,0.0,95,0.00,,OVC015,0.05,0.00,VWS V14.01,2013-03-19 00:19:00,
2013-03-18 20:20:00,32.7,31.4,29.47,NNE,29,0.0,0.0,95,0.00,,OVC015,0.05,0.00,VWS V14.01,2013-03-19 00:20:00,
2013-03-18 20:21:00,32.7,31.4,29.47,NNE,29,0.0,0.0,95,0.00,,OVC015,0.05,0.00,VWS V14.01,2013-03-19 00:21:00,
2013-03-18 20:22:00,32.7,31.4,29.47,NNE,29,0.0,0.0,95,0.00,,OVC015,0.05,0.00,VWS V14.01,2013-03-19 00:22:00,
2013-03-18 20:23:00,32.7,31.4,29.47,NE,42,0.0,0.0,95,0.00,,OVC015,0.05,0.00,VWS V14.01,2013-03-19 00:23:00,
2013-03-18 20:24:00,32.7,31.4,29.47,NE,42,0.0,0.0,95,0.00,,OVC015,0.05,0.00,VWS V14.01,2013-03-19 00:24:00,
2013-03-18 20:25:00,32.7,31.4,29.47,NE,42,0.0,0.0,95,0.00,,OVC015,0.05,0.00,VWS V14.01,2013-03-19 00:25:00,
2013-03-18 20:26:00,32.7,31.4,29.47,NE,42,0.0,0.0,95,0.00,,OVC015,0.05,0.00,VWS V14.01,2013-03-19 00:26:00,
2013-03-18 20:27:00,32.7,31.4,29.47,NE,42,0.0,0.0,95,0.00,,OVC015,0.05,0.00,VWS V14.01,2013-03-19 00:27:00,
2013-03-18 20:28:00,32.7,31.4,29.47,NE,42,0.0,0.0,95,0.00,,OVC015,0.05,0.00,VWS V14.01,2013-03-19 00:28:00,
2013-03-18 20:29:00,32.7,31.4,29.47,NE,42,0.0,0.0,95,0.00,,OVC015,0.05,0.00,VWS V14.01,2013-03-19 00:29:00,
2013-03-18 20:30:00,32.7,31.4,29.47,NE,42,0.0,0.0,95,0.00,,OVC015,0.05,0.00,VWS V14.01,2013-03-19 00:30:00,
2013-03-18 20:31:00,32.7,31.4,29.47,NE,42,0.0,0.0,95,0.00,,OVC015,0.05,0.00,VWS V14.01,2013-03-19 00:31:00,
2013-03-18 20:32:00,32.7,31.4,29.47,NE,42,0.0,0.0,95,0.00,,OVC015,0.05,0.00,VWS V14.01,2013-03-19 00:32:00,
2013-03-18 20:33:00,32.7,31.4,29.47,NE,42,0.0,0.0,95,0.00,,OVC015,0.05,0.00,VWS V14.01,2013-03-19 00:33:00,
2013-03-18 20:34:00,32.7,31.4,29.47,NE,42,0.0,0.0,95,0.00,,OVC013,0.05,0.00,VWS V14.01,2013-03-19 00:34:00,
2013-03-18 20:35:00,32.7,31.4,29.47,NE,42,0.0,0.0,95,0.00,,OVC013,0.05,0.00,VWS V14.01,2013-03-19 00:35:00,
2013-03-18 20:36:00,32.7,31.4,29.47,NE,42,0.0,0.0,95,0.00,,OVC013,0.05,0.00,VWS V14.01,2013-03-19 00:36:00,
2013-03-18 20:37:00,32.7,31.4,29.47,NE,42,0.0,0.0,95,0.00,,OVC013,0.05,0.00,VWS V14.01,2013-03-19 00:37:00,
2013-03-18 20:38:00,32.7,31.4,29.47,NE,42,0.0,0.0,95,0.00,,OVC013,0.05,0.00,VWS V14.01,2013-03-19 00:38:00,
2013-03-18 20:39:00,32.7,31.4,29.47,NE,42,0.0,0.0,95,0.00,,OVC013,0.05,0.00,VWS V14.01,2013-03-19 00:39:00,
2013-03-18 20:40:00,32.7,31.4,29.47,NE,42,0.0,0.0,95,0.00,,OVC013,0.05,0.00,VWS V14.01,2013-03-19 00:40:00,
2013-03-18 20:41:00,32.7,31.4,29.47,NE,42,0.0,0.0,95,0.00,,OVC013,0.05,0.00,VWS V14.01,2013-03-19 00:41:00,
2013-03-18 20:42:00,32.7,31.4,29.47,West,263,1.0,0.0,95,0.00,,OVC013,0.05,0.00,VWS V14.01,2013-03-19 00:42:00,
2013-03-18 20:43:00,32.7,31.4,29.47,West,259,0.0,0.0,95,0.00,,OVC013,0.05,0.00,VWS V14.01,2013-03-19 00:43:00,
2013-03-18 20:44:00,32.7,31.4,29.47,West,259,0.0,0.0,95,0.00,,OVC013,0.05,0.00,VWS V14.01,2013-03-19 00:44:00,
2013-03-18 20:45:00,32.7,31.4,29.47,West,259,0.0,0.0,95,0.00,,OVC013,0.05,0.00,VWS V14.01,2013-03-19 00:45:00,
2013-03-18 20:46:00,32.8,31.5,29.47,West,259,0.0,0.0,95,0.00,,OVC013,0.05,0.00,VWS V14.01,2013-03-19 00:46:00,
2013-03-18 20:47:00,32.8,31.5,29.47,West,259,0.0,0.0,95,0.00,,OVC013,0.05,0.00,VWS V14.01,2013-03-19 00:47:00,
2013-03-18 20:48:00,32.8,31.5,29.47,West,259,0.0,0.0,95,0.00,,OVC013,0.05,0.00,VWS V14.01,2013-03-19 00:48:00,
2013-03-18 20:49:00,32.8,31.5,29.47,West,259,0.0,0.0,95,0.00,,OVC013,0.05,0.00,VWS V14.01,2013-03-19 00:49:00,
2013-03-18 20:50:00,32.8,31.5,29.47,West,259,0.0,0.0,95,0.00,,OVC013,0.05,0.00,VWS V14.01,2013-03-19 00:50:00,
2013-03-18 20:51:00,32.8,31.5,29.47,West,259,0.0,0.0,95,0.00,,OVC013,0.05,0.00,VWS V14.01,2013-03-19 00:51:00,
2013-03-18 20:52:00,32.8,31.5,29.47,West,259,0.0,0.0,95,0.00,,OVC013,0.05,0.00,VWS V14.01,2013-03-19 00:52:00,
2013-03-18 20:53:00,32.8,31.5,29.47,West,259,0.0,0.0,95,0.00,,OVC013,0.05,0.00,VWS V14.01,2013-03-19 00:53:00,
2013-03-18 20:54:00,32.8,31.5,29.47,West,263,0.0,0.0,95,0.00,,OVC013,0.05,0.00,VWS V14.01,2013-03-19 00:54:00,
2013-03-18 20:55:00,32.8,31.5,29.47,West,263,0.0,0.0,95,0.00,,OVC013,0.05,0.00,VWS V14.01,2013-03-19 00:55:00,
2013-03-18 20:56:00,32.8,31.5,29.47,West,263,0.0,0.0,95,0.00,,OVC013,0.05,0.00,VWS V14.01,2013-03-19 00:56:00,
2013-03-18 20:57:00,32.8,31.5,29.47,West,263,0.0,0.0,95,0.00,,OVC013,0.05,0.00,VWS V14.01,2013-03-19 00:57:00,
2013-03-18 20:58:00,32.8,31.5,29.47,West,263,0.0,0.0,95,0.00,,OVC013,0.05,0.00,VWS V14.01,2013-03-19 00:58:00,
2013-03-18 20:59:00,32.8,31.5,29.47,West,263,0.0,0.0,95,0.00,,OVC013,0.05,0.00,VWS V14.01,2013-03-19 00:59:00,
2013-03-18 21:00:00,32.8,31.5,29.47,West,263,0.0,0.0,95,0.00,,OVC013,0.05,0.00,VWS V14.01,2013-03-19 01:00:00,
2013-03-18 21:01:00,32.8,31.5,29.47,West,263,0.0,0.0,95,0.00,,OVC013,0.05,0.00,VWS V14.01,2013-03-19 01:01:00,
2013-03-18 21:02:00,32.8,31.5,29.47,West,263,0.0,0.0,95,0.00,,OVC013,0.05,0.00,VWS V14.01,2013-03-19 01:02:00,
2013-03-18 21:03:00,32.8,31.5,29.47,West,263,0.0,0.0,95,0.00,,OVC013,0.05,0.00,VWS V14.01,2013-03-19 01:03:00,
2013-03-18 21:04:00,32.8,31.5,29.47,West,263,0.0,0.0,95,0.00,,OVC013,0.05,0.00,VWS V14.01,2013-03-19 01:04:00,
2013-03-18 21:05:00,32.8,31.5,29.47,West,263,0.0,0.0,95,0.00,,OVC013,0.05,0.00,VWS V14.01,2013-03-19 01:05:00,
2013-03-18 21:06:00,32.8,31.5,29.47,West,263,0.0,0.0,95,0.00,,OVC013,0.05,0.00,VWS V14.01,2013-03-19 01:06:00,
2013-03-18 21:07:00,32.8,31.5,29.47,West,263,0.0,0.0,95,0.00,,OVC013,0.05,0.00,VWS V14.01,2013-03-19 01:07:00,
2013-03-18 21:08:00,32.8,31.5,29.47,West,263,0.0,0.0,95,0.00,,OVC013,0.05,0.00,VWS V14.01,2013-03-19 01:08:00,
2013-03-18 21:09:00,32.8,31.5,29.47,West,263,0.0,0.0,95,0.00,,OVC013,0.05,0.00,VWS V14.01,2013-03-19 01:09:00,
2013-03-18 21:10:00,32.8,31.5,29.47,West,263,0.0,0.0,95,0.00,,OVC013,0.05,0.00,VWS V14.01,2013-03-19 01:10:00,
2013-03-18 21:11:00,32.8,31.5,29.47,West,263,0.0,0.0,95,0.00,,OVC013,0.05,0.00,VWS V14.01,2013-03-19 01:11:00,
2013-03-18 21:12:00,32.8,31.5,29.47,West,263,0.0,0.0,95,0.00,,OVC013,0.05,0.00,VWS V14.01,2013-03-19 01:12:00,
2013-03-18 21:13:00,32.8,31.5,29.47,West,263,0.0,0.0,95,0.00,,OVC013,0.05,0.00,VWS V14.01,2013-03-19 01:13:00,
2013-03-18 21:14:00,32.8,31.5,29.47,West,263,0.0,0.0,95,0.00,,OVC013,0.05,0.00,VWS V14.01,2013-03-19 01:14:00,
2013-03-18 21:15:00,32.9,31.6,29.47,West,263,0.0,0.0,95,0.00,,OVC013,0.05,0.00,VWS V14.01,2013-03-19 01:15:00,
2013-03-18 21:16:00,32.9,31.6,29.47,NNW,333,0.0,0.0,95,0.00,,OVC013,0.05,0.00,VWS V14.01,2013-03-19 01:16:00,
2013-03-18 21:17:00,32.9,31.6,29.47,NNW,334,0.0,0.0,95,0.00,,OVC013,0.05,0.00,VWS V14.01,2013-03-19 01:17:00,
2013-03-18 21:18:00,32.9,31.6,29.47,NNW,334,0.0,0.0,95,0.00,,OVC013,0.05,0.00,VWS V14.01,2013-03-19 01:18:00,
2013-03-18 21:19:00,32.9,31.6,29.47,NNW,333,0.0,0.0,95,0.00,,OVC013,0.05,0.00,VWS V14.01,2013-03-19 01:19:00,
2013-03-18 21:20:00,32.9,31.6,29.47,NNW,333,0.0,0.0,95,0.00,,OVC013,0.05,0.00,VWS V14.01,2013-03-19 01:20:00,
2013-03-18 21:21:00,32.9,31.6,29.47,NNW,333,0.0,0.0,95,0.00,,OVC013,0.05,0.00,VWS V14.01,2013-03-19 01:21:00,
2013-03-18 21:22:00,32.9,31.6,29.47,NNW,333,0.0,0.0,95,0.00,,OVC013,0.05,0.00,VWS V14.01,2013-03-19 01:22:00,
2013-03-18 21:23:00,32.9,31.6,29.47,NNW,333,0.0,0.0,95,0.00,,OVC013,0.05,0.00,VWS V14.01,2013-03-19 01:23:00,
2013-03-18 21:24:00,32.9,31.6,29.47,NNW,333,0.0,0.0,95,0.00,,OVC013,0.05,0.00,VWS V14.01,2013-03-19 01:24:00,
2013-03-18 21:25:00,32.9,31.6,29.47,NNW,333,0.0,0.0,95,0.00,,OVC013,0.05,0.00,VWS V14.01,2013-03-19 01:25:00,
2013-03-18 21:26:00,32.9,31.6,29.47,SW,217,4.0,0.0,95,0.00,,OVC013,0.05,0.00,VWS V14.01,2013-03-19 01:26:00,
2013-03-18 21:27:00,32.9,31.6,29.47,West,267,0.0,0.0,95,0.00,,OVC013,0.05,0.00,VWS V14.01,2013-03-19 01:27:00,
2013-03-18 21:28:00,32.9,31.6,29.47,West,259,1.0,0.0,95,0.00,,OVC013,0.05,0.00,VWS V14.01,2013-03-19 01:28:00,
2013-03-18 21:29:00,32.9,31.6,29.47,WSW,258,1.0,0.0,95,0.00,,OVC013,0.05,0.00,VWS V14.01,2013-03-19 01:29:00,
2013-03-18 21:30:00,32.9,31.6,29.48,West,275,0.0,0.0,95,0.00,,OVC013,0.05,0.00,VWS V14.01,2013-03-19 01:30:00,
2013-03-18 21:31:00,32.9,31.6,29.48,West,269,2.0,0.0,95,0.00,,OVC013,0.05,0.00,VWS V14.01,2013-03-19 01:31:00,
2013-03-18 21:32:00,32.9,31.6,29.48,NW,311,0.0,0.0,95,0.00,,OVC013,0.05,0.00,VWS V14.01,2013-03-19 01:32:00,
2013-03-18 21:33:00,32.9,31.6,29.48,WNW,292,0.0,0.0,95,0.00,,OVC013,0.05,0.00,VWS V14.01,2013-03-19 01:33:00,
2013-03-18 21:34:00,32.9,31.6,29.48,WNW,293,0.0,0.0,95,0.00,,OVC013,0.05,0.00,VWS V14.01,2013-03-19 01:34:00,
2013-03-18 21:35:00,32.8,31.5,29.48,NNW,336,0.0,0.0,95,0.00,,OVC013,0.05,0.00,VWS V14.01,2013-03-19 01:35:00,
2013-03-18 21:36:00,32.8,31.5,29.48,West,265,0.0,0.0,95,0.00,,OVC013,0.05,0.00,VWS V14.01,2013-03-19 01:36:00,
2013-03-18 21:37:00,32.8,31.5,29.48,South,176,6.0,0.0,95,0.00,,OVC013,0.05,0.00,VWS V14.01,2013-03-19 01:37:00,
2013-03-18 21:38:00,32.8,31.5,29.48,NW,304,3.0,0.0,95,0.00,,OVC013,0.05,0.00,VWS V14.01,2013-03-19 01:38:00,
2013-03-18 21:39:00,32.8,31.5,29.48,NW,323,3.0,0.0,95,0.00,,OVC013,0.05,0.00,VWS V14.01,2013-03-19 01:39:00,
2013-03-18 21:40:00,32.7,31.4,29.48,WSW,246,3.0,0.0,95,0.00,,OVC013,0.05,0.00,VWS V14.01,2013-03-19 01:40:00,
2013-03-18 21:41:00,32.7,31.4,29.48,WSW,243,3.0,0.0,95,0.00,,OVC013,0.05,0.00,VWS V14.01,2013-03-19 01:41:00,
2013-03-18 21:42:00,32.7,31.4,29.48,West,261,1.0,0.0,95,0.00,,OVC013,0.05,0.00,VWS V14.01,2013-03-19 01:42:00,
2013-03-18 21:43:00,32.5,31.2,29.48,WSW,257,8.0,0.0,95,0.00,,OVC013,0.05,0.00,VWS V14.01,2013-03-19 01:43:00,
2013-03-18 22:00:00,31.6,30.1,29.50,West,270,2.0,12.0,94,0.00,,OVC013,0.05,0.00,VWS V14.01,2013-03-19 02:00:00,
2013-03-18 22:30:00,30.6,28.8,29.50,West,270,1.0,6.0,93,0.00,,OVC013,0.05,0.00,VWS V14.01,2013-03-19 02:30:00,
2013-03-18 23:00:00,28.5,26.2,29.53,West,270,1.0,11.0,91,0.00,,OVC013,0.05,0.00,VWS V14.01,2013-03-19 03:00:00,
2013-03-18 23:30:00,27.6,23.7,29.53,West,270,1.0,7.0,85,0.00,,OVC013,0.05,0.00,VWS V14.01,2013-03-19 03:30:00,